[[{"header":{"parameterUnit":"m.s-1","parameterCategory":1,"la1":30.6,"la2":29.2853,"lo1":-89.7004,"lo2":-87.6739,"dy":0.0162,"dx":0.0183,"nx":112,"ny":82,"refTime":"2023-06-06T12:00:00:Z","depth":0,"parameterNumber":2,"parameterNumberName":"U-component_of_WINDS"},"data":[0.0,0.0,0.0,0.0,0.0,0.0,0.0,0.0,0.0,0.0,0.0,0.0,0.0,0.0,0.0,0.0,0.0,0.0,0.0,0.0,0.0,0.0,0.0,0.0,0.0,0.0,0.0,0.0,0.0,0.0,0.0,0.0,0.0,0.0,0.0,0.0,0.0,0.0,0.0,0.0,0.0,0.0,0.0,0.0,0.0,0.0,0.0,0.0,0.0,0.0,0.0,0.0,0.0,0.0,0.0,0.0,0.0,0.0,0.0,0.0,0.0,0.0,0.0,0.0,0.0,0.0,0.0,0.0,0.0,0.0,0.0,0.0,0.0,0.0,0.0,0.0,0.0,0.0,0.0,0.0,0.0,0.0,0.0,0.0,0.0,0.0,0.0,0.0,0.0,0.0,-3.4578,-3.5191,-3.5417,-3.5583,-3.5769,-3.5622,-3.5532,-3.5532,0.0,0.0,0.0,0.0,0.0,0.0,0.0,0.0,0.0,0.0,0.0,0.0,0.0,0.0,0.0,0.0,0.0,0.0,0.0,0.0,0.0,0.0,0.0,0.0,0.0,0.0,0.0,0.0,0.0,0.0,0.0,0.0,0.0,0.0,0.0,0.0,0.0,0.0,0.0,0.0,0.0,0.0,0.0,0.0,0.0,0.0,0.0,0.0,0.0,0.0,0.0,0.0,0.0,0.0,0.0,0.0,0.0,0.0,0.0,0.0,0.0,0.0,0.0,0.0,0.0,0.0,0.0,0.0,0.0,0.0,0.0,0.0,0.0,0.0,0.0,0.0,0.0,0.0,0.0,0.0,0.0,0.0,0.0,0.0,0.0,0.0,0.0,0.0,0.0,0.0,0.0,0.0,0.0,0.0,0.0,0.0,0.0,0.0,0.0,0.0,0.0,0.0,0.0,0.0,-3.4203,-3.5865,-3.5525,-3.5572,-3.6552,-3.5736,-3.5182,-3.5182,0.0,0.0,0.0,0.0,0.0,0.0,0.0,0.0,0.0,0.0,0.0,0.0,0.0,0.0,0.0,0.0,0.0,0.0,0.0,0.0,0.0,0.0,0.0,0.0,0.0,0.0,0.0,0.0,0.0,0.0,0.0,0.0,0.0,0.0,0.0,0.0,0.0,0.0,0.0,0.0,0.0,0.0,0.0,0.0,0.0,0.0,0.0,0.0,0.0,0.0,0.0,0.0,0.0,0.0,0.0,0.0,0.0,0.0,0.0,0.0,0.0,0.0,0.0,0.0,0.0,0.0,0.0,0.0,0.0,0.0,0.0,0.0,0.0,0.0,0.0,0.0,0.0,0.0,0.0,0.0,0.0,0.0,0.0,0.0,0.0,0.0,0.0,0.0,0.0,0.0,0.0,0.0,0.0,0.0,0.0,0.0,0.0,0.0,0.0,0.0,0.0,0.0,0.0,-3.4468,-3.5061,-3.6096,-3.622,-3.631,-3.6451,-3.5758,-3.5176,-3.4796,-3.4763,0.0,0.0,0.0,0.0,0.0,0.0,0.0,0.0,0.0,0.0,0.0,0.0,0.0,0.0,0.0,0.0,0.0,0.0,0.0,0.0,0.0,0.0,0.0,0.0,0.0,0.0,0.0,0.0,0.0,0.0,0.0,0.0,0.0,0.0,0.0,0.0,0.0,0.0,0.0,0.0,0.0,0.0,0.0,0.0,0.0,0.0,0.0,0.0,0.0,0.0,0.0,0.0,0.0,0.0,0.0,0.0,0.0,0.0,0.0,0.0,0.0,0.0,0.0,0.0,0.0,0.0,0.0,0.0,0.0,0.0,0.0,0.0,0.0,0.0,0.0,0.0,0.0,0.0,0.0,0.0,0.0,0.0,0.0,0.0,0.0,0.0,0.0,0.0,0.0,0.0,0.0,0.0,0.0,0.0,0.0,0.0,0.0,0.0,0.0,0.0,0.0,0.0,-3.4803,-3.5811,-3.6117,-3.6704,-3.6846,-3.6331,-3.5728,-3.5067,-3.4398,-3.4349,0.0,0.0,0.0,0.0,0.0,0.0,0.0,0.0,0.0,0.0,0.0,0.0,0.0,0.0,0.0,0.0,0.0,0.0,0.0,0.0,0.0,0.0,0.0,0.0,0.0,0.0,0.0,0.0,0.0,0.0,0.0,0.0,0.0,0.0,0.0,0.0,0.0,0.0,0.0,0.0,0.0,0.0,0.0,0.0,0.0,0.0,0.0,0.0,0.0,0.0,0.0,0.0,0.0,0.0,0.0,0.0,0.0,0.0,0.0,0.0,0.0,0.0,0.0,0.0,0.0,0.0,0.0,0.0,0.0,0.0,0.0,0.0,0.0,0.0,0.0,0.0,0.0,0.0,0.0,0.0,0.0,0.0,0.0,0.0,0.0,0.0,0.0,0.0,0.0,0.0,0.0,0.0,0.0,0.0,0.0,0.0,0.0,0.0,0.0,0.0,0.0,0.0,-3.4378,-3.5783,-3.599,-3.6395,-3.6619,-3.657,-3.5571,-3.4649,-3.3998,-3.3949,0.0,0.0,0.0,0.0,0.0,0.0,0.0,0.0,0.0,0.0,0.0,0.0,0.0,0.0,0.0,0.0,0.0,0.0,0.0,0.0,0.0,0.0,0.0,0.0,0.0,0.0,0.0,0.0,0.0,0.0,0.0,0.0,0.0,0.0,0.0,0.0,0.0,0.0,0.0,0.0,0.0,0.0,0.0,0.0,0.0,0.0,0.0,0.0,0.0,0.0,0.0,0.0,0.0,0.0,0.0,0.0,0.0,0.0,0.0,0.0,0.0,0.0,0.0,0.0,0.0,0.0,0.0,0.0,0.0,0.0,0.0,0.0,0.0,0.0,0.0,0.0,0.0,0.0,0.0,0.0,0.0,0.0,0.0,0.0,0.0,0.0,0.0,0.0,0.0,0.0,0.0,0.0,0.0,0.0,0.0,0.0,0.0,0.0,0.0,0.0,0.0,0.0,-3.4533,-3.5706,-3.6598,-3.7203,-3.7383,-3.6956,-3.6245,-3.5538,-3.4881,0.0,0.0,0.0,0.0,0.0,0.0,0.0,0.0,0.0,0.0,0.0,0.0,0.0,0.0,0.0,0.0,0.0,0.0,0.0,0.0,0.0,0.0,0.0,0.0,0.0,0.0,0.0,0.0,0.0,0.0,0.0,0.0,0.0,0.0,0.0,0.0,0.0,0.0,0.0,0.0,0.0,0.0,0.0,0.0,0.0,0.0,0.0,0.0,0.0,0.0,0.0,0.0,0.0,0.0,0.0,0.0,0.0,0.0,0.0,0.0,0.0,0.0,0.0,0.0,0.0,0.0,0.0,0.0,0.0,0.0,0.0,0.0,0.0,0.0,0.0,0.0,0.0,0.0,0.0,0.0,0.0,0.0,0.0,0.0,0.0,0.0,0.0,0.0,0.0,0.0,0.0,0.0,0.0,0.0,0.0,0.0,0.0,0.0,0.0,0.0,0.0,0.0,-3.3593,-3.477,-3.5834,-3.6782,-3.7612,-3.7769,-3.695,-3.6578,-3.6093,-3.5426,0.0,0.0,0.0,0.0,0.0,0.0,0.0,0.0,0.0,0.0,0.0,0.0,0.0,0.0,0.0,0.0,0.0,0.0,0.0,0.0,0.0,0.0,0.0,0.0,0.0,0.0,0.0,0.0,0.0,0.0,0.0,0.0,0.0,0.0,0.0,0.0,0.0,0.0,0.0,0.0,0.0,0.0,0.0,0.0,0.0,0.0,0.0,0.0,0.0,0.0,0.0,0.0,0.0,0.0,0.0,0.0,0.0,0.0,0.0,0.0,0.0,0.0,0.0,0.0,0.0,0.0,0.0,0.0,0.0,0.0,0.0,0.0,0.0,0.0,0.0,0.0,0.0,0.0,0.0,0.0,0.0,0.0,0.0,0.0,0.0,0.0,0.0,0.0,0.0,0.0,0.0,0.0,0.0,0.0,0.0,0.0,0.0,0.0,0.0,0.0,0.0,0.0,-3.3433,-3.5034,-3.6182,-3.6393,-3.7428,-3.7642,-3.6529,-3.6408,-3.6137,0.0,0.0,0.0,0.0,0.0,0.0,0.0,0.0,0.0,0.0,0.0,0.0,0.0,0.0,0.0,0.0,0.0,0.0,0.0,0.0,0.0,0.0,0.0,0.0,0.0,0.0,0.0,0.0,0.0,0.0,0.0,0.0,0.0,0.0,0.0,0.0,0.0,0.0,0.0,0.0,0.0,0.0,0.0,0.0,0.0,0.0,0.0,0.0,0.0,0.0,0.0,0.0,0.0,0.0,0.0,0.0,0.0,0.0,0.0,0.0,0.0,0.0,0.0,0.0,0.0,0.0,0.0,0.0,0.0,0.0,0.0,0.0,0.0,0.0,0.0,0.0,0.0,0.0,0.0,0.0,0.0,0.0,0.0,0.0,0.0,0.0,0.0,0.0,0.0,0.0,0.0,0.0,0.0,0.0,0.0,0.0,0.0,0.0,0.0,0.0,0.0,0.0,0.0,-3.4755,-3.5364,-3.6051,-3.7087,-3.7485,-3.7546,-3.7209,-3.7164,-3.7085,-3.6909,0.0,0.0,0.0,0.0,0.0,0.0,0.0,0.0,0.0,0.0,0.0,0.0,0.0,0.0,0.0,0.0,0.0,0.0,0.0,0.0,0.0,0.0,0.0,0.0,0.0,0.0,0.0,0.0,0.0,0.0,0.0,0.0,0.0,0.0,0.0,0.0,0.0,0.0,0.0,0.0,0.0,0.0,0.0,0.0,0.0,0.0,0.0,0.0,0.0,0.0,0.0,0.0,0.0,0.0,0.0,0.0,0.0,0.0,0.0,0.0,0.0,0.0,0.0,0.0,0.0,0.0,0.0,0.0,0.0,0.0,0.0,0.0,0.0,0.0,0.0,0.0,0.0,0.0,0.0,0.0,0.0,0.0,0.0,0.0,0.0,0.0,0.0,0.0,0.0,0.0,0.0,0.0,0.0,0.0,0.0,0.0,0.0,0.0,0.0,0.0,0.0,0.0,-3.5369,-3.5722,-3.632,-3.7373,-3.751,-3.751,-3.751,-3.751,-3.751,-3.751,0.0,0.0,0.0,0.0,0.0,0.0,0.0,0.0,0.0,0.0,0.0,0.0,0.0,0.0,0.0,0.0,0.0,0.0,0.0,0.0,0.0,0.0,0.0,0.0,0.0,0.0,0.0,0.0,0.0,0.0,0.0,0.0,0.0,0.0,0.0,0.0,0.0,0.0,0.0,0.0,0.0,0.0,0.0,0.0,0.0,0.0,0.0,0.0,0.0,0.0,0.0,0.0,0.0,0.0,0.0,0.0,0.0,0.0,0.0,0.0,0.0,0.0,0.0,0.0,0.0,0.0,0.0,0.0,0.0,0.0,0.0,0.0,0.0,0.0,0.0,0.0,0.0,0.0,0.0,0.0,0.0,0.0,0.0,0.0,0.0,0.0,0.0,0.0,0.0,0.0,0.0,0.0,0.0,0.0,0.0,0.0,0.0,0.0,0.0,0.0,0.0,0.0,-3.5447,-3.6107,-3.6739,-3.7391,-3.748,-3.751,-3.751,-3.751,-3.751,-3.751,0.0,0.0,0.0,0.0,0.0,0.0,0.0,0.0,0.0,0.0,0.0,0.0,0.0,0.0,0.0,0.0,0.0,0.0,0.0,0.0,0.0,0.0,0.0,0.0,0.0,0.0,0.0,0.0,0.0,0.0,0.0,0.0,0.0,0.0,0.0,0.0,0.0,0.0,0.0,0.0,0.0,0.0,0.0,0.0,0.0,0.0,0.0,0.0,0.0,0.0,0.0,0.0,0.0,0.0,0.0,0.0,0.0,0.0,0.0,0.0,-3.3365,0.0,0.0,0.0,0.0,0.0,0.0,0.0,0.0,0.0,0.0,0.0,0.0,0.0,0.0,0.0,0.0,0.0,0.0,0.0,0.0,0.0,0.0,0.0,0.0,0.0,0.0,0.0,0.0,0.0,0.0,0.0,0.0,0.0,0.0,0.0,0.0,0.0,0.0,0.0,0.0,0.0,-3.5824,-3.6244,-3.6662,-3.706,-3.7331,-3.751,-3.751,-3.751,-3.751,-3.751,-3.751,0.0,0.0,0.0,0.0,0.0,0.0,0.0,0.0,0.0,0.0,0.0,0.0,0.0,0.0,0.0,0.0,0.0,0.0,0.0,0.0,0.0,0.0,0.0,0.0,0.0,0.0,0.0,0.0,0.0,0.0,0.0,0.0,0.0,0.0,0.0,0.0,0.0,0.0,0.0,0.0,0.0,0.0,0.0,0.0,0.0,0.0,0.0,0.0,0.0,0.0,0.0,0.0,0.0,0.0,0.0,0.0,0.0,0.0,0.0,0.0,-3.3499,0.0,0.0,0.0,0.0,0.0,0.0,0.0,0.0,0.0,0.0,0.0,0.0,0.0,0.0,0.0,0.0,0.0,0.0,0.0,0.0,0.0,0.0,0.0,0.0,0.0,0.0,0.0,0.0,0.0,0.0,0.0,0.0,0.0,0.0,0.0,0.0,0.0,0.0,0.0,0.0,-3.5941,-3.6289,-3.6631,-3.6969,-3.7301,-3.751,-3.751,-3.751,-3.751,-3.751,-3.751,0.0,0.0,0.0,0.0,0.0,0.0,0.0,0.0,0.0,0.0,0.0,0.0,0.0,0.0,0.0,0.0,0.0,0.0,0.0,0.0,0.0,0.0,0.0,0.0,0.0,0.0,0.0,0.0,0.0,0.0,0.0,0.0,0.0,0.0,0.0,0.0,0.0,0.0,0.0,0.0,0.0,0.0,0.0,0.0,0.0,0.0,0.0,0.0,0.0,0.0,0.0,0.0,0.0,-3.4016,-3.4079,-3.4203,-3.4741,-3.5028,-3.4983,-3.4412,-3.4053,-3.3844,-3.3844,0.0,0.0,0.0,0.0,0.0,0.0,0.0,0.0,0.0,0.0,0.0,0.0,0.0,0.0,0.0,0.0,0.0,0.0,0.0,0.0,0.0,0.0,0.0,0.0,-3.4262,-3.4502,0.0,0.0,0.0,0.0,0.0,0.0,0.0,0.0,0.0,0.0,0.0,0.0,-3.5973,-3.6336,-3.6677,-3.6984,-3.7301,-3.751,-3.751,-3.751,-3.751,-3.751,-3.751,-3.751,0.0,0.0,0.0,0.0,0.0,0.0,0.0,0.0,0.0,0.0,0.0,0.0,0.0,0.0,0.0,0.0,0.0,0.0,0.0,0.0,0.0,0.0,0.0,0.0,0.0,0.0,0.0,0.0,0.0,0.0,0.0,0.0,-3.3949,-3.3412,0.0,0.0,0.0,0.0,0.0,0.0,0.0,0.0,0.0,0.0,0.0,0.0,0.0,-3.424,-3.4431,-3.4431,-3.4984,-3.6113,-3.6113,-3.6369,-3.6896,-3.6985,-3.703,-3.7015,-3.6926,0.0,-3.525,-3.525,0.0,0.0,0.0,0.0,0.0,0.0,0.0,0.0,0.0,0.0,0.0,0.0,0.0,0.0,0.0,0.0,0.0,0.0,0.0,0.0,0.0,0.0,-3.525,-3.525,-3.531,-3.534,0.0,-3.525,-3.525,-3.525,-3.531,0.0,0.0,0.0,0.0,0.0,0.0,0.0,-3.6005,-3.6554,-3.6938,-3.7015,-3.7301,-3.751,-3.751,-3.751,-3.751,-3.751,-3.751,-3.751,-3.751,-3.751,0.0,0.0,0.0,0.0,0.0,0.0,0.0,0.0,0.0,0.0,0.0,0.0,0.0,0.0,0.0,0.0,0.0,0.0,0.0,0.0,0.0,0.0,0.0,0.0,0.0,0.0,0.0,0.0,0.0,-3.3832,-3.3804,-3.353,-3.3728,-3.394,0.0,0.0,0.0,0.0,0.0,0.0,0.0,0.0,0.0,-3.3456,-3.419,-3.4652,-3.4767,-3.4767,-3.5186,-3.5985,-3.6345,-3.6649,-3.6917,-3.7636,-3.775,-3.7417,-3.7819,-3.7434,-3.6582,-3.6582,-3.6582,-3.6537,0.0,0.0,0.0,0.0,-3.5504,-3.5504,-3.5504,-3.5504,0.0,-3.5504,0.0,0.0,0.0,0.0,0.0,0.0,0.0,0.0,0.0,0.0,-3.6582,-3.6582,-3.6582,-3.6582,-3.6582,-3.6582,-3.6372,0.0,-3.5504,-3.5504,-3.5504,0.0,0.0,0.0,0.0,-3.5933,-3.6489,-3.6967,-3.7514,-3.806,-3.8433,-3.846,-3.8081,-3.8065,-3.7891,-3.7526,-3.751,-3.751,-3.751,-3.751,-3.751,0.0,0.0,0.0,0.0,0.0,0.0,0.0,0.0,0.0,0.0,0.0,0.0,0.0,0.0,0.0,0.0,0.0,0.0,0.0,0.0,0.0,0.0,0.0,0.0,0.0,0.0,0.0,0.0,-3.3903,-3.4008,-3.4008,-3.4008,-3.4203,0.0,0.0,0.0,0.0,0.0,0.0,-3.4153,-3.4508,-3.4533,-3.4149,-3.4547,-3.4965,-3.5283,-3.5283,-3.5621,-3.633,-3.6745,-3.7086,-3.7268,-3.8402,-3.8646,-3.8215,-3.8888,-3.8871,-3.8377,-3.7689,-3.7404,-3.736,-3.6911,-3.6716,-3.6671,-3.6178,-3.5998,-3.5998,-3.5998,-3.5998,-3.5998,-3.5998,0.0,-3.5998,-3.5998,0.0,0.0,0.0,0.0,-3.6716,-3.6716,-3.706,-3.7404,-3.7404,-3.7404,-3.7404,-3.7404,-3.7404,-3.712,0.0,-3.5998,-3.5998,-3.5998,0.0,0.0,0.0,0.0,-3.6393,-3.7124,-3.7594,-3.8165,-3.8917,-3.9314,-3.9297,-3.8807,-3.8618,-3.8302,-3.778,-3.7575,-3.751,-3.751,-3.751,-3.751,-3.751,0.0,0.0,0.0,0.0,0.0,0.0,0.0,0.0,0.0,0.0,0.0,0.0,0.0,0.0,0.0,0.0,0.0,0.0,0.0,0.0,0.0,0.0,0.0,0.0,0.0,0.0,0.0,0.0,0.0,-3.54,-3.54,0.0,0.0,0.0,0.0,-3.5512,-3.6012,-3.5899,-3.4799,-3.4761,-3.4775,-3.4774,-3.4787,-3.537,-3.6497,-3.6511,-3.7113,-3.8254,-3.8282,-3.8638,-3.9259,-3.9963,-4.0276,-4.0286,-4.0954,-4.1205,-4.098,-3.8452,-3.7404,-3.7404,-3.7375,-3.736,-3.736,-3.733,-3.7315,-3.7315,-3.7315,-3.7315,-3.7315,-3.7315,-3.7315,-3.7315,-3.7315,-3.7315,0.0,0.0,-3.7345,-3.736,-3.736,-3.7389,-3.7404,-3.7404,-3.7404,-3.7404,-3.7404,-3.7404,-3.7389,0.0,-3.7315,-3.7315,-3.7315,0.0,-3.7315,-3.7315,-3.7586,-3.7804,-3.7867,-3.8496,-3.8933,-3.8996,-3.9314,-3.9487,-3.9455,-3.8886,-3.8507,-3.846,-3.7844,-3.751,-3.751,-3.751,-3.751,-3.751,-3.751,0.0,0.0,0.0,0.0,0.0,0.0,0.0,0.0,0.0,0.0,0.0,0.0,0.0,0.0,0.0,0.0,0.0,0.0,0.0,0.0,0.0,0.0,0.0,0.0,0.0,0.0,0.0,0.0,-3.6133,-3.6492,0.0,-3.6731,-3.6635,-3.6477,-3.6219,-3.6099,-3.6048,-3.6035,-3.5995,-3.6143,-3.651,-3.6523,-3.6726,-3.7147,-3.7202,-3.7395,-3.781,-3.8193,-3.8512,-3.8823,-4.0302,-4.0752,-4.0403,-4.1557,-4.1811,-4.1347,-4.0352,-3.9963,-3.9888,-3.9035,-3.8706,-3.8566,-3.7734,-3.7404,-3.7404,-3.7404,-3.7404,-3.7404,-3.7404,-3.7404,-3.7404,-3.7404,-3.7404,-3.7404,-3.7404,-3.7719,-3.8033,-3.8033,-3.8362,-3.8706,-3.8706,-3.8706,-3.8706,-3.8706,-3.8706,-3.8706,-3.8706,-3.8003,-3.7404,-3.7404,-3.7404,-3.7404,-3.7404,-3.7711,-3.8214,-3.8861,-3.9404,-3.9969,-4.0604,-4.0781,-4.0672,-4.0245,-3.955,-3.8965,-3.8539,-3.7859,-3.751,-3.751,-3.751,-3.751,-3.751,-3.751,-3.751,0.0,0.0,0.0,0.0,0.0,0.0,0.0,0.0,0.0,0.0,0.0,0.0,0.0,0.0,0.0,0.0,0.0,0.0,0.0,0.0,0.0,0.0,0.0,0.0,0.0,0.0,-3.6567,-3.6776,-3.7165,-3.7494,-3.7719,-3.7629,-3.7567,-3.7572,-3.7465,-3.7356,-3.7304,-3.7262,-3.7384,-3.777,-3.7783,-3.7878,-3.8095,-3.8095,-3.8095,-3.8095,-3.8532,-3.8708,-3.8765,-4.0534,-4.1067,-4.0709,-4.209,-4.2447,-4.2043,-4.2043,-4.2043,-4.1908,-4.0591,-4.0083,-3.9978,-3.908,-3.8751,-3.8751,-3.8751,-3.8751,-3.8706,-3.8497,-3.8422,-3.8377,-3.8153,-3.8242,-3.8422,-3.8422,-3.8901,-3.9394,-3.9394,-3.9574,-3.9753,-3.9753,-3.9574,-3.9388,-3.9388,-3.9388,-3.9388,-3.9388,-3.8691,-3.8078,-3.8078,-3.8078,-3.8078,-3.8078,-3.8301,-3.8762,-3.9581,-4.0016,-4.0522,-4.1343,-4.1522,-4.1415,-4.0972,-4.0056,-3.9313,-3.8886,-3.7986,-3.751,-3.751,-3.751,-3.751,-3.751,-3.751,-3.751,-3.751,0.0,0.0,0.0,0.0,0.0,0.0,0.0,0.0,0.0,0.0,0.0,0.0,0.0,0.0,0.0,0.0,0.0,0.0,0.0,0.0,0.0,0.0,0.0,-3.6507,-3.6537,-3.6776,-3.7404,-3.7494,-3.7764,-3.8422,-3.9095,-3.9483,-3.9542,-4.0202,-3.9964,-3.8656,-3.8615,-3.8588,-3.8477,-3.8505,-3.8776,-3.9346,-3.9359,-3.9359,-3.9359,-3.9359,-3.9359,-3.9404,-4.073,-4.1353,-4.1437,-4.2758,-4.3334,-4.3319,-4.3319,-4.3319,-4.317,-4.1908,-4.1452,-4.1452,-4.1384,-4.1422,-4.1422,-4.1422,-4.1422,-4.1265,-4.0636,-4.0427,-4.0307,-3.9679,-3.9933,-4.0427,-4.0427,-4.0891,-4.1422,-4.1422,-4.0905,-4.0427,-4.0427,-3.9933,-3.9454,-3.9454,-3.9388,-3.9388,-3.9388,-3.9388,-3.9388,-3.9388,-3.9388,-3.9388,-3.9424,-3.9424,0.0,-3.9996,-4.0331,-4.0696,-4.1055,-4.139,-4.1588,-4.1588,-4.0309,-3.9503,-3.9503,-3.8223,-3.751,-3.751,-3.751,-3.751,-3.751,-3.751,-3.751,-3.751,0.0,0.0,0.0,0.0,0.0,0.0,0.0,0.0,0.0,0.0,0.0,0.0,0.0,0.0,0.0,0.0,0.0,0.0,0.0,0.0,0.0,0.0,-3.715,-3.715,-3.7569,-3.8123,-3.8781,-3.929,-3.9828,-4.0502,-4.0726,-4.0845,-4.0859,-4.147,-4.1386,-4.049,-4.1412,-4.1485,-4.0363,-4.0893,-4.0976,-4.0621,-4.0621,-4.0621,-4.0621,-4.0621,-4.0621,-4.0621,-4.1474,-4.2171,-4.2725,-4.3596,-4.3974,-4.4047,-4.4047,-4.3723,-4.3215,-4.2417,-4.2126,-4.2066,-4.1587,-4.1422,-4.1422,-4.1422,-4.1422,-4.1354,-4.1175,-4.1115,-4.107,-4.0891,-4.0965,-4.1115,-4.1115,-4.125,-4.1422,-4.1422,-4.125,-4.1115,-4.1115,-4.0606,-4.0127,-4.0127,-3.9753,-3.9388,-3.9388,-3.9388,-3.9388,-3.9388,-3.9388,-3.9496,-3.9783,-4.0051,0.0,-4.073,-4.1088,-4.1323,-4.1456,-4.1555,-4.1588,-4.1588,-4.0309,-3.9503,-3.9503,-3.8223,-3.751,-3.751,-3.751,-3.751,-3.751,-3.751,-3.751,0.0,0.0,0.0,0.0,0.0,0.0,0.0,0.0,0.0,0.0,0.0,0.0,0.0,0.0,0.0,0.0,0.0,0.0,0.0,0.0,0.0,0.0,-3.7823,-3.8347,-3.8631,-3.8751,-3.917,-4.0127,-4.0576,-4.107,-4.1767,-4.2043,-4.2312,-4.2581,-4.3193,-4.3263,-4.2521,-4.2969,-4.2737,-4.1604,-4.1987,-4.1864,-4.1123,-4.1433,-4.1433,-4.1123,-4.1123,-4.1123,-4.111,-4.1773,-4.2334,0.0,-4.3762,-4.4215,-4.4264,-4.4299,-4.4092,0.0,0.0,0.0,0.0,0.0,-4.2207,-4.2207,-4.2207,-4.2207,-4.2147,-4.1878,-4.1826,-4.1782,-4.1512,-4.1617,-4.1826,-4.1826,-4.1983,-4.2207,-4.2207,-4.1998,-4.1826,-4.1826,-4.1294,-4.0816,-4.0816,-4.0292,-3.9828,-3.9828,-3.9604,0.0,-3.9388,-3.9388,-3.9496,-3.9711,-4.0051,-4.0436,-4.0799,-4.1171,-4.1423,-4.1588,-4.1588,-4.1588,-4.1588,-4.0577,0.0,0.0,0.0,-3.778,-3.7526,-3.751,0.0,0.0,0.0,-3.751,-3.751,0.0,0.0,0.0,-3.751,-3.751,0.0,0.0,0.0,0.0,0.0,0.0,0.0,0.0,0.0,0.0,0.0,0.0,0.0,0.0,0.0,0.0,-3.914,-3.9873,-4.0531,-4.0113,-4.0187,-4.1354,-4.1602,-4.1901,-4.256,-4.318,-4.3753,-4.4377,-4.5035,-4.5102,-4.4452,0.0,0.0,0.0,0.0,-4.2286,-4.1579,-4.2104,-4.2058,-4.1406,-4.136,-4.1313,-4.1313,-4.1934,-4.2241,-4.2408,-4.3718,-4.4296,-4.4308,-4.4477,-4.4451,-4.4242,-4.3544,-4.329,-4.329,-4.329,-4.3329,-4.3369,-4.3369,0.0,0.0,-4.2812,-4.2632,-4.2488,-4.1926,-4.2128,-4.2515,-4.2554,-4.2935,-4.329,-4.329,-4.2895,-4.2515,-4.2515,-4.2006,-4.1527,-4.1527,-4.098,-4.0502,-4.0502,-3.9978,-3.9529,-3.9565,-3.9469,-3.9424,-3.9517,-3.9818,-4.0191,-4.0558,-4.0935,-4.1256,-4.1555,0.0,0.0,-4.1588,-4.0988,-4.0293,-3.955,-3.8807,-3.8128,-3.7526,-3.751,-3.751,-3.751,-3.751,-3.751,-3.751,-3.751,-3.751,-3.751,-3.751,-3.751,0.0,0.0,0.0,0.0,0.0,0.0,0.0,0.0,0.0,0.0,0.0,0.0,0.0,0.0,0.0,-3.92,-4.0217,-4.1235,-4.1931,-4.1916,-4.1931,-4.2186,-4.2695,-4.3254,-4.3868,-4.4526,-4.4975,-4.5095,-4.5738,-4.5801,-4.5068,-4.5989,-4.5903,-4.4573,-4.5101,-4.5055,-4.4344,-4.3864,-4.3584,-4.3443,0.0,0.0,-4.2548,-4.2678,-4.3093,-4.3678,-4.4527,-4.4962,-4.5054,-4.5667,-4.5304,-4.4242,-4.3544,-4.329,-4.329,-4.329,-4.3542,-4.3856,-4.3856,-4.4089,-4.4328,-4.419,-4.3968,-4.3721,-4.3915,-4.3592,0.0,-4.3581,-4.3476,-4.329,-4.329,-4.32,-4.315,-4.315,-4.2641,-4.2216,-4.2216,-4.1692,-4.119,-4.119,-4.0666,-4.0276,-4.0538,-3.9935,-3.9589,-4.0211,-4.0351,-4.0627,-4.129,-4.1456,-4.1522,-4.1588,-4.1588,-4.1588,-4.1588,-4.0988,-4.0293,-3.955,-3.8349,-3.7652,-3.751,-3.751,-3.751,-3.751,-3.751,-3.751,-3.751,-3.751,-3.751,-3.751,-3.751,-3.751,0.0,0.0,0.0,0.0,0.0,0.0,0.0,0.0,0.0,0.0,0.0,-3.8211,0.0,0.0,-4.0023,-4.0352,-4.1235,-4.2021,-4.2351,-4.2965,-4.3344,-4.3344,-4.3643,-4.4107,-4.4751,-4.5424,-4.5813,-4.5813,-4.6441,-4.6629,-4.6253,-4.6578,-4.6432,-4.5687,-4.6016,-4.5837,-4.5113,-4.4759,-4.4387,-4.3979,-4.3259,-4.2887,-4.2887,-4.2887,-4.3115,-4.3519,-4.462,-4.5123,-4.5182,-4.5628,-4.5338,-4.4549,-4.3916,-4.3503,-4.329,-4.329,-4.3621,-4.3988,-4.3988,-4.4243,-4.461,-4.461,-4.4458,-4.4358,-4.4549,-4.4305,-4.3957,-4.3972,-4.3817,-4.3621,-4.3369,-4.329,-4.3369,-4.3566,-4.3404,-4.3255,-4.3472,-4.2841,-4.2183,-4.2183,-4.1678,-4.1232,-4.1401,-4.0906,-4.0502,-4.0516,-4.0662,-4.0935,-4.129,-4.1489,-4.1588,-4.1588,-4.1588,-4.1588,-4.1588,-4.0988,-4.0451,-4.0072,-3.9076,-3.8349,-3.8002,-3.8002,-3.7828,-3.7526,-3.751,-3.751,-3.751,-3.751,-3.751,-3.751,-3.751,-3.751,0.0,0.0,0.0,0.0,0.0,0.0,0.0,-3.8138,-3.8122,-3.819,-3.8492,-3.899,-3.9664,-4.0337,-4.095,-4.1527,-4.2171,-4.2635,-4.277,-4.3643,-4.4407,-4.4676,-4.4706,-4.4915,-4.5439,-4.6112,-4.6474,-4.6474,-4.701,-4.7309,-4.7309,-4.6756,-4.6388,-4.6388,-4.6388,-4.6106,-4.5537,-4.5401,-4.5035,-4.4401,-4.3662,-4.3341,-4.3341,-4.3341,-4.3389,-4.3505,-4.4961,-4.5526,-4.5473,-4.5501,-4.5349,-4.4971,-4.4347,-4.3895,-4.3566,-4.3566,-4.384,-4.4243,-4.4243,-4.4511,-4.4852,-4.4852,-4.4761,-4.4723,-4.4814,-4.4739,-4.4549,-4.4281,-4.4166,-4.4011,-4.3542,-4.3448,-4.3503,-4.3778,-4.3856,-4.3972,-4.4381,-4.3777,-4.3221,-4.3297,-4.2772,-4.2321,-4.2395,-4.2114,-4.165,-4.0921,-4.0979,-4.1138,-4.1205,-4.1423,-4.1588,-4.1588,-4.1588,-4.1588,-4.1588,-4.0988,-4.0609,-4.0609,-3.9914,-3.9266,-3.8728,-3.8697,-3.8444,-3.7905,-3.7905,-3.7905,-3.7905,-3.7905,-3.7905,-3.7905,-3.7905,-3.7826,-3.751,-3.7665,-3.7903,-3.828,-3.8321,-3.8157,0.0,-3.8163,-3.8871,-3.9172,-3.9723,-4.0382,-4.104,-4.1737,-4.2201,-4.2276,-4.2806,-4.3394,-4.4003,-4.4227,-4.4766,-4.5906,-4.6055,-4.6127,-4.6202,-4.68,-4.7189,-4.7189,-4.7264,-4.7309,-4.7309,-4.7222,-4.7164,-4.7164,-4.7164,-4.7121,-4.7077,-4.6388,-4.6031,-4.5941,-4.5218,-4.4837,-4.4837,-4.4837,-4.5052,-4.5465,-4.6681,-4.7046,-4.6701,-4.6534,-4.6085,-4.5448,-4.4811,-4.4496,-4.4458,-4.4458,-4.4723,-4.5061,-4.5061,-4.5336,-4.5662,-4.5662,-4.541,-4.521,-4.5573,-4.5151,-4.4648,-4.4986,-4.4799,-4.4435,-4.4011,-4.391,-4.3817,-4.3448,-4.3369,-4.3488,-4.3988,-4.3966,-4.3982,-4.435,-4.3872,-4.3522,-4.38,-4.335,-4.27,-4.1999,-4.1445,-4.1205,-4.1522,-4.1588,-4.1588,-4.1588,-4.1588,-4.1588,-4.1588,-4.0988,-4.0609,-4.0609,-3.9914,-3.9471,-3.9392,-3.9392,-3.9345,-3.9281,-3.9281,-3.9281,-3.9281,-3.9281,-3.9281,-3.9281,-3.9281,-3.8965,-3.8075,-3.815,-3.8263,-3.8405,-3.8724,-3.9013,-3.9137,-3.9772,-4.0386,-4.0539,-4.0786,-4.1175,-4.1871,-4.2216,-4.2515,0.0,-4.3125,-4.3529,-4.4227,-4.4646,-4.5244,-4.6217,-4.6623,-4.689,-4.689,-4.7145,-4.7309,-4.7309,-4.7309,-4.7309,-4.7309,-4.7309,-4.7309,-4.7309,-4.7309,-4.7309,-4.7309,-4.658,-4.621,-4.621,-4.5446,-4.5113,-4.5113,-4.5386,-4.574,-4.6175,-4.6229,-4.6444,-4.6635,-4.6217,-4.6005,-4.5888,-4.5228,-4.5114,-4.5241,-4.4761,-4.4836,-4.521,-4.521,-4.5447,-4.5807,-4.5807,-4.5698,-4.5573,-4.5735,-4.5589,-4.5262,-4.521,-4.5098,-4.4874,-4.4473,-4.4358,-4.4358,-4.4404,-4.4404,-4.4518,-4.4964,-4.4852,-4.4761,-4.4911,-4.4716,-4.4567,-4.4699,-4.4355,-4.3933,-4.3651,-4.3022,-4.2509,-4.2284,-4.2236,-4.2062,-4.1636,-4.1588,-4.1588,-4.1588,-4.1336,-4.1178,-4.1178,-4.0893,-4.0546,-4.0166,-4.0151,-3.9945,-3.9518,-3.9503,-3.9503,-3.9503,-3.9503,-3.9503,-3.9503,-3.9503,-3.9582,-3.9024,-3.9056,-3.9082,-3.9223,-3.9598,-4.0083,-4.0561,-4.104,-4.1467,-4.1647,-4.1692,-4.1886,-4.2506,-4.2626,-4.2776,-4.3215,-4.329,-4.3589,-4.4466,-4.4825,-4.5394,-4.6444,-4.6837,-4.7077,-4.7266,-4.7309,-4.7309,-4.7309,-4.7309,-4.7309,-4.7309,-4.7309,-4.7309,-4.7309,-4.7309,-4.7309,-4.7309,-4.6756,-4.6491,-4.6476,-4.5782,-4.5502,-4.5621,-4.5991,-4.6282,-4.6501,-4.6219,-4.6211,-4.6398,-4.6059,-4.5979,-4.6019,-4.5577,-4.5536,-4.5735,-4.5167,-4.5114,-4.5373,-4.5373,-4.5573,-4.5807,-4.5807,-4.5807,-4.5807,-4.5807,-4.5807,-4.5735,-4.5447,-4.5373,-4.5262,-4.4874,-4.4761,-4.4799,-4.4986,-4.5024,-4.5136,-4.5536,-4.541,-4.5247,-4.5321,-4.5373,-4.5373,-4.5373,-4.5169,-4.5017,-4.5017,-4.4606,-4.3974,-4.3074,-4.2979,-4.2774,-4.2236,-4.1999,-4.1889,-4.1889,-4.1715,-4.1588,-4.1588,-4.1588,-4.1367,-4.0893,-4.0877,-4.0625,-4.0087,-4.0072,-4.0072,-4.0072,-4.0072,-4.0072,-4.0072,-4.0072,-4.0372,-4.034,-4.0475,-4.0597,-4.1238,-4.1371,-4.1324,-4.1392,-4.1407,-4.1602,-4.2246,-4.2366,-4.256,-4.314,-4.326,-4.3275,-4.329,-4.329,-4.3738,-4.508,-4.4674,-4.4991,-4.7028,-4.6653,-4.6535,0.0,-4.7309,-4.7309,-4.7309,-4.7309,-4.7309,-4.7309,-4.7309,-4.7309,-4.7309,-4.7309,-4.7309,-4.7309,-4.7266,-4.7266,-4.7251,-4.6565,-4.6464,-4.6838,-4.7062,-4.6911,-4.6539,-4.7456,-4.7195,-4.6227,-4.6595,-4.6387,-4.5803,-4.5787,-4.5771,-4.5807,-4.5771,-4.5771,-4.5771,-4.5771,-4.5771,-4.5807,-4.5807,-4.5807,-4.5807,-4.5807,-4.5807,-4.5807,-4.5771,-4.5771,-4.5698,-4.5284,-4.5173,-4.5098,-4.4685,-4.4625,-4.4723,-4.5136,-4.521,-4.5336,-4.5698,-4.5771,-4.5771,-4.5771,-4.5755,-4.5776,-4.5776,-4.576,-4.5238,-4.3867,-4.3674,-4.3655,-4.3624,-4.3058,-4.2663,-4.2663,-4.1999,-4.1588,-4.1588,-4.1588,-4.1573,-4.1557,-4.1557,-4.1541,-4.1525,-4.1525,-4.1525,-4.1525,-4.1525,-4.1525,-4.1525,-4.1525,-4.1541,-4.1337,-4.1364,-4.1284,-4.1708,-4.1949,-4.2066,-4.2066,-4.2357,-4.2731,-4.2955,-4.3015,-4.3075,-4.3245,-4.329,-4.317,-4.2714,-4.2633,-4.2952,-4.3775,-4.369,-4.4298,-4.6329,-4.6358,0.0,0.0,0.0,0.0,-4.7309,-4.7309,-4.7309,-4.7309,-4.7309,-4.7309,-4.7309,-4.7309,-4.7309,-4.7309,-4.6875,-4.6651,-4.6651,-4.6214,-4.6254,-4.6711,-4.6602,-4.6599,-4.6689,-4.6544,-4.6303,-4.5934,-4.6066,-4.6013,-4.5807,-4.5807,-4.5807,-4.5807,-4.5807,-4.5807,-4.5807,-4.5807,-4.5807,-4.5807,-4.5807,-4.5807,-4.5807,-4.5807,-4.5807,-4.5807,-4.5807,-4.5807,-4.5771,-4.5646,-4.5609,-4.5573,-4.5426,-4.5389,-4.5426,-4.5573,-4.5609,-4.5646,-4.5771,-4.5807,-4.5807,-4.5807,-4.5807,-4.5807,-4.5807,-4.5396,-4.4907,-4.4417,-4.399,-4.3687,-4.3687,-4.3516,-4.3358,-4.3342,-4.3137,-4.2805,-4.2347,-4.2315,-4.2094,-4.1604,-4.1588,-4.1588,-4.1588,-4.1588,-4.1588,-4.1588,-4.1588,-4.1588,-4.1588,-4.1588,-4.1588,-4.214,-4.2389,-4.2428,-4.253,-4.2743,-4.2911,-4.2755,-4.2851,-4.2985,-4.2985,-4.2806,-4.2701,-4.294,-4.2985,-4.2902,-4.267,-4.2673,-4.2869,-4.3459,-4.3327,-4.3814,-4.5587,-4.5837,-4.6106,0.0,0.0,0.0,-4.7309,-4.7309,-4.7309,-4.7309,-4.7309,-4.7309,-4.7309,-4.707,-4.695,-4.695,-4.6292,-4.587,-4.5796,-4.5809,-4.5914,-4.6083,-4.6062,-4.6212,-4.6424,-4.5997,-4.5807,-4.5807,-4.5807,-4.5807,-4.5807,-4.5807,-4.5807,-4.5807,-4.5807,-4.5807,-4.5807,-4.5807,-4.5807,-4.5807,-4.5807,-4.5807,-4.5807,-4.5807,-4.5807,-4.5807,-4.5807,-4.5807,-4.5807,-4.5807,-4.5807,-4.5807,-4.5807,-4.5807,-4.5807,-4.5807,-4.5807,-4.5807,-4.5807,-4.5807,-4.5807,-4.5807,-4.5807,-4.5807,-4.5807,-4.5412,-4.5112,-4.5112,-4.4733,-4.4429,-4.4429,-4.4192,-4.4069,-4.4053,-4.3848,-4.3532,-4.3074,-4.3058,-4.2742,-4.2015,-4.1983,-4.1857,-4.1588,-4.1588,-4.1588,-4.1588,-4.1588,-4.1588,-4.1588,-4.1588,-4.1588,-4.2726,-4.3427,-4.4034,-4.3661,-4.3808,-4.3856,-4.3379,-4.2845,-4.2396,-4.2351,-4.1856,-4.1602,-4.2231,-4.2366,-4.2551,-4.3061,-4.314,-4.336,-4.3931,-4.34,-4.3489,0.0,0.0,0.0,0.0,0.0,0.0,-4.7309,0.0,-4.7309,-4.7309,-4.7279,-4.7249,-4.7249,-4.6621,-4.6277,-4.6277,-4.5589,-4.5105,-4.4868,-4.5331,-4.5433,-4.521,-4.5609,-4.5807,-4.5807,-4.5807,-4.5807,-4.5807,-4.5807,-4.5807,-4.5807,-4.5807,-4.5807,-4.5807,-4.5807,-4.5807,-4.5807,-4.5807,-4.5807,-4.5807,-4.5807,-4.5807,-4.5807,-4.5807,-4.5807,-4.5807,-4.5807,-4.5807,-4.5807,-4.5807,-4.5807,-4.5807,-4.5807,-4.5807,-4.5807,-4.5807,-4.5807,-4.5807,-4.5807,-4.5807,-4.5807,-4.5807,-4.5807,-4.5807,-4.5807,-4.5807,-4.5807,-4.5807,-4.5807,-4.5807,-4.5807,-4.5175,-4.4764,-4.4764,-4.4161,-4.3801,-4.3737,-4.3753,-4.3453,-4.271,-4.2695,-4.2347,-4.1604,-4.1588,-4.1588,-4.1588,-4.1588,-4.1588,-4.1588,-4.1588,-4.1588,-4.3327,-4.3753,-4.4232,-4.4657,-4.4373,-4.3851,-4.3235,-4.2724,-4.2261,-4.1767,-4.1701,-4.1738,-4.167,-4.1882,-4.1834,-4.1155,-4.1079,0.0,-4.1213,-4.1424,0.0,-4.3444,0.0,-4.4773,-4.6076,-4.6388,0.0,0.0,-4.7309,-4.7309,-4.7309,-4.6845,-4.6576,-4.6576,-4.5918,-4.5559,-4.5559,-4.49,-4.4444,-4.4215,-4.4642,-4.4969,-4.521,-4.5609,-4.5807,-4.5807,-4.5807,-4.5807,-4.5807,-4.5807,-4.5807,-4.5807,-4.5807,-4.5807,-4.5807,-4.5807,-4.5807,-4.5807,-4.5807,-4.5807,-4.5807,-4.5807,-4.5807,-4.5807,-4.5807,-4.5807,-4.5807,-4.5807,-4.5807,-4.5807,-4.5807,-4.5807,-4.5807,-4.5807,-4.5807,-4.5807,-4.5807,-4.5807,-4.5807,-4.5807,-4.5807,-4.5807,-4.5807,-4.5807,-4.5807,-4.5807,-4.5807,-4.5807,-4.5807,-4.5807,-4.5807,-4.5807,-4.5649,-4.5539,-4.5539,-4.5381,-4.5049,-4.448,-4.4464,-4.3927,-4.2742,-4.2695,-4.2347,-4.1604,-4.1588,-4.1588,-4.1588,-4.1588,-4.1588,-4.1588,-4.1588,-4.1588,-4.3974,-4.4476,-4.4909,-4.5153,-4.462,-4.3883,-4.3364,-4.259,-4.191,-4.1531,-4.1359,-4.1273,-4.121,-4.1114,-4.0978,0.0,0.0,0.0,-4.0622,-4.116,-4.1823,0.0,-4.3429,0.0,-4.5597,-4.6016,-4.6373,0.0,-4.6875,-4.6875,-4.6875,-4.6232,-4.5873,-4.5873,-4.5214,-4.4721,-4.4436,-4.4062,-4.3903,-4.4026,-4.4396,-4.4799,-4.521,-4.5609,-4.5807,-4.5807,0.0,-4.5807,-4.5807,-4.5807,-4.5807,-4.5807,-4.5807,-4.5807,-4.5807,-4.5807,-4.5807,-4.5807,-4.5807,-4.5807,-4.5807,-4.5807,-4.5807,-4.5807,-4.5807,-4.5807,-4.5807,-4.5807,-4.5807,-4.5807,-4.5807,-4.5807,-4.5807,-4.5807,-4.5807,-4.5807,-4.5807,-4.5807,-4.5807,-4.5807,-4.5807,-4.5807,-4.5807,-4.5807,-4.5807,-4.5807,-4.5807,-4.5807,-4.5807,-4.5807,-4.5807,-4.5807,-4.5807,-4.5807,-4.5807,-4.5807,-4.5634,-4.5223,-4.4891,-4.4243,-4.3184,-4.2853,-4.2347,-4.1604,-4.1588,-4.1588,-4.1588,-4.1588,-4.1588,-4.1588,-4.1588,-4.1588,-4.4527,-4.5254,-4.5703,-4.5248,-4.458,-4.3915,-4.3436,-4.2335,-4.1403,-4.1381,-4.094,-4.0624,-4.0745,-4.0387,-4.0283,-4.0904,0.0,-4.0378,-4.0773,-4.1418,-4.1842,-4.1787,-4.2948,-4.4013,-4.4655,-4.5423,-4.5947,-4.602,-4.6013,-4.6055,-4.6145,-4.5544,-4.5125,-4.5035,-4.4481,-4.3873,-4.3305,-4.3369,-4.3606,-4.4089,-4.4511,-4.4874,-4.5284,-4.5646,-4.5807,-4.5807,-4.5807,0.0,-4.5807,-4.5807,-4.5807,-4.5807,-4.5807,-4.5807,-4.5807,-4.5807,-4.5807,-4.5807,-4.5807,-4.5807,-4.5807,-4.5807,-4.5807,-4.5807,-4.5807,-4.5807,-4.5807,-4.5807,-4.5807,-4.5807,-4.5807,-4.5807,-4.5807,-4.5807,-4.5807,-4.5807,-4.5807,-4.5807,-4.5807,-4.5807,-4.5807,-4.5807,-4.5807,-4.5807,-4.5807,-4.5807,-4.5807,-4.5807,-4.5807,-4.5807,-4.5807,-4.5807,-4.5807,-4.5807,-4.5807,-4.5807,-4.5776,-4.5665,-4.5065,-4.4369,-4.3592,-4.3011,-4.2347,-4.1604,-4.1588,-4.1588,-4.1588,-4.1588,-4.1588,-4.1588,-4.1588,-4.1588,-4.4527,-4.5254,-4.5629,-4.4977,-4.4221,-4.3447,-4.2567,-4.1658,-4.0929,-4.0712,-4.0842,-4.083,-4.0238,-4.032,-4.0085,-3.9178,-3.9263,-3.9338,-3.8942,-3.9823,-4.0514,0.0,-4.1616,-4.2455,-4.2667,-4.3785,0.0,0.0,-4.4671,-4.49,-4.5439,-4.484,-4.4242,-4.3648,-4.3529,-4.3409,-4.329,-4.3699,-4.4089,-4.4496,-4.4911,-4.53,-4.5698,-4.5771,-4.5807,-4.5807,-4.5807,0.0,-4.5807,-4.5807,-4.5807,-4.5807,-4.5807,-4.5807,-4.5807,-4.5807,-4.5807,-4.5807,-4.5807,-4.5807,-4.5807,-4.5807,-4.5807,-4.5807,-4.5807,-4.5807,-4.5807,-4.5807,-4.5807,-4.5807,-4.5807,-4.5807,-4.5807,-4.5807,-4.5807,-4.5807,-4.5807,-4.5807,-4.5807,-4.5807,-4.5807,-4.5807,-4.5807,-4.5807,-4.5807,-4.5807,-4.5807,-4.5807,-4.5807,-4.5807,-4.5807,-4.5807,-4.5807,-4.5807,-4.5807,-4.5807,-4.5555,-4.4938,-4.478,-4.4164,-4.2916,-4.2758,-4.2347,-4.1604,-4.1588,-4.1588,-4.1588,-4.1588,-4.1588,-4.1588,-4.1588,-4.1588,-4.4527,-4.497,-4.5144,-4.4796,-4.3898,-4.2997,-4.2498,-4.1803,-4.1239,-4.1083,-4.1223,-4.1039,-4.0005,-3.9682,-3.9209,-3.8164,-3.7936,-3.8016,-3.8372,-3.9169,-3.9848,-4.0146,-4.0987,-4.1701,-4.2151,-4.3081,-4.3659,-4.3754,-4.4113,-4.4451,-4.4766,-4.4127,-4.3618,-4.3305,-4.329,-4.329,-4.329,-4.3778,-4.4104,-4.4281,-4.4911,-4.5284,-4.5484,-4.5682,-4.5807,-4.5807,-4.5807,0.0,-4.5807,-4.5807,-4.5807,-4.5807,-4.5807,-4.5807,-4.5807,-4.5807,-4.5807,-4.5807,-4.5807,-4.5807,-4.5807,-4.5807,-4.5807,-4.5807,-4.5807,-4.5807,-4.5807,-4.5807,-4.5807,-4.5807,-4.5807,-4.5807,-4.5807,-4.5807,-4.5807,-4.5807,-4.5807,-4.5807,-4.5807,-4.5807,-4.5807,-4.5807,-4.5807,-4.5807,-4.5681,-4.5302,-4.5238,-4.5112,-4.4764,-4.4733,-4.5001,-4.5728,-4.5807,-4.5649,-4.527,-4.5238,-4.4938,-4.4208,-4.3848,-4.3358,-4.271,-4.2315,-4.1952,-4.1604,-4.1588,-4.1588,-4.1588,-4.1588,-4.1588,-4.1588,-4.1588,-4.1588,-4.4259,-4.4496,-4.4464,-4.4322,-4.3365,-4.2462,-4.2455,-4.1899,-4.1423,-4.1555,-4.1555,-4.1174,-4.0135,-3.9275,-3.8508,-3.7738,-3.7177,-3.7138,-3.807,-3.8735,-3.9332,-3.9929,-4.054,0.0,-4.1522,-4.2455,0.0,-4.2873,-4.3645,0.0,-4.4107,-4.3574,-4.329,-4.329,-4.329,-4.329,-4.329,-4.3778,-4.405,-4.4143,-4.4874,-4.5247,-4.5336,-4.5662,-4.5807,-4.5807,-4.5807,0.0,0.0,-4.5807,-4.5807,-4.5807,-4.5807,-4.5807,-4.5807,-4.5807,-4.5807,-4.5807,-4.5807,-4.5807,-4.5807,-4.5807,-4.5807,-4.5807,-4.5807,-4.5807,-4.5807,-4.5807,-4.5807,-4.5807,-4.5807,-4.5807,-4.5807,-4.5807,-4.5807,-4.5807,-4.5807,-4.5697,-4.557,-4.557,-4.546,-4.5365,-4.5365,-4.5365,-4.5159,-4.4591,-4.4496,-4.4322,-4.3766,-4.3687,-4.4113,-4.5238,-4.5365,-4.5128,-4.4543,-4.4496,-4.4211,-4.3548,-4.2995,-4.2616,-4.2457,-4.1889,-4.1654,-4.1753,-4.1654,-4.1654,-4.1785,-4.1654,-4.1588,-4.1588,-4.1588,-4.1588,-4.3419,-4.3782,-4.364,-4.3042,-4.2278,-4.1701,-4.1708,-4.1135,-4.0783,-4.1456,-4.1357,-4.1104,-4.0987,-3.9874,-3.8782,-3.8136,-3.7692,-3.7454,-3.7557,-3.8082,-3.8722,-3.9305,0.0,0.0,-3.9598,-4.1203,-4.2096,-4.1508,-4.2651,0.0,-4.3379,-4.3319,-4.329,-4.329,-4.329,-4.329,-4.329,-4.3778,-4.4166,-4.4549,-4.4986,-4.5373,-4.5735,-4.5771,-4.5807,-4.5807,-4.5807,0.0,0.0,-4.5807,-4.5807,-4.5807,-4.5807,-4.5807,-4.5807,-4.5807,-4.5807,-4.5807,-4.5807,-4.5807,-4.5807,-4.5807,-4.5807,-4.5807,-4.5807,-4.5807,-4.5807,-4.5807,-4.5807,-4.5807,-4.5807,-4.5807,-4.5807,-4.5807,-4.5807,-4.5807,-4.5807,-4.5286,-4.4812,-4.4812,-4.4322,-4.3876,-4.3876,-4.3876,-4.3861,-4.3782,-4.3782,-4.3766,-4.3703,-4.3687,-4.3734,-4.3876,-4.388,-4.3864,-4.3782,-4.3782,-4.3516,-4.2821,-4.2726,-4.2394,-4.1715,-4.1636,-4.1818,-4.2318,-4.1851,-4.1851,-4.2318,-4.1851,-4.1588,-4.1588,-4.1588,-4.1588,-4.2173,-4.2141,-4.1873,-4.1999,-4.1516,-4.1006,-4.0986,-4.1074,-4.1256,-4.1555,-4.1323,-4.0919,-4.0324,-3.954,-3.8635,-3.7462,-3.7108,-3.6982,-3.6973,-3.7501,-3.8055,-3.8708,-3.9292,-3.9563,0.0,0.0,-4.1298,-4.1881,0.0,0.0,-4.329,-4.329,-4.329,-4.329,-4.329,-4.329,-4.329,-4.4011,-4.4435,-4.461,-4.5262,-4.5646,-4.5807,-4.5807,-4.5807,-4.5807,-4.5807,0.0,0.0,-4.5807,-4.5807,-4.5807,-4.5807,-4.5807,-4.5807,-4.5807,-4.5807,-4.5807,-4.5807,-4.5807,-4.5807,-4.5807,-4.5807,-4.5807,-4.5807,-4.5807,-4.5807,-4.5807,-4.5807,-4.5807,-4.5807,-4.5807,-4.5807,-4.5807,-4.5476,-4.5144,-4.5144,-4.4606,-4.4082,-4.4082,-4.3876,-4.3687,-4.3687,-4.3687,-4.3545,-4.3169,-4.3105,-4.2947,-4.2489,-4.2442,-4.2442,-4.2442,-4.3169,-4.3516,-4.3137,-4.3105,-4.2789,-4.2062,-4.2031,-4.1889,-4.1604,-4.1588,-4.1687,-4.1916,-4.172,-4.1851,-4.2413,-4.219,-4.2077,-4.2077,-4.2077,-4.1916,-4.0798,-4.056,-4.0227,-4.0732,-4.0539,-4.0318,-4.0416,-4.0885,-4.126,-4.1155,-4.0792,-4.0242,-3.9432,-3.8721,-3.793,-3.6973,-3.6571,-3.6452,-3.6579,-3.7109,-3.7702,-3.8355,0.0,-3.9305,0.0,-4.0099,-4.1057,-4.2211,0.0,0.0,-4.329,-4.329,-4.329,-4.329,-4.329,-4.329,-4.329,-4.3918,-4.4343,-4.461,-4.5151,-4.5589,-4.5807,-4.5807,-4.5807,-4.5807,-4.5807,0.0,0.0,-4.5807,-4.5807,-4.5807,-4.5807,-4.5807,-4.5807,-4.5807,-4.5807,-4.5807,-4.5807,-4.5807,-4.5807,-4.5807,-4.5807,-4.5807,-4.5807,-4.5807,-4.5807,-4.5807,-4.5807,-4.5807,-4.5807,-4.5649,-4.5476,-4.5476,-4.4938,-4.4417,-4.4417,-4.3895,-4.3406,-4.3406,-4.3248,-4.309,-4.309,-4.309,-4.2932,-4.2442,-4.2363,-4.2173,-4.1652,-4.1588,-4.1588,-4.1588,-4.2507,-4.2902,-4.2394,-4.253,-4.2308,-4.1653,-4.1867,-4.1964,-4.1851,-4.198,-4.2126,-4.2238,-4.2126,-4.2285,-4.2805,-4.268,-4.2618,-4.2618,-4.2618,-4.2397,-3.9345,-3.9266,-3.9011,-3.9027,-3.9249,-3.9612,-4.0008,-4.0318,-4.0442,-4.0164,-3.9542,-3.8937,-3.8567,-3.7424,-3.6641,-3.7025,-3.6298,-3.5906,-3.6517,-3.714,-3.7702,0.0,0.0,-3.9305,-3.9305,-4.0503,-4.1561,-4.2252,0.0,0.0,-4.329,-4.329,-4.329,-4.329,-4.329,-4.329,-4.329,-4.329,-4.3762,-4.461,-4.461,-4.5039,-4.5807,-4.5807,-4.5807,0.0,0.0,0.0,0.0,-4.5807,-4.5807,-4.5807,-4.5807,-4.5807,-4.5807,-4.5807,-4.5807,-4.5807,-4.5807,-4.5807,-4.5807,-4.5807,-4.5807,-4.5807,-4.5807,-4.5807,-4.5807,-4.5807,-4.5807,-4.5807,-4.5807,-4.527,-4.4717,-4.4717,-4.4211,-4.3703,-4.3703,-4.3184,-4.2695,-4.2695,-4.211,-4.1604,-4.1604,-4.1604,-4.1604,-4.1604,-4.1604,-4.1604,-4.1588,-4.1588,-4.1588,-4.1588,-4.1604,-4.1604,-4.1604,-4.2093,-4.2158,-4.1621,-4.2539,-4.2867,-4.2413,-4.2836,-4.3309,-4.3772,-4.3309,-4.3325,-4.3785,-4.3325,-4.3096,-4.3096,-4.3096,-4.3082,-3.8341,-3.8075,-3.7686,-3.7932,-3.8067,-3.8157,-3.8286,-3.8729,-3.9113,-3.9029,-3.8634,-3.8287,-3.8193,-3.7575,-3.701,-3.6731,-3.6467,-3.6221,-3.6011,0.0,0.0,-3.7743,-3.8695,-3.9305,0.0,0.0,-4.138,0.0,0.0,0.0,-4.329,-4.329,-4.329,-4.329,-4.329,-4.329,-4.329,-4.3621,-4.405,-4.461,-4.4874,-4.53,-4.5807,-4.5807,-4.5807,0.0,0.0,0.0,0.0,-4.5807,-4.5807,-4.5807,-4.5807,-4.5807,-4.5807,-4.5807,-4.5807,-4.5807,-4.5807,-4.5807,-4.5807,-4.5807,-4.5807,-4.5807,-4.5807,-4.5807,-4.5807,-4.5807,-4.546,-4.5065,-4.5065,-4.4543,-4.4003,-4.4003,-4.3516,-4.3011,-4.3011,-4.2442,-4.1936,-4.1936,-4.1746,-4.1588,-4.1588,-4.1588,-4.1588,-4.1588,-4.1588,-4.1588,-4.1588,-4.1588,-4.1588,-4.1588,-4.1916,-4.2158,-4.2158,-4.2318,-4.246,-4.2633,-4.2912,-4.3035,-4.2898,-4.3005,-4.3157,-4.3325,-4.3174,-4.3309,-4.3802,-4.3638,-4.3595,-4.3549,-4.3265,-4.3113,-3.7375,-3.7033,-3.6677,-3.6889,-3.7117,-3.7301,-3.7301,-3.7822,-3.8236,-3.7975,-3.7649,-3.737,-3.7113,-3.6854,-3.6552,-3.6163,-3.6194,-3.6097,0.0,0.0,0.0,-3.8095,0.0,0.0,0.0,-4.0301,0.0,0.0,0.0,0.0,-4.2915,-4.317,-4.329,-4.329,-4.329,-4.329,-4.329,-4.3581,-4.3934,-4.4396,-4.4761,-4.5173,-4.5573,-4.5735,-4.5807,0.0,0.0,0.0,0.0,-4.5807,-4.5807,-4.5807,-4.5807,-4.5807,-4.5807,-4.5807,-4.5807,-4.5807,-4.5807,-4.5807,-4.5807,-4.5807,-4.5618,-4.5396,-4.5396,-4.5396,-4.5396,-4.5396,-4.4891,-4.4338,-4.4322,-4.3832,-4.3327,-4.3327,-4.2789,-4.2268,-4.2268,-4.1904,-4.1588,-4.1588,-4.1588,-4.1588,-4.1588,-4.1588,-4.1588,-4.1588,-4.1588,-4.1588,-4.1588,-4.1588,-4.1588,-4.1588,-4.1883,-4.2238,-4.2618,-4.2836,-4.299,-4.3096,-4.3476,-4.3565,-4.3369,-4.3565,-4.3654,-4.3654,-4.3654,-4.3802,-4.4109,-4.4109,-4.4109,-4.408,-4.3802,-4.3654,0.0,-3.6241,-3.6005,-3.5973,-3.6444,-3.6899,-3.6899,-3.7385,0.0,-3.7036,-3.6667,-3.6237,-3.5609,-3.5504,-3.5519,-3.5564,-3.5592,-3.5601,0.0,-3.6747,0.0,0.0,-3.9305,0.0,-3.9305,0.0,0.0,0.0,0.0,0.0,-4.2293,-4.2915,-4.329,-4.329,-4.329,-4.329,-4.329,-4.329,-4.3542,-4.4065,-4.4435,-4.4836,-4.5247,-4.5609,-4.5807,0.0,0.0,0.0,0.0,-4.5807,-4.5807,-4.5807,-4.5807,-4.5807,-4.5807,-4.5807,-4.5807,-4.5807,-4.5807,-4.5807,-4.5807,-4.576,-4.527,-4.4701,-4.4654,-4.4638,-4.4638,-4.4638,-4.4164,-4.3643,-4.3611,-4.3105,-4.2616,-4.2616,-4.2094,-4.1588,-4.1588,-4.1588,-4.1588,-4.1588,-4.1588,-4.1588,-4.1588,-4.1588,-4.1588,-4.1588,-4.1588,-4.1621,-4.1654,-4.1654,-4.1687,-4.172,-4.1753,-4.2126,-4.3066,-4.3519,-4.3578,-4.3235,-4.408,-4.44,-4.3889,-4.4327,-4.4615,-4.4615,-4.4615,-4.4615,-4.4615,-4.4615,-4.4615,-4.4615,-4.4615,-4.4615,-3.5748,0.0,-3.5957,-3.5683,-3.5739,-3.5859,0.0,-3.5979,-3.6039,-3.5889,-3.5794,-3.5684,-3.5534,-3.5504,-3.5669,-3.6178,-3.5884,-3.5795,-3.6302,0.0,0.0,-3.9169,-3.9305,-3.9305,-3.9305,0.0,0.0,0.0,0.0,-4.2293,-4.2293,-4.2915,-4.329,-4.329,-4.329,-4.329,-4.329,-4.329,-4.3684,-4.4473,-4.4534,-4.4964,-4.5646,-4.5771,-4.5807,0.0,0.0,0.0,-4.5807,-4.5807,-4.5807,-4.5807,-4.5807,-4.5807,-4.5807,-4.5807,-4.5807,-4.5807,-4.5807,-4.5807,-4.5713,-4.5144,-4.4843,-4.4606,-4.4101,-4.3959,-4.3959,-4.3959,-4.3453,-4.2932,-4.2932,-4.2394,-4.1841,-4.1841,-4.1715,-4.1588,-4.1588,-4.1588,-4.1588,-4.1588,-4.1588,-4.1588,-4.1588,-4.1588,-4.1588,-4.1588,-4.1588,-4.1753,-4.2142,-4.2222,-4.2365,-4.2695,-4.305,-4.3369,-4.3625,-4.3416,-4.3565,-4.4212,-4.4485,-4.4542,-4.4412,-4.4542,-4.4615,-4.4615,-4.4615,-4.4615,-4.4615,-4.4615,-4.4615,-4.4615,-4.4615,-4.4615,-3.5504,-3.5619,-3.5748,-3.5537,-3.5504,-3.5504,-3.5504,-3.5504,-3.5504,-3.5504,-3.5504,-3.5504,-3.5504,-3.5279,-3.5406,-3.6339,-3.5774,0.0,0.0,0.0,-3.8274,-3.9197,-3.9305,-3.9305,0.0,0.0,0.0,0.0,0.0,-4.1852,-4.1852,-4.2795,-4.329,-4.329,-4.329,-4.329,-4.329,-4.3503,-4.3856,-4.432,-4.4685,-4.5098,-4.552,-4.5735,-4.5807,0.0,0.0,0.0,-4.5807,-4.5807,-4.5807,-4.5807,-4.5807,-4.5807,-4.5807,-4.5807,-4.5807,-4.5807,-4.5807,-4.5586,-4.5191,-4.448,-4.4038,-4.3706,-4.3358,-4.3011,-4.2821,-4.3153,-4.2742,-4.2189,-4.2189,-4.1889,-4.1588,-4.1588,-4.1588,-4.1588,-4.1588,-4.1588,-4.1588,-4.1588,-4.1588,-4.1588,-4.1588,-4.1588,-4.1588,-4.1588,-4.1818,-4.2077,-4.2349,-4.2586,-4.2836,-4.3066,-4.3309,-4.3565,-4.3772,-4.3565,-4.3772,-4.4542,-4.4615,-4.4615,-4.4615,-4.4615,-4.4615,-4.4615,-4.4615,-4.4615,-4.4615,-4.4615,-4.4615,-4.4615,-4.4615,-4.4615,-3.5504,-3.5504,-3.5504,-3.5504,-3.5504,-3.5504,-3.5504,-3.5504,-3.5504,-3.5504,-3.5504,-3.5472,-3.5392,-3.5019,0.0,0.0,0.0,0.0,-3.7313,-3.7919,-3.8532,-3.9224,-3.9305,0.0,0.0,0.0,0.0,0.0,0.0,-4.1212,-4.1296,-4.2482,-4.321,-4.329,-4.329,-4.329,-4.329,-4.3699,-4.3949,-4.4104,-4.4761,-4.5173,-4.5284,-4.5646,-4.5807,-4.5807,0.0,0.0,-4.5807,-4.5807,-4.5807,-4.5807,-4.5807,-4.5807,-4.5807,-4.5807,-4.5744,-4.5634,-4.5523,-4.508,-4.4448,-4.3785,-4.3169,-4.2663,-4.2552,-4.2094,-4.1715,-4.2347,-4.2062,-4.1588,-4.1588,-4.1588,-4.1588,-4.1588,-4.1588,-4.1588,-4.1588,-4.1588,-4.1588,-4.1588,-4.1588,-4.1588,-4.1588,-4.1654,-4.172,-4.172,-4.2174,-4.2523,-4.2586,-4.2959,-4.3235,-4.3325,-4.3325,-4.3505,-4.3889,-4.3919,-4.4109,-4.457,-4.4615,-4.4615,-4.4615,-4.4615,-4.4615,-4.4615,-4.4615,-4.4615,-4.4615,-4.4615,-4.4615,-4.4615,-4.4615,-4.4615,-3.5504,-3.5504,-3.5504,-3.5504,-3.5504,-3.5504,-3.5504,-3.5504,-3.5504,-3.5504,-3.5504,-3.5344,-3.4824,-3.5085,-3.5647,0.0,0.0,-3.7253,0.0,0.0,-3.8027,-3.9169,0.0,0.0,0.0,0.0,0.0,0.0,0.0,-4.0717,-4.1254,-4.2032,-4.2714,-4.329,-4.329,-4.329,-4.329,-4.3369,-4.3762,-4.4511,-4.461,-4.5039,-4.5698,-4.5771,-4.5807,-4.5807,0.0,-4.5807,-4.5807,-4.5807,-4.5807,-4.5807,-4.5807,-4.5807,-4.5807,-4.5807,-4.5412,-4.4796,-4.4208,-4.394,-4.3718,-4.3074,-4.2774,-4.2568,-4.1952,-4.1683,-4.1604,-4.1731,-4.1683,-4.1588,-4.1588,-4.1588,-4.1588,-4.1588,-4.1588,-4.1588,-4.1588,-4.1588,-4.1588,-4.1588,-4.1588,-4.1588,-4.1588,-4.198,-4.2286,-4.2286,-4.268,-4.3143,-4.3519,-4.3654,-4.386,-4.4327,-4.4355,-4.44,-4.4485,-4.4485,-4.4514,-4.4598,-4.4615,-4.4615,-4.4615,-4.4615,-4.4615,-4.4615,-4.4615,-4.4615,-4.4615,-4.4615,-4.4615,-4.4615,-4.4615,-4.4615,-3.5504,-3.5279,-3.5085,-3.5424,-3.5504,-3.5504,-3.5504,-3.5504,-3.5504,-3.5504,-3.5504,-3.5439,0.0,0.0,-3.5175,-3.5554,0.0,-3.7526,-3.749,-3.777,-3.8328,0.0,0.0,0.0,0.0,0.0,0.0,0.0,0.0,0.0,-4.1254,-4.1949,-4.2633,-4.329,-4.329,-4.329,-4.329,-4.329,-4.3606,-4.4281,-4.4723,-4.5114,-4.5484,-4.5698,-4.5807,-4.5807,0.0,-4.5807,-4.5807,-4.5807,-4.5807,-4.5807,-4.5807,-4.557,-4.5175,-4.4812,-4.4464,-4.405,-4.339,-4.3169,-4.3042,-4.2331,-4.2094,-4.2031,-4.1683,-4.1588,-4.1588,-4.1588,-4.1588,-4.1588,-4.1588,-4.1588,-4.1588,-4.1588,-4.1588,-4.1588,-4.1588,-4.1588,-4.1588,-4.1588,-4.1588,-4.1588,-4.1588,-4.2045,-4.2413,-4.2413,-4.3021,-4.3565,-4.3756,-4.4051,-4.4327,-4.457,-4.4615,-4.4615,-4.4615,-4.4615,-4.4615,-4.4615,-4.4615,-4.4615,-4.4615,-4.4615,-4.4615,-4.4615,-4.4615,-4.4615,-4.4615,-4.4615,-4.4615,-4.4615,-4.4615,-4.4615,-3.5148,-3.4773,-3.4509,-3.5001,-3.5115,-3.5148,-3.5246,-3.518,-3.5148,-3.5246,-3.5398,-3.5517,0.0,-3.5325,0.0,-3.5209,-3.6401,-3.737,-3.7461,-3.7878,0.0,0.0,0.0,0.0,0.0,0.0,0.0,0.0,0.0,0.0,-4.1043,-4.1686,-4.2374,-4.3036,-4.321,-4.329,-4.329,-4.329,-4.3542,-4.4026,-4.4723,-4.5098,-4.521,-4.5609,-4.5807,-4.5807,-4.5807,-4.5807,-4.5807,-4.5807,-4.5713,-4.5555,-4.5555,-4.5112,-4.4401,-4.3722,-4.3485,-4.339,-4.2679,-4.2426,-4.2331,-4.1762,-4.1588,-4.1588,-4.1588,-4.1588,-4.1588,-4.1588,-4.1588,-4.1588,-4.1588,-4.1588,-4.1588,-4.1588,-4.1588,-4.1588,-4.1588,-4.1588,-4.1588,-4.1588,-4.1588,-4.1588,-4.1588,-4.2045,-4.2413,-4.2413,-4.3188,-4.3802,-4.3802,-4.427,-4.4615,-4.4615,-4.4615,-4.4615,-4.4615,-4.4615,-4.4615,-4.4615,-4.4615,-4.4615,-4.4615,-4.4615,-4.4615,-4.4615,-4.4615,-4.4615,-4.4615,-4.4615,-4.4615,-4.4615,-4.4615,-4.4615,-3.407,-3.3899,-3.3865,-3.3899,-3.3934,-3.407,-3.4528,-3.4274,-3.407,-3.4562,-3.5175,-3.56,0.0,-3.6114,-3.6539,-3.6475,-3.6638,-3.6913,-3.7449,0.0,0.0,0.0,0.0,0.0,0.0,0.0,0.0,0.0,0.0,0.0,-4.0345,-4.1015,-4.1686,-4.2333,-4.297,-4.329,-4.329,-4.329,-4.3542,-4.4026,-4.4435,-4.4836,-4.521,-4.5609,-4.5807,-4.5807,-4.5807,-4.5807,-4.5807,-4.5807,-4.5412,-4.4796,-4.4796,-4.4385,-4.3671,-4.3011,-4.2758,-4.2663,-4.192,-4.1667,-4.1652,-4.1604,-4.1588,-4.1588,-4.1588,-4.1588,-4.1588,-4.1588,-4.1588,-4.1588,-4.1588,-4.1588,-4.1588,-4.1588,-4.1588,-4.1588,-4.1588,-4.1588,-4.1588,-4.1588,-4.1588,-4.1588,-4.1588,-4.2045,-4.2413,-4.2413,-4.3188,-4.3802,-4.3802,-4.427,-4.4615,-4.4615,-4.4615,-4.4615,-4.4615,-4.4615,-4.4615,-4.4615,-4.4615,-4.4615,-4.4615,-4.4615,-4.4615,-4.4615,-4.4615,-4.4615,-4.4615,-4.4615,-4.4615,-4.4615,-4.4615,-4.4615,-3.3865,-3.3555,-3.3381,-3.3728,-3.329,-3.3009,-3.3885,-3.3968,-3.3965,-3.4554,-3.514,-3.5839,0.0,0.0,-3.6216,-3.6595,-3.6668,-3.6759,0.0,0.0,0.0,0.0,0.0,0.0,0.0,0.0,0.0,0.0,0.0,0.0,-3.9131,-4.0179,-4.1054,-4.1719,-4.2733,-4.329,-4.329,-4.294,-4.2848,-4.3018,-4.4067,-4.4685,-4.4836,-4.5499,-4.5807,-4.5776,-4.5333,-4.5128,-4.5096,-4.467,-4.4338,-4.4053,-4.3627,-4.3295,-4.2995,-4.2268,-4.1999,-4.1968,-4.1683,-4.1588,-4.1588,-4.1588,-4.1588,-4.1588,-4.1588,-4.1588,-4.1588,-4.1588,-4.1588,-4.1588,-4.1588,-4.1588,-4.1588,-4.1588,-4.1588,-4.1588,-4.1588,-4.1588,-4.1588,-4.1588,-4.1588,-4.172,-4.2045,-4.2523,-4.2929,-4.3235,-4.386,-4.4298,-4.4298,-4.4485,-4.4615,-4.4615,-4.4615,-4.4615,-4.4615,-4.4615,-4.4615,-4.4615,-4.4615,-4.4615,-4.4615,-4.4615,-4.4615,-4.4615,-4.4615,-4.4615,-4.4615,-4.4615,-4.4615,-4.4615,-4.4615,-4.4615,-3.3589,-3.315,-3.2881,-3.3416,-3.2846,-3.2427,-3.3367,-3.3572,-3.3734,-3.4313,-3.5387,-3.6576,-3.7855,0.0,0.0,0.0,-3.694,0.0,0.0,0.0,0.0,0.0,0.0,0.0,0.0,0.0,0.0,0.0,0.0,0.0,0.0,-3.9198,-4.0108,-4.0768,-4.1858,-4.252,-4.2677,-4.2267,-4.2096,-4.2096,-4.3221,-4.3813,-4.3963,-4.4643,-4.5036,-4.5128,-4.4622,-4.4401,-4.4369,-4.388,-4.3564,-4.3327,-4.2616,-4.2347,-4.2284,-4.1778,-4.1588,-4.1588,-4.1588,-4.1588,-4.1588,-4.1588,-4.1588,-4.1588,-4.1588,-4.1588,-4.1588,-4.1588,-4.1588,-4.1588,-4.1588,-4.1588,-4.1588,-4.1588,-4.1588,-4.1588,-4.1588,-4.1588,-4.1588,-4.1588,-4.1753,-4.198,-4.2349,-4.2805,-4.3204,-4.3519,-4.4023,-4.4355,-4.4355,-4.4485,-4.4615,-4.4615,-4.4615,-4.4615,-4.4615,-4.4615,-4.4615,-4.4615,-4.4615,-4.4615,-4.4615,-4.4615,-4.4615,-4.4615,-4.4615,-4.4615,-4.4615,-4.4615,-4.4615,-4.4615,-4.4615,-4.4615,-3.315,-3.261,-3.2314,-3.2846,-3.2588,-3.2368,-3.2966,-3.3101,-3.3274,-3.3798,-3.5826,-3.7907,-3.9182,-3.8412,0.0,-3.8404,-3.7519,0.0,0.0,0.0,0.0,0.0,0.0,0.0,0.0,0.0,0.0,0.0,0.0,0.0,0.0,-3.8117,-3.8805,-3.9467,-4.0143,-4.0796,-4.1384,-4.1369,-4.1407,-4.1407,-4.179,-4.2145,-4.2494,-4.292,-4.3306,-4.3687,-4.3687,-4.3671,-4.3671,-4.3674,-4.3298,-4.2616,-4.1873,-4.1588,-4.1588,-4.1588,-4.1588,-4.1588,-4.1588,-4.1588,-4.1588,-4.1588,-4.1588,-4.1588,-4.1588,-4.1588,-4.1588,-4.1588,-4.1588,-4.1588,-4.1588,-4.1588,-4.1588,-4.1588,-4.1588,-4.1588,-4.1621,-4.1621,-4.1621,-4.1621,-4.2045,-4.2413,-4.2413,-4.2805,-4.3113,-4.3096,-4.3505,-4.3802,-4.3802,-4.427,-4.4615,-4.4615,-4.4615,-4.4615,-4.4615,-4.4615,-4.4615,-4.4615,-4.4615,-4.4615,-4.4615,-4.4615,-4.4615,-4.4615,-4.4615,-4.4615,-4.4615,-4.4615,-4.4615,-4.4615,-4.4615,-4.4615,-3.2588,-3.2314,-3.2255,-3.2386,-3.2314,-3.2368,-3.2966,-3.3101,-3.3632,-3.5492,-3.6799,-3.7955,-3.9184,-3.8412,0.0,-3.8404,0.0,0.0,0.0,0.0,0.0,0.0,0.0,0.0,0.0,0.0,0.0,0.0,0.0,0.0,0.0,-3.7275,-3.797,-3.8185,-3.97,-4.0588,-4.0757,-4.0733,-4.0696,-4.0681,-4.0327,-4.0861,-4.216,-4.2813,-4.3185,-4.3275,-4.3097,-4.2995,-4.2963,-4.2426,-4.2094,-4.1889,-4.1683,-4.1588,-4.1588,-4.1588,-4.1588,-4.1588,-4.1588,-4.1588,-4.1588,-4.1588,-4.1588,-4.1588,-4.1588,-4.1588,-4.1588,-4.1588,-4.1588,-4.1588,-4.1588,-4.1588,-4.1588,-4.1588,-4.1588,-4.1687,-4.2077,-4.2142,-4.227,-4.2601,-4.2789,-4.299,-4.3309,-4.3489,-4.3713,-4.408,-4.427,-4.4355,-4.4355,-4.4514,-4.4615,-4.4615,-4.4615,-4.4615,-4.4615,-4.4615,-4.4615,-4.4615,-4.4615,-4.4615,-4.4615,-4.4615,-4.4615,-4.4615,-4.4615,-4.4615,-4.4615,-4.4615,-4.4615,-4.4615,-4.4615,-4.4615,-3.3255,-3.2988,-3.2881,-3.3094,-3.2988,-3.3046,-3.3942,0.0,0.0,0.0,-3.7702,-3.824,-3.9228,-3.8612,0.0,0.0,0.0,0.0,0.0,0.0,0.0,0.0,0.0,0.0,0.0,0.0,0.0,0.0,0.0,0.0,0.0,-3.644,-3.6981,-3.7221,-3.8393,-3.9233,-3.9709,-3.9668,-3.9787,-4.0008,-3.9604,-3.9937,-4.0982,-4.1597,-4.1952,-4.2078,-4.2053,-4.2151,-4.222,-4.1762,-4.1588,-4.1588,-4.1588,-4.1588,-4.1588,-4.1588,-4.1588,-4.1588,-4.1588,-4.1588,-4.1588,-4.1423,-4.1489,-4.1588,-4.1423,-4.1489,-4.1588,-4.1588,-4.1753,-4.1916,-4.1916,-4.2077,-4.2158,-4.1948,-4.1916,-4.2045,-4.2555,-4.268,-4.2774,-4.3052,-4.3248,-4.3459,-4.3743,-4.3977,-4.4241,-4.4542,-4.4615,-4.4615,-4.4615,-4.4615,-4.4615,-4.4615,-4.4615,-4.4615,-4.4615,-4.4615,-4.4615,-4.4615,-4.4615,-4.4615,-4.4615,-4.4615,-4.4615,-4.4615,-4.4615,-4.4615,-4.4615,-4.4615,-4.4615,-4.4615,-4.4615,-4.4615,-3.4528,-3.4158,-3.3934,-3.4394,-3.4244,-3.4303,-3.5511,-3.5906,-3.6495,-3.8175,0.0,-3.8738,-3.9301,-3.8936,-3.8738,0.0,0.0,0.0,0.0,0.0,0.0,0.0,0.0,0.0,0.0,0.0,0.0,0.0,0.0,0.0,0.0,-3.571,-3.5991,-3.6587,-3.6665,-3.725,-3.8329,-3.8441,-3.8789,-3.9316,-3.9373,-3.9388,-3.9409,-3.9818,-4.0207,-4.0558,-4.0935,-4.129,-4.1588,-4.1588,-4.1588,-4.1588,-4.1588,-4.1588,-4.1588,-4.1588,-4.1588,-4.1588,-4.1555,-4.1555,-4.1489,-4.1171,-4.1256,-4.1456,-4.1171,-4.1323,-4.1555,-4.1588,-4.1948,-4.2318,-4.2318,-4.268,-4.2959,-4.2571,-4.2476,-4.2586,-4.3066,-4.3157,-4.3174,-4.3235,-4.3595,-4.386,-4.386,-4.4298,-4.4615,-4.4615,-4.4615,-4.4615,-4.4615,-4.4615,-4.4615,-4.4615,-4.4615,-4.4615,-4.4615,-4.4615,-4.4615,-4.4615,-4.4615,-4.4615,-4.4615,-4.4615,-4.4615,-4.4615,-4.4615,-4.4615,-4.4615,-4.4615,-4.4615,-4.4615,-4.4615,-4.4615,-3.409,-3.3885,-3.3831,-3.3919,-3.4659,-3.5511,-3.6249,-3.7172,-3.8043,-3.8412,-3.89,-3.9228,-3.9388,-3.9301,0.0,0.0,0.0,0.0,0.0,0.0,0.0,0.0,0.0,0.0,0.0,0.0,0.0,0.0,0.0,0.0,-3.6468,-3.5991,-3.575,-3.5911,-3.6429,-3.6822,-3.7081,-3.8014,-3.8567,0.0,-3.9156,-3.9388,-3.9409,-3.9818,-4.0366,-4.0969,-4.107,-4.129,-4.1588,-4.1588,-4.1588,-4.1588,-4.1588,-4.1588,-4.1588,-4.1588,-4.1588,-4.1555,-4.129,-4.1205,-4.1122,-4.0765,-4.0696,-4.0799,-4.1037,-4.1171,-4.1256,-4.1522,-4.1687,-4.1785,-4.1785,-4.2142,-4.2618,-4.2898,-4.2959,-4.3066,-4.3565,-4.3654,-4.3772,-4.4212,-4.4355,-4.4429,-4.4429,-4.4514,-4.4615,-4.4615,-4.4615,-4.4615,-4.4615,-4.4615,-4.4615,-4.4615,-4.4615,-4.4615,-4.4615,-4.4615,-4.4615,-4.4615,-4.4615,-4.4615,-4.4615,-4.4615,-4.4615,-4.4615,-4.4615,-4.4615,-4.4615,-4.4615,-4.4615,-4.4615,-4.4615,-4.4615,-3.4673,-3.4606,-3.4606,-3.4606,0.0,-3.5859,-3.6763,-3.751,-3.8194,-3.8789,-3.9192,-3.9388,-3.9388,-3.9388,0.0,0.0,0.0,0.0,0.0,0.0,0.0,0.0,0.0,0.0,0.0,0.0,0.0,0.0,0.0,-3.712,-3.712,-3.6547,-3.6191,-3.6191,-3.6191,-3.6389,-3.6705,-3.762,-3.8202,-3.8516,-3.9119,-3.9388,-3.9424,-3.9604,-4.0031,-4.0574,-4.073,-4.1037,-4.1357,-4.1522,-4.1588,-4.1588,-4.1588,-4.1588,-4.1588,-4.1423,-4.1357,-4.129,-4.0935,-4.0799,-4.0765,-4.0366,-4.0366,-4.0489,-4.0558,-4.0833,-4.1138,-4.1323,-4.1654,-4.2045,-4.2254,-4.2695,-4.3204,-4.3684,-4.3625,-4.3549,-4.408,-4.4167,-4.427,-4.4542,-4.4615,-4.4615,-4.4615,-4.4615,-4.4615,-4.4615,-4.4615,-4.4615,-4.4615,-4.4615,-4.4615,-4.4615,-4.4615,-4.4615,-4.4615,-4.4615,-4.4615,-4.4615,-4.4615,-4.4615,-4.4615,-4.4615,-4.4615,-4.4615,-4.4615,-4.4615,-4.4615,-4.4615,-4.4615,-4.4615,-4.4615,-4.4615,-3.5504,-3.5504,-3.5504,-3.5504,-3.5603,0.0,-3.6984,-3.7366,-3.7824,-3.8988,-3.9298,-3.9388,-3.9388,0.0,0.0,0.0,0.0,0.0,0.0,0.0,0.0,0.0,0.0,0.0,0.0,0.0,0.0,0.0,0.0,-3.7772,-3.7772,-3.7197,-3.6861,-3.6861,-3.631,-3.6217,-3.6705,-3.739,-3.7962,-3.8366,-3.9083,-3.9388,-3.9388,-3.9388,-3.964,-4.0031,-4.0366,-4.073,-4.1138,-4.1456,-4.1588,-4.1588,-4.1588,-4.1555,-4.1489,-4.1205,-4.107,-4.0935,-4.0558,-4.042,-4.0366,-3.9996,-4.0086,-4.0261,-4.0066,-4.047,-4.1003,-4.107,-4.1654,-4.2365,-4.2851,-4.3309,-4.3802,-4.4327,-4.4109,-4.3948,-4.4485,-4.4615,-4.4615,-4.4615,-4.4615,-4.4615,-4.4615,-4.4615,-4.4615,-4.4615,-4.4615,-4.4615,-4.4615,-4.4615,-4.4615,-4.4615,-4.4615,-4.4615,-4.4615,-4.4615,-4.4615,-4.4615,-4.4615,-4.4615,-4.4615,-4.4615,-4.4615,-4.4615,-4.4615,-4.4615,-4.4615,-4.4615,-4.4615,-4.4615,-4.4615,-4.4542,-3.5504,0.0,-3.5504,0.0,-3.5932,-3.6391,0.0,0.0,-3.7615,0.0,-3.9005,-3.9388,0.0,0.0,0.0,0.0,0.0,0.0,0.0,0.0,0.0,0.0,0.0,0.0,0.0,0.0,0.0,0.0,-3.8701,-3.8366,-3.8366,-3.781,-3.7491,-3.7491,-3.7376,-3.7159,-3.6705,-3.7825,-3.8165,-3.772,-3.8848,-3.9388,-3.9388,-3.9388,-3.964,-4.0031,-4.0366,-4.073,-4.1138,-4.1456,-4.1588,-4.1588,-4.1588,-4.1423,-4.1156,-4.1138,-4.0901,-4.0524,-4.0207,-4.0066,-3.9996,-3.9604,-3.9517,-3.9589,-3.9889,-4.0261,-4.0662,-4.1003,-4.139,-4.1818,-4.2365,-4.2836,-4.3309,-4.3802,-4.386,-4.3948,-4.4485,-4.4615,-4.4615,-4.4615,-4.4615,-4.4615,-4.4615,-4.4615,-4.4615,-4.4615,-4.4615,-4.4615,-4.4615,-4.4615,-4.4615,-4.4615,-4.4615,-4.4615,-4.4615,-4.4615,-4.4615,-4.4615,-4.4615,-4.4615,-4.4615,-4.4615,-4.4615,-4.4615,-4.4615,-4.4615,-4.4615,-4.4615,-4.4615,-4.4615,-4.4615,-4.4355,-3.5504,-3.5504,-3.5504,0.0,-3.5729,-3.6028,-3.6402,-3.6701,-3.7075,-3.7704,-3.8078,0.0,0.0,0.0,0.0,0.0,0.0,0.0,0.0,0.0,0.0,0.0,0.0,0.0,0.0,0.0,0.0,0.0,-3.9156,-3.901,-3.901,-3.8427,-3.8089,-3.8089,-3.7772,-3.7453,-3.7197,-3.8052,-3.8553,-3.8612,-3.9156,-3.9388,-3.9388,-3.9388,-3.9496,-3.9676,-4.0066,-4.0436,-4.0765,-4.0919,-4.1122,-4.129,-4.1055,-4.0885,-4.073,-4.0558,-4.0489,-4.0455,-4.0101,-4.0011,-3.996,-3.9783,-3.9747,-3.9783,-3.994,-4.0401,-4.0867,-4.1037,-4.1323,-4.172,-4.2254,-4.2555,-4.2836,-4.3295,-4.3416,-4.3459,-4.3713,-4.3964,-4.4241,-4.4542,-4.4615,-4.4615,-4.4615,-4.4615,-4.4615,-4.4615,-4.4615,-4.4615,-4.4615,-4.4615,-4.4615,-4.4615,-4.4615,-4.4615,-4.4615,-4.4615,-4.4615,-4.4615,-4.4615,-4.4615,-4.4615,-4.4615,-4.4457,-4.4167,-4.4457,-4.4457,-4.4138,-4.4138,-4.4023,-4.3743,-4.3743,-4.3772,-3.5504,0.0,-3.5504,-3.5504,-3.5504,-3.5624,0.0,0.0,-3.6417,0.0,0.0,0.0,0.0,0.0,0.0,0.0,0.0,0.0,0.0,0.0,0.0,0.0,0.0,0.0,0.0,0.0,0.0,0.0,-3.9388,-3.9388,-3.9388,-3.8958,-3.8752,-3.8752,-3.83,-3.8,-3.7848,-3.8375,-3.8943,-3.9568,-3.9568,-3.9604,-3.9661,-3.9604,-3.9568,-3.9568,-3.9854,-4.0137,-4.0366,-4.0455,-4.0696,-4.0935,-4.0627,-4.0455,-4.0366,-4.0207,-4.0226,-4.0366,-4.0156,-4.0137,-4.0137,-4.0137,-4.0137,-4.0137,-4.0137,-4.0558,-4.1104,-4.1104,-4.1323,-4.172,-4.2254,-4.2413,-4.2539,-4.299,-4.3021,-4.299,-4.3235,-4.3549,-4.3948,-4.4485,-4.4615,-4.4615,-4.4615,-4.4615,-4.4615,-4.4615,-4.4615,-4.4615,-4.4615,-4.4615,-4.4615,-4.4615,-4.4615,-4.4615,-4.4615,-4.4615,-4.4615,-4.4615,-4.4485,-4.4384,-4.4384,-4.4298,-4.4023,-4.3625,-4.4023,-4.4023,-4.3608,-4.3608,-4.3429,-4.3096,-4.3037,-4.3119,-3.5504,-3.5504,0.0,-3.5504,-3.5504,-3.5519,0.0,0.0,0.0,0.0,0.0,0.0,0.0,0.0,0.0,0.0,0.0,0.0,0.0,0.0,0.0,0.0,0.0,0.0,0.0,0.0,0.0,0.0,-3.9388,-3.9388,-3.9388,-3.9373,-3.9337,-3.9337,-3.9301,-3.9031,-3.8441,-3.8811,-3.9298,-3.9975,-3.9975,-4.0137,-4.042,-4.0086,-3.9975,-3.9975,-3.9996,-4.0011,-4.0031,-4.0366,-4.0524,-4.0524,-4.0489,-4.0296,-4.0066,-4.0366,-4.0296,-4.0066,-4.0366,-4.0455,-4.0455,-4.0455,-4.0455,-4.0455,-4.0455,-4.0765,-4.1104,-4.1104,-4.1323,-4.172,-4.2254,-4.2413,-4.2539,-4.299,-4.2774,-4.268,-4.3549,-4.3772,-4.3948,-4.4485,-4.4615,-4.4615,-4.4615,-4.4615,-4.4615,-4.4615,-4.4615,-4.4615,-4.4615,-4.4615,-4.4615,-4.4615,-4.4615,-4.4615,-4.4615,-4.4615,-4.4615,-4.4615,-4.4109,-4.3831,-4.3831,-4.3399,-4.3157,-4.3143,-4.3157,-4.3157,-4.3143,-4.3143,-4.3127,-4.308,-4.2837,-4.2506,-3.5504,0.0,0.0,-3.5504,-3.5504,-3.5504,-3.5504,-3.5504,-3.5564,-3.5804,0.0,0.0,0.0,0.0,0.0,0.0,0.0,0.0,0.0,0.0,0.0,0.0,0.0,0.0,0.0,0.0,0.0,0.0,0.0,-3.9388,-3.9388,-3.9388,-3.9388,-3.9388,-3.9388,-3.9316,-3.9083,-3.9199,-3.9502,-4.0011,-4.0011,-4.0172,-4.0505,-4.0366,-4.0331,-4.0296,-4.0101,-4.0011,-3.9996,-3.9839,-3.9945,-4.0156,-3.991,-3.9732,-3.9676,-4.0031,-4.0242,-4.0366,-4.0765,-4.0901,-4.0901,-4.0901,-4.0901,-4.0901,-4.0901,-4.1122,-4.1423,-4.1423,-4.1522,-4.1654,-4.1851,-4.1883,-4.1916,-4.2093,-4.1997,-4.2077,-4.2758,-4.2898,-4.3052,-4.3535,-4.3889,-4.408,-4.408,-4.4355,-4.4615,-4.4615,-4.4615,-4.4615,-4.4615,-4.4615,-4.4485,-4.4109,-4.4384,-4.4327,-4.3684,-4.3919,-4.3964,-4.3654,-4.3476,-4.3339,-4.3339,-4.3188,-4.2959,-4.2649,-4.2195,-4.2195,-4.2649,-4.2486,-4.2227,-4.1874,-4.1671,-4.1444,-3.5504,-3.5504,-3.5504,0.0,-3.5504,-3.5504,-3.5504,0.0,-3.5504,-3.5504,0.0,0.0,0.0,0.0,0.0,0.0,0.0,0.0,0.0,0.0,0.0,0.0,0.0,0.0,0.0,0.0,0.0,0.0,0.0,0.0,-3.9388,-3.9388,-3.9388,-3.9388,-3.9388,-3.9388,-3.9388,-3.9532,-3.9783,-4.0172,-4.0172,-4.042,-4.0867,-4.0765,-4.0696,-4.0696,-4.047,-4.0242,-3.9975,-3.9568,-3.9568,-3.9783,-3.9496,-3.9388,-3.9445,-3.9996,-4.0296,-4.0558,-4.1104,-4.1272,-4.1272,-4.1272,-4.1272,-4.1272,-4.1272,-4.1423,-4.1588,-4.1588,-4.1588,-4.1588,-4.1588,-4.1588,-4.1588,-4.1588,-4.1588,-4.1687,-4.2045,-4.227,-4.2539,-4.3021,-4.3489,-4.3802,-4.3802,-4.4224,-4.4542,-4.4355,-4.4327,-4.427,-4.4126,-4.408,-4.3964,-4.3608,-4.3889,-4.3906,-4.3369,-4.3608,-4.3684,-4.3339,-4.3188,-4.3113,-4.3113,-4.2959,-4.2691,-4.2261,-4.1637,-4.1432,-4.1657,-4.1464,-4.1207,-4.0855,-4.0609,-4.0414,0.0,0.0,0.0,-3.5504,0.0,0.0,-3.5504,0.0,-3.5504,0.0,0.0,0.0,0.0,0.0,0.0,0.0,0.0,0.0,0.0,0.0,0.0,0.0,0.0,0.0,0.0,0.0,0.0,0.0,-3.9388,-3.9388,-3.9388,-3.9388,-3.9388,-3.9388,-3.9388,-3.9388,-3.9388,-3.9783,-4.0172,-4.0489,-4.0489,-4.0885,-4.1588,-4.1256,-4.1104,-4.1104,-4.1088,-4.0696,-3.9996,-3.9604,-3.9424,-3.9424,-3.9424,-3.9424,-3.9517,-4.0246,-4.0524,-4.0627,-4.1341,-4.1557,-4.1557,-4.1541,-4.1525,-4.1525,-4.1525,-4.1541,-4.1557,-4.1557,-4.1573,-4.1588,-4.1588,-4.1588,-4.1588,-4.1588,-4.1588,-4.1588,-4.1588,-4.2013,-4.2492,-4.299,-4.3446,-4.3772,-4.3772,-4.4196,-4.4384,-4.386,-4.3772,-4.3608,-4.3174,-4.3113,-4.3096,-4.3066,-4.3096,-4.3279,-4.3697,-4.3772,-4.3756,-4.3772,-4.3339,-4.3096,-4.3066,-4.2633,-4.223,-4.1972,-4.147,-4.087,-4.0178,-4.0178,-4.0178,-4.0146,-3.9874,-3.9399,-3.5504,0.0,0.0,0.0,0.0,0.0,0.0,0.0,0.0,0.0,0.0,0.0,0.0,0.0,0.0,0.0,0.0,0.0,0.0,0.0,0.0,0.0,0.0,0.0,0.0,0.0,0.0,0.0,-3.9388,-3.9388,-3.9388,-3.9388,-3.9388,-3.9388,-3.9388,-3.9388,-3.9388,-3.9496,-3.9874,-4.0489,-4.0489,-4.0885,-4.1588,-4.1489,-4.1456,-4.1456,-4.1205,-4.0969,-4.0765,-4.0351,-4.0191,-4.0191,-4.0191,-4.0191,-4.0246,-4.0765,-4.0935,-4.0925,-4.0888,-4.0877,-4.0783,-4.0245,-4.0072,-4.0072,-4.0072,-4.0451,-4.0877,-4.0877,-4.1225,-4.1588,-4.1588,-4.1588,-4.1588,-4.1588,-4.1588,-4.1588,-4.1588,-4.172,-4.1851,-4.1997,-4.2412,-4.2805,-4.2805,-4.3188,-4.3476,-4.3325,-4.3279,-4.3265,-4.3113,-4.3113,-4.299,-4.2618,-4.2898,-4.2851,-4.2269,-4.2881,-4.3157,-4.2805,-4.2974,-4.2959,-4.2618,-4.1976,-4.1418,-4.0991,-3.9862,-3.9349,-3.947,-3.947,-3.947,-3.9454,-3.8843,-3.8464,-3.5504,-3.5504,-3.5504,-3.5504,0.0,0.0,-3.5504,-3.5504,-3.5504,0.0,0.0,0.0,0.0,0.0,0.0,0.0,0.0,0.0,0.0,0.0,0.0,0.0,0.0,0.0,0.0,-3.8347,-3.8586,-3.8586,-3.8586,-3.8706,-3.8975,-3.926,-3.9388,-3.9388,-3.9388,-3.9388,-3.9388,-3.9388,-3.9768,-4.0489,-4.0489,-4.0885,-4.1588,-4.1588,-4.1588,-4.1588,-4.139,-4.129,-4.129,-4.107,-4.0799,-4.0489,-4.0489,-4.0489,-4.0528,-4.0608,-4.0634,-4.0607,-4.0243,-4.0151,-4.0072,-3.9645,-3.9503,-3.9503,-3.9503,-3.9803,-4.0151,-4.0151,-4.064,-4.1178,-4.1178,-4.1383,-4.1588,-4.1588,-4.1588,-4.1588,-4.1588,-4.1588,-4.1588,-4.1588,-4.2045,-4.2413,-4.2413,-4.2805,-4.3035,-4.2836,-4.2805,-4.2743,-4.2507,-4.2476,-4.2381,-4.2109,-4.2317,-4.2412,-4.2254,-4.257,-4.2774,-4.2711,-4.2774,-4.255,-4.1978,-4.1528,-4.0998,-4.0312,-3.9313,-3.8695,-3.8499,-3.8643,-3.8731,-3.8731,-3.8123,-3.7844,-3.5504,-3.5504,-3.5504,-3.5504,-3.5504,0.0,-3.5504,-3.5504,-3.5504,0.0,0.0,0.0,0.0,0.0,0.0,0.0,0.0,0.0,0.0,0.0,0.0,0.0,0.0,0.0,-3.73,-3.7375,-3.7404,-3.7404,-3.7404,-3.7659,-3.8257,-3.8856,-3.92,-3.92,-3.9275,-3.9305,-3.9305,-3.9343,-3.9768,-4.0489,-4.0489,-4.0885,-4.1588,-4.1588,-4.1588,-4.1588,-4.1588,-4.1588,-4.1588,-4.1509,-4.116,-4.0612,-4.055,-4.0519,-4.0476,-4.0066,-3.9933,-3.9872,-3.9503,-3.9392,-3.9376,-3.9297,-3.9281,-3.9281,-3.9281,-3.9329,-3.9408,-3.9487,-3.9977,-4.0482,-4.0482,-4.0909,-4.1351,-4.1351,-4.1351,-4.1351,-4.1351,-4.1415,-4.1478,-4.1478,-4.1933,-4.2318,-4.2318,-4.2649,-4.2789,-4.2365,-4.2318,-4.2158,-4.1654,-4.1588,-4.1588,-4.1588,-4.1588,-4.1964,-4.2851,-4.2618,-4.2602,-4.299,-4.2599,-4.2026,-4.1335,-4.1158,-4.0647,-3.9756,-3.9269,-3.851,-3.751,-3.7873,-3.803,-3.803,-3.7671,-3.751,-3.5504,-3.5504,-3.5504,-3.5504,-3.5504,0.0,-3.5504,-3.5504,-3.5504,0.0,0.0,0.0,0.0,0.0,0.0,0.0,0.0,0.0,0.0,0.0,0.0,0.0,0.0,0.0,-3.6671,-3.712,-3.7404,-3.7404,-3.7404,-3.7464,-3.7599,-3.7734,-3.7793,-3.7793,-3.8317,-3.8601,-3.8601,-3.914,-3.9768,-4.0489,-4.0489,-4.0885,-4.1588,-4.1588,-4.1588,-4.1588,-4.1588,-4.1588,-4.1541,-4.102,-4.1033,-4.1343,-4.0775,-4.0571,-4.0509,-3.985,-3.9613,-3.9519,-3.8919,-3.8713,-3.8618,-3.8049,-3.7905,-3.7905,-3.7905,-3.827,-3.8823,-3.9345,-3.9598,-3.9708,-3.9708,-3.9803,-3.9914,-3.9914,-3.9914,-3.9914,-3.9914,-4.0372,-4.0798,-4.0798,-4.1323,-4.1753,-4.1753,-4.1851,-4.1867,-4.1785,-4.1753,-4.172,-4.1621,-4.1588,-4.1588,-4.1588,-4.1588,-4.1687,-4.1883,-4.2206,-4.2445,-4.2523,-4.2266,-4.1845,-4.1319,-4.0206,-3.9363,-3.8794,-3.8148,-3.7725,-3.751,-3.7583,-3.7612,-3.7612,-3.7539,-3.751,-3.5504,-3.5504,0.0,-3.5504,0.0,0.0,0.0,-3.5504,-3.5504,-3.5504,-3.5504,-3.5504,-3.5504,0.0,0.0,0.0,0.0,0.0,0.0,0.0,0.0,0.0,0.0,0.0,-3.5998,-3.6267,-3.6462,-3.6462,-3.6761,-3.6941,-3.6941,-3.724,-3.7404,-3.7404,-3.7734,-3.7898,-3.7898,-3.8571,-3.9274,-4.0001,-4.032,-4.0885,-4.1588,-4.1588,-4.1588,-4.1573,-4.1241,-4.1099,-4.1035,-4.034,-4.0245,-4.0514,-4.0182,-4.0056,-3.9977,-3.9266,-3.9013,-3.8918,-3.8239,-3.8002,-3.7938,-3.7621,-3.751,-3.751,-3.751,-3.7717,-3.8065,-3.8397,-3.8744,-3.9013,-3.9013,-3.925,-3.9503,-3.9503,-3.9503,-3.9503,-3.9503,-3.9787,-4.0166,-4.053,-4.0862,-4.1209,-4.1525,-4.1588,-4.1588,-4.1588,-4.1588,-4.1588,-4.1588,-4.1588,-4.1588,-4.1588,-4.1588,-4.172,-4.198,-4.198,-4.1965,-4.1866,-4.1496,-4.0888,-3.9923,-3.9235,-3.8589,-3.8002,-3.7654,-3.751,-3.751,-3.751,-3.751,-3.751,-3.751,-3.751,0.0,0.0,0.0,0.0,0.0,-3.5504,0.0,0.0,0.0,0.0,0.0,0.0,0.0,0.0,0.0,0.0,0.0,0.0,0.0,0.0,0.0,0.0,0.0,0.0,0.0,-3.5235,-3.531,-3.531,-3.5923,-3.6297,-3.6297,-3.6776,-3.7045,-3.7045,-3.7165,-3.724,-3.724,-3.7883,-3.864,-3.9511,-3.9924,-4.0575,-4.1399,-4.1257,-4.1193,-4.1162,-4.0625,-4.0388,-4.034,-3.9613,-3.9313,-3.9313,-3.9313,-3.9313,-3.9234,-3.8555,-3.8318,-3.8239,-3.77,-3.751,-3.751,-3.751,-3.751,-3.751,-3.751,-3.751,-3.751,-3.751,-3.7875,-3.8318,-3.8318,-3.8713,-3.9108,-3.9108,-3.9108,-3.9108,-3.9108,-3.9218,-3.9487,-4.0087,-4.0419,-4.0814,-4.1478,-4.1588,-4.1588,-4.1588,-4.1588,-4.1588,-4.1588,-4.1588,-4.1588,-4.1588,-4.1588,-4.1785,-4.2222,-4.1739,-4.1357,-4.1164,-4.0563,-3.9692,-3.8555,-3.8381,-3.8049,-3.7526,-3.751,-3.751,-3.751,-3.751,-3.751,-3.751,-3.751,-3.751,0.0,0.0,0.0,0.0,-3.5504,0.0,0.0,0.0,-3.5504,-3.5504,0.0,0.0,0.0,0.0,0.0,0.0,0.0,0.0,0.0,0.0,0.0,0.0,0.0,0.0,0.0,-3.4247,-3.4623,-3.4623,-3.522,-3.5609,-3.5609,-3.5684,-3.5729,-3.5729,-3.6282,-3.6596,-3.6596,-3.721,-3.8171,-3.9496,-3.897,-3.9425,-4.0688,-4.004,-3.974,-3.974,-3.9661,-3.9629,-3.9566,-3.8902,-3.8618,-3.8618,-3.8618,-3.8618,-3.8539,-3.7859,-3.7621,-3.7605,-3.7541,-3.751,-3.751,-3.751,-3.751,-3.751,-3.751,-3.751,-3.751,-3.751,-3.7557,-3.7621,-3.7621,-3.7684,-3.7747,-3.7747,-3.7747,-3.7747,-3.7747,-3.8191,-3.8649,-3.8728,-3.9756,-4.0814,-4.1478,-4.1588,-4.1588,-4.1588,-4.1588,-4.1588,-4.1588,-4.1588,-4.1588,-4.1588,-4.1588,-4.1621,-4.1687,-4.1084,-4.0704,-4.0689,-3.9471,-3.8681,-3.8523,-3.7923,-3.7589,-3.751,-3.751,-3.751,-3.751,-3.751,-3.751,-3.751,-3.751,-3.751,0.0,0.0,0.0,0.0,0.0,0.0,-3.5424,0.0,-3.5504,0.0,0.0,0.0,0.0,0.0,0.0,0.0,-3.4981,0.0,0.0,0.0,0.0,0.0,0.0,0.0,0.0,0.0,0.0,0.0,-3.4532,-3.4906,-3.4906,-3.5295,-3.5504,-3.5504,-3.5774,-3.5923,-3.5923,-3.6552,-3.7355,-3.8325,-3.8446,-3.9006,-3.9945,-3.9645,-3.9503,-3.9471,-3.9092,-3.8934,-3.8871,-3.8191,-3.7923,-3.7923,-3.7923,-3.7923,-3.7875,-3.7605,-3.751,-3.751,-3.751,-3.751,-3.751,-3.751,-3.751,-3.751,-3.751,-3.751,-3.751,-3.751,-3.751,-3.751,-3.751,-3.751,-3.751,-3.751,-3.751,-3.751,-3.751,-3.7701,-3.8033,-3.8428,-3.8981,-3.974,-4.083,-4.1336,-4.1588,-4.1588,-4.1588,-4.1588,-4.1588,-4.1588,-4.1588,-4.1588,-4.1588,-4.143,-4.1051,-4.0751,-4.0245,-3.9439,-3.846,-3.7923,-3.7923,-3.7668,-3.751,-3.751,-3.751,-3.751,-3.751,-3.751,-3.751,-3.751,-3.751,-3.751,-3.5198,0.0,0.0,0.0,0.0,0.0,0.0,0.0,0.0,0.0,0.0,0.0,0.0,0.0,-3.5385,-3.5011,0.0,-3.4384,0.0,0.0,0.0,0.0,0.0,0.0,0.0,0.0,0.0,-3.323,-3.3844,-3.4234,-3.4234,-3.4861,-3.522,-3.522,-3.54,-3.5504,-3.5504,-3.5983,-3.6612,-3.7365,-3.7768,-3.8353,-3.9094,-3.8998,-3.895,-3.8918,-3.8444,-3.8239,-3.8191,-3.7686,-3.751,-3.751,-3.751,-3.751,-3.751,-3.751,-3.751,-3.751,-3.751,-3.751,-3.751,-3.751,-3.751,-3.751,-3.751,-3.751,-3.751,-3.751,-3.751,-3.751,-3.751,-3.751,-3.751,-3.751,-3.751,-3.751,-3.751,-3.751,-3.7622,-3.8128,-3.8381,-3.8839,-3.985,-4.0751,-4.1383,-4.1557,-4.1588,-4.1588,-4.1588,-4.1588,-4.1525,-4.1336,-4.132,-4.1035,-4.0356,-4.0135,-3.9518,-3.8302,-3.7765,-3.751,-3.751,-3.751,-3.751,-3.751,-3.751,-3.751,-3.751,-3.751,-3.751,-3.751,-3.751,-3.751,0.0,0.0,0.0,-3.5359,0.0,0.0,0.0,0.0,-3.5504,0.0,0.0,0.0,0.0,-3.5504,-3.5085,-3.3769,-3.4099,0.0,0.0,0.0,0.0,0.0,0.0,0.0,0.0,0.0,-3.2512,-3.2512,-3.3155,-3.3529,-3.3529,-3.4189,-3.4533,-3.4533,-3.516,-3.5504,-3.5504,-3.5534,-3.6029,-3.6993,-3.6703,-3.708,-3.8029,-3.7707,-3.7573,-3.7573,-3.7541,-3.7541,-3.7541,-3.7526,-3.751,-3.751,-3.751,-3.751,-3.751,-3.751,-3.751,-3.751,-3.751,-3.751,-3.751,-3.751,-3.751,-3.751,-3.751,-3.751,-3.751,-3.751,-3.751,-3.751,-3.751,-3.751,-3.751,-3.751,-3.751,-3.751,-3.751,-3.751,-3.7526,-3.7541,-3.8049,-3.8523,-3.857,-3.9724,-4.0846,-4.1494,-4.1588,-4.1588,-4.1588,-4.1588,-4.1351,-4.0704,-4.0625,-4.034,-3.9598,-3.895,-3.827,-3.7589,-3.7526,-3.751,-3.751,-3.751,-3.751,-3.751,-3.751,-3.751,-3.751,-3.751,-3.751,-3.751,-3.751,-3.751,0.0,0.0,-3.3659,-3.4221,0.0,0.0,0.0,0.0,0.0,0.0,0.0,0.0,0.0,-3.513,-3.4681,-3.4249,-3.3604,-3.3021,0.0,0.0,0.0,0.0,0.0,0.0,0.0,0.0,0.0,-3.1839,-3.2452,-3.2841,-3.2841,-3.3469,-3.4054,-3.4503,-3.4728,-3.504,-3.5504,-3.5504,-3.5771,-3.6339,-3.6443,-3.6801,-3.7327,-3.7471,-3.751,-3.751,-3.751,-3.751,-3.751,-3.751,-3.751,-3.751,-3.751,-3.751,-3.751,-3.751,-3.751,-3.751,-3.751,-3.751,-3.751,-3.751,-3.751,-3.751,-3.751,-3.751,-3.751,-3.751,-3.751,-3.751,-3.751,-3.751,-3.751,-3.751,-3.751,-3.751,-3.751,-3.751,-3.751,-3.751,-3.767,-3.797,-3.8428,-3.8902,-3.9613,-4.0751,-4.0514,-4.0388,-4.0877,-4.0514,-4.0119,-3.9898,-3.9866,-3.9598,-3.8902,-3.8223,-3.7733,-3.7526,-3.751,-3.751,-3.751,-3.751,-3.751,-3.751,-3.751,-3.751,-3.751,-3.751,-3.751,-3.751,-3.751,-3.751,-3.3451,-3.3255,0.0,-3.3659,-3.3796,0.0,-3.3796,0.0,-3.4787,0.0,0.0,0.0,0.0,0.0,-3.3864,-3.3594,-3.2822,-3.2228,0.0,-3.1765,0.0,0.0,0.0,0.0,0.0,0.0,-3.1511,-3.1511,-3.1899,-3.2138,0.0,0.0,-3.344,-3.4098,-3.4384,-3.4801,-3.5489,-3.5504,-3.5587,-3.5829,-3.6273,-3.6616,-3.6847,-3.7301,-3.751,-3.751,-3.751,-3.751,-3.751,-3.751,-3.751,-3.751,-3.751,-3.751,-3.751,-3.751,-3.751,-3.751,-3.751,-3.751,-3.751,-3.751,-3.751,-3.751,-3.751,-3.751,-3.7557,-3.778,-3.767,-3.7557,-3.778,-3.77,-3.751,-3.751,-3.751,-3.751,-3.751,-3.751,-3.751,-3.751,-3.751,-3.7652,-3.8065,-3.8144,-3.8618,-3.9993,-3.9803,-3.9677,-4.0151,-3.9787,-3.9408,-3.9171,-3.9139,-3.8871,-3.8207,-3.7733,-3.751,-3.751,-3.751,-3.751,-3.751,-3.751,-3.751,-3.751,-3.751,-3.751,-3.751,-3.751,-3.751,-3.751,-3.751,-3.751]},{"header":{"parameterUnit":"m.s-1","parameterCategory":1,"la1":30.6,"la2":29.2853,"lo1":-89.7004,"lo2":-87.6739,"dy":0.0162,"dx":0.0183,"nx":112,"ny":82,"refTime":"2023-06-06T12:00:00:Z","depth":0,"parameterNumber":3,"parameterNumberName":"V-component_of_WINDS"},"data":[0.0,0.0,0.0,0.0,0.0,0.0,0.0,0.0,0.0,0.0,0.0,0.0,0.0,0.0,0.0,0.0,0.0,0.0,0.0,0.0,0.0,0.0,0.0,0.0,0.0,0.0,0.0,0.0,0.0,0.0,0.0,0.0,0.0,0.0,0.0,0.0,0.0,0.0,0.0,0.0,0.0,0.0,0.0,0.0,0.0,0.0,0.0,0.0,0.0,0.0,0.0,0.0,0.0,0.0,0.0,0.0,0.0,0.0,0.0,0.0,0.0,0.0,0.0,0.0,0.0,0.0,0.0,0.0,0.0,0.0,0.0,0.0,0.0,0.0,0.0,0.0,0.0,0.0,0.0,0.0,0.0,0.0,0.0,0.0,0.0,0.0,0.0,0.0,0.0,0.0,-2.2348,-2.1671,-2.1071,-2.0751,-2.0703,-2.0722,-2.0722,-2.0722,0.0,0.0,0.0,0.0,0.0,0.0,0.0,0.0,0.0,0.0,0.0,0.0,0.0,0.0,0.0,0.0,0.0,0.0,0.0,0.0,0.0,0.0,0.0,0.0,0.0,0.0,0.0,0.0,0.0,0.0,0.0,0.0,0.0,0.0,0.0,0.0,0.0,0.0,0.0,0.0,0.0,0.0,0.0,0.0,0.0,0.0,0.0,0.0,0.0,0.0,0.0,0.0,0.0,0.0,0.0,0.0,0.0,0.0,0.0,0.0,0.0,0.0,0.0,0.0,0.0,0.0,0.0,0.0,0.0,0.0,0.0,0.0,0.0,0.0,0.0,0.0,0.0,0.0,0.0,0.0,0.0,0.0,0.0,0.0,0.0,0.0,0.0,0.0,0.0,0.0,0.0,0.0,0.0,0.0,0.0,0.0,0.0,0.0,0.0,0.0,0.0,0.0,0.0,0.0,-2.3233,-2.214,-2.161,-2.1268,-2.1103,-2.1261,-2.1349,-2.1349,0.0,0.0,0.0,0.0,0.0,0.0,0.0,0.0,0.0,0.0,0.0,0.0,0.0,0.0,0.0,0.0,0.0,0.0,0.0,0.0,0.0,0.0,0.0,0.0,0.0,0.0,0.0,0.0,0.0,0.0,0.0,0.0,0.0,0.0,0.0,0.0,0.0,0.0,0.0,0.0,0.0,0.0,0.0,0.0,0.0,0.0,0.0,0.0,0.0,0.0,0.0,0.0,0.0,0.0,0.0,0.0,0.0,0.0,0.0,0.0,0.0,0.0,0.0,0.0,0.0,0.0,0.0,0.0,0.0,0.0,0.0,0.0,0.0,0.0,0.0,0.0,0.0,0.0,0.0,0.0,0.0,0.0,0.0,0.0,0.0,0.0,0.0,0.0,0.0,0.0,0.0,0.0,0.0,0.0,0.0,0.0,0.0,0.0,0.0,0.0,0.0,0.0,0.0,-2.3085,-2.2932,-2.2174,-2.2196,-2.2087,-2.174,-2.2128,-2.2248,-2.2008,-2.1987,0.0,0.0,0.0,0.0,0.0,0.0,0.0,0.0,0.0,0.0,0.0,0.0,0.0,0.0,0.0,0.0,0.0,0.0,0.0,0.0,0.0,0.0,0.0,0.0,0.0,0.0,0.0,0.0,0.0,0.0,0.0,0.0,0.0,0.0,0.0,0.0,0.0,0.0,0.0,0.0,0.0,0.0,0.0,0.0,0.0,0.0,0.0,0.0,0.0,0.0,0.0,0.0,0.0,0.0,0.0,0.0,0.0,0.0,0.0,0.0,0.0,0.0,0.0,0.0,0.0,0.0,0.0,0.0,0.0,0.0,0.0,0.0,0.0,0.0,0.0,0.0,0.0,0.0,0.0,0.0,0.0,0.0,0.0,0.0,0.0,0.0,0.0,0.0,0.0,0.0,0.0,0.0,0.0,0.0,0.0,0.0,0.0,0.0,0.0,0.0,0.0,0.0,-2.3145,-2.2705,-2.2733,-2.2936,-2.2968,-2.2537,-2.2981,-2.3101,-2.266,-2.2628,0.0,0.0,0.0,0.0,0.0,0.0,0.0,0.0,0.0,0.0,0.0,0.0,0.0,0.0,0.0,0.0,0.0,0.0,0.0,0.0,0.0,0.0,0.0,0.0,0.0,0.0,0.0,0.0,0.0,0.0,0.0,0.0,0.0,0.0,0.0,0.0,0.0,0.0,0.0,0.0,0.0,0.0,0.0,0.0,0.0,0.0,0.0,0.0,0.0,0.0,0.0,0.0,0.0,0.0,0.0,0.0,0.0,0.0,0.0,0.0,0.0,0.0,0.0,0.0,0.0,0.0,0.0,0.0,0.0,0.0,0.0,0.0,0.0,0.0,0.0,0.0,0.0,0.0,0.0,0.0,0.0,0.0,0.0,0.0,0.0,0.0,0.0,0.0,0.0,0.0,0.0,0.0,0.0,0.0,0.0,0.0,0.0,0.0,0.0,0.0,0.0,0.0,-2.3738,-2.3183,-2.439,-2.4032,-2.3724,-2.3692,-2.3824,-2.3758,-2.3257,-2.3224,0.0,0.0,0.0,0.0,0.0,0.0,0.0,0.0,0.0,0.0,0.0,0.0,0.0,0.0,0.0,0.0,0.0,0.0,0.0,0.0,0.0,0.0,0.0,0.0,0.0,0.0,0.0,0.0,0.0,0.0,0.0,0.0,0.0,0.0,0.0,0.0,0.0,0.0,0.0,0.0,0.0,0.0,0.0,0.0,0.0,0.0,0.0,0.0,0.0,0.0,0.0,0.0,0.0,0.0,0.0,0.0,0.0,0.0,0.0,0.0,0.0,0.0,0.0,0.0,0.0,0.0,0.0,0.0,0.0,0.0,0.0,0.0,0.0,0.0,0.0,0.0,0.0,0.0,0.0,0.0,0.0,0.0,0.0,0.0,0.0,0.0,0.0,0.0,0.0,0.0,0.0,0.0,0.0,0.0,0.0,0.0,0.0,0.0,0.0,0.0,0.0,0.0,-2.4974,-2.477,-2.5094,-2.5212,-2.5156,-2.481,-2.5261,-2.5349,-2.4823,0.0,0.0,0.0,0.0,0.0,0.0,0.0,0.0,0.0,0.0,0.0,0.0,0.0,0.0,0.0,0.0,0.0,0.0,0.0,0.0,0.0,0.0,0.0,0.0,0.0,0.0,0.0,0.0,0.0,0.0,0.0,0.0,0.0,0.0,0.0,0.0,0.0,0.0,0.0,0.0,0.0,0.0,0.0,0.0,0.0,0.0,0.0,0.0,0.0,0.0,0.0,0.0,0.0,0.0,0.0,0.0,0.0,0.0,0.0,0.0,0.0,0.0,0.0,0.0,0.0,0.0,0.0,0.0,0.0,0.0,0.0,0.0,0.0,0.0,0.0,0.0,0.0,0.0,0.0,0.0,0.0,0.0,0.0,0.0,0.0,0.0,0.0,0.0,0.0,0.0,0.0,0.0,0.0,0.0,0.0,0.0,0.0,0.0,0.0,0.0,0.0,0.0,-2.5777,-2.5905,-2.5975,-2.5755,-2.6032,-2.608,-2.5753,-2.6211,-2.6283,-2.5739,0.0,0.0,0.0,0.0,0.0,0.0,0.0,0.0,0.0,0.0,0.0,0.0,0.0,0.0,0.0,0.0,0.0,0.0,0.0,0.0,0.0,0.0,0.0,0.0,0.0,0.0,0.0,0.0,0.0,0.0,0.0,0.0,0.0,0.0,0.0,0.0,0.0,0.0,0.0,0.0,0.0,0.0,0.0,0.0,0.0,0.0,0.0,0.0,0.0,0.0,0.0,0.0,0.0,0.0,0.0,0.0,0.0,0.0,0.0,0.0,0.0,0.0,0.0,0.0,0.0,0.0,0.0,0.0,0.0,0.0,0.0,0.0,0.0,0.0,0.0,0.0,0.0,0.0,0.0,0.0,0.0,0.0,0.0,0.0,0.0,0.0,0.0,0.0,0.0,0.0,0.0,0.0,0.0,0.0,0.0,0.0,0.0,0.0,0.0,0.0,0.0,0.0,-2.6239,-2.64,-2.6591,-2.6501,-2.633,-2.6296,-2.6479,-2.6513,-2.6255,0.0,0.0,0.0,0.0,0.0,0.0,0.0,0.0,0.0,0.0,0.0,0.0,0.0,0.0,0.0,0.0,0.0,0.0,0.0,0.0,0.0,0.0,0.0,0.0,0.0,0.0,0.0,0.0,0.0,0.0,0.0,0.0,0.0,0.0,0.0,0.0,0.0,0.0,0.0,0.0,0.0,0.0,0.0,0.0,0.0,0.0,0.0,0.0,0.0,0.0,0.0,0.0,0.0,0.0,0.0,0.0,0.0,0.0,0.0,0.0,0.0,0.0,0.0,0.0,0.0,0.0,0.0,0.0,0.0,0.0,0.0,0.0,0.0,0.0,0.0,0.0,0.0,0.0,0.0,0.0,0.0,0.0,0.0,0.0,0.0,0.0,0.0,0.0,0.0,0.0,0.0,0.0,0.0,0.0,0.0,0.0,0.0,0.0,0.0,0.0,0.0,0.0,0.0,-2.7276,-2.732,-2.729,-2.7007,-2.6924,-2.6905,-2.6972,-2.7001,-2.6944,-2.6754,0.0,0.0,0.0,0.0,0.0,0.0,0.0,0.0,0.0,0.0,0.0,0.0,0.0,0.0,0.0,0.0,0.0,0.0,0.0,0.0,0.0,0.0,0.0,0.0,0.0,0.0,0.0,0.0,0.0,0.0,0.0,0.0,0.0,0.0,0.0,0.0,0.0,0.0,0.0,0.0,0.0,0.0,0.0,0.0,0.0,0.0,0.0,0.0,0.0,0.0,0.0,0.0,0.0,0.0,0.0,0.0,0.0,0.0,0.0,0.0,0.0,0.0,0.0,0.0,0.0,0.0,0.0,0.0,0.0,0.0,0.0,0.0,0.0,0.0,0.0,0.0,0.0,0.0,0.0,0.0,0.0,0.0,0.0,0.0,0.0,0.0,0.0,0.0,0.0,0.0,0.0,0.0,0.0,0.0,0.0,0.0,0.0,0.0,0.0,0.0,0.0,0.0,-2.7758,-2.7909,-2.7806,-2.7278,-2.719,-2.719,-2.719,-2.719,-2.719,-2.719,0.0,0.0,0.0,0.0,0.0,0.0,0.0,0.0,0.0,0.0,0.0,0.0,0.0,0.0,0.0,0.0,0.0,0.0,0.0,0.0,0.0,0.0,0.0,0.0,0.0,0.0,0.0,0.0,0.0,0.0,0.0,0.0,0.0,0.0,0.0,0.0,0.0,0.0,0.0,0.0,0.0,0.0,0.0,0.0,0.0,0.0,0.0,0.0,0.0,0.0,0.0,0.0,0.0,0.0,0.0,0.0,0.0,0.0,0.0,0.0,0.0,0.0,0.0,0.0,0.0,0.0,0.0,0.0,0.0,0.0,0.0,0.0,0.0,0.0,0.0,0.0,0.0,0.0,0.0,0.0,0.0,0.0,0.0,0.0,0.0,0.0,0.0,0.0,0.0,0.0,0.0,0.0,0.0,0.0,0.0,0.0,0.0,0.0,0.0,0.0,0.0,0.0,-2.7944,-2.821,-2.8191,-2.7353,-2.7231,-2.719,-2.719,-2.719,-2.719,-2.719,0.0,0.0,0.0,0.0,0.0,0.0,0.0,0.0,0.0,0.0,0.0,0.0,0.0,0.0,0.0,0.0,0.0,0.0,0.0,0.0,0.0,0.0,0.0,0.0,0.0,0.0,0.0,0.0,0.0,0.0,0.0,0.0,0.0,0.0,0.0,0.0,0.0,0.0,0.0,0.0,0.0,0.0,0.0,0.0,0.0,0.0,0.0,0.0,0.0,0.0,0.0,0.0,0.0,0.0,0.0,0.0,0.0,0.0,0.0,0.0,-2.7996,0.0,0.0,0.0,0.0,0.0,0.0,0.0,0.0,0.0,0.0,0.0,0.0,0.0,0.0,0.0,0.0,0.0,0.0,0.0,0.0,0.0,0.0,0.0,0.0,0.0,0.0,0.0,0.0,0.0,0.0,0.0,0.0,0.0,0.0,0.0,0.0,0.0,0.0,0.0,0.0,0.0,-2.888,-2.8636,-2.8323,-2.78,-2.7435,-2.719,-2.719,-2.719,-2.719,-2.719,-2.719,0.0,0.0,0.0,0.0,0.0,0.0,0.0,0.0,0.0,0.0,0.0,0.0,0.0,0.0,0.0,0.0,0.0,0.0,0.0,0.0,0.0,0.0,0.0,0.0,0.0,0.0,0.0,0.0,0.0,0.0,0.0,0.0,0.0,0.0,0.0,0.0,0.0,0.0,0.0,0.0,0.0,0.0,0.0,0.0,0.0,0.0,0.0,0.0,0.0,0.0,0.0,0.0,0.0,0.0,0.0,0.0,0.0,0.0,0.0,0.0,-2.8109,0.0,0.0,0.0,0.0,0.0,0.0,0.0,0.0,0.0,0.0,0.0,0.0,0.0,0.0,0.0,0.0,0.0,0.0,0.0,0.0,0.0,0.0,0.0,0.0,0.0,0.0,0.0,0.0,0.0,0.0,0.0,0.0,0.0,0.0,0.0,0.0,0.0,0.0,0.0,0.0,-2.917,-2.8736,-2.8363,-2.7921,-2.7476,-2.719,-2.719,-2.719,-2.719,-2.719,-2.719,0.0,0.0,0.0,0.0,0.0,0.0,0.0,0.0,0.0,0.0,0.0,0.0,0.0,0.0,0.0,0.0,0.0,0.0,0.0,0.0,0.0,0.0,0.0,0.0,0.0,0.0,0.0,0.0,0.0,0.0,0.0,0.0,0.0,0.0,0.0,0.0,0.0,0.0,0.0,0.0,0.0,0.0,0.0,0.0,0.0,0.0,0.0,0.0,0.0,0.0,0.0,0.0,0.0,-2.886,-2.8786,-2.8699,-2.9151,-2.9327,-2.9289,-2.8875,-2.8574,-2.8398,-2.8398,0.0,0.0,0.0,0.0,0.0,0.0,0.0,0.0,0.0,0.0,0.0,0.0,0.0,0.0,0.0,0.0,0.0,0.0,0.0,0.0,0.0,0.0,0.0,0.0,-2.875,-2.895,0.0,0.0,0.0,0.0,0.0,0.0,0.0,0.0,0.0,0.0,0.0,0.0,-2.9131,-2.8709,-2.8271,-2.7933,-2.7476,-2.719,-2.719,-2.719,-2.719,-2.719,-2.719,-2.719,0.0,0.0,0.0,0.0,0.0,0.0,0.0,0.0,0.0,0.0,0.0,0.0,0.0,0.0,0.0,0.0,0.0,0.0,0.0,0.0,0.0,0.0,0.0,0.0,0.0,0.0,0.0,0.0,0.0,0.0,0.0,0.0,-2.7004,-2.7665,0.0,0.0,0.0,0.0,0.0,0.0,0.0,0.0,0.0,0.0,0.0,0.0,0.0,-3.1033,-3.2038,-3.2038,-3.1986,-3.181,-3.181,-3.1546,-3.0959,-3.1035,-3.1072,-3.106,-3.0984,0.0,-2.9578,-2.9578,0.0,0.0,0.0,0.0,0.0,0.0,0.0,0.0,0.0,0.0,0.0,0.0,0.0,0.0,0.0,0.0,0.0,0.0,0.0,0.0,0.0,0.0,-2.9578,-2.9578,-2.9628,-2.9654,0.0,-2.9578,-2.9578,-2.9578,-2.9628,0.0,0.0,0.0,0.0,0.0,0.0,0.0,-2.9091,-2.8431,-2.7962,-2.7893,-2.7476,-2.719,-2.719,-2.719,-2.719,-2.719,-2.719,-2.719,-2.719,-2.719,0.0,0.0,0.0,0.0,0.0,0.0,0.0,0.0,0.0,0.0,0.0,0.0,0.0,0.0,0.0,0.0,0.0,0.0,0.0,0.0,0.0,0.0,0.0,0.0,0.0,0.0,0.0,0.0,0.0,-2.7275,-2.7742,-2.8073,-2.7804,-2.7854,0.0,0.0,0.0,0.0,0.0,0.0,0.0,0.0,0.0,-3.3166,-3.2945,-3.3028,-3.3501,-3.3501,-3.3317,-3.2975,-3.3304,-3.329,-3.3022,-3.3006,-3.2816,-3.2455,-3.2016,-3.1411,-3.0696,-3.0696,-3.0696,-3.0658,0.0,0.0,0.0,0.0,-2.9792,-2.9792,-2.9792,-2.9792,0.0,-2.9792,0.0,0.0,0.0,0.0,0.0,0.0,0.0,0.0,0.0,0.0,-3.0696,-3.0696,-3.0696,-3.0696,-3.0696,-3.0696,-3.052,0.0,-2.9792,-2.9792,-2.9792,0.0,0.0,0.0,0.0,-2.9489,-2.9548,-2.9012,-2.8656,-2.8745,-2.831,-2.7943,-2.7667,-2.7656,-2.7529,-2.7201,-2.719,-2.719,-2.719,-2.719,-2.719,0.0,0.0,0.0,0.0,0.0,0.0,0.0,0.0,0.0,0.0,0.0,0.0,0.0,0.0,0.0,0.0,0.0,0.0,0.0,0.0,0.0,0.0,0.0,0.0,0.0,0.0,0.0,0.0,-2.8448,-2.8536,-2.8536,-2.8536,-2.8699,0.0,0.0,0.0,0.0,0.0,0.0,-3.3489,-3.3179,-3.3714,-3.5363,-3.5002,-3.4889,-3.5206,-3.5206,-3.5004,-3.4551,-3.5022,-3.5117,-3.4981,-3.473,-3.4341,-3.3884,-3.314,-3.2616,-3.2202,-3.1625,-3.1386,-3.1348,-3.0972,-3.0809,-3.0771,-3.0357,-3.0206,-3.0206,-3.0206,-3.0206,-3.0206,-3.0206,0.0,-3.0206,-3.0206,0.0,0.0,0.0,0.0,-3.0809,-3.0809,-3.1097,-3.1386,-3.1386,-3.1386,-3.1386,-3.1386,-3.1386,-3.1148,0.0,-3.0206,-3.0206,-3.0206,0.0,0.0,0.0,0.0,-3.0067,-3.013,-2.9637,-2.9285,-2.9393,-2.8958,-2.8551,-2.8195,-2.8057,-2.7828,-2.7449,-2.73,-2.719,-2.719,-2.719,-2.719,-2.719,0.0,0.0,0.0,0.0,0.0,0.0,0.0,0.0,0.0,0.0,0.0,0.0,0.0,0.0,0.0,0.0,0.0,0.0,0.0,0.0,0.0,0.0,0.0,0.0,0.0,0.0,0.0,0.0,0.0,-2.9704,-2.9704,0.0,0.0,0.0,0.0,-3.1487,-3.2071,-3.2895,-3.4197,-3.4235,-3.4775,-3.6009,-3.6023,-3.6547,-3.7711,-3.7725,-3.7684,-3.7674,-3.7702,-3.7394,-3.677,-3.6062,-3.5711,-3.5642,-3.4901,-3.4575,-3.4387,-3.2265,-3.1386,-3.1386,-3.1361,-3.1348,-3.1348,-3.1323,-3.1311,-3.1311,-3.1311,-3.1311,-3.1311,-3.1311,-3.1311,-3.1311,-3.1311,-3.1311,0.0,0.0,-3.1336,-3.1348,-3.1348,-3.1373,-3.1386,-3.1386,-3.1386,-3.1386,-3.1386,-3.1386,-3.1373,0.0,-3.1311,-3.1311,-3.1311,0.0,-3.1311,-3.1311,-3.0984,-3.075,-3.0733,-2.9942,-2.9404,-2.9385,-2.8958,-2.8689,-2.8666,-2.8253,-2.7977,-2.7943,-2.7495,-2.719,-2.719,-2.719,-2.719,-2.719,-2.719,0.0,0.0,0.0,0.0,0.0,0.0,0.0,0.0,0.0,0.0,0.0,0.0,0.0,0.0,0.0,0.0,0.0,0.0,0.0,0.0,0.0,0.0,0.0,0.0,0.0,0.0,0.0,0.0,-3.0319,-3.062,0.0,-3.0821,-3.1358,-3.1779,-3.2044,-3.337,-3.4508,-3.5335,-3.6152,-3.7021,-3.7889,-3.7903,-3.8114,-3.855,-3.8524,-3.8555,-3.8559,-3.895,-3.9019,-3.8738,-3.7912,-3.7342,-3.6942,-3.5729,-3.5006,-3.4618,-3.3859,-3.3533,-3.347,-3.2754,-3.2478,-3.2432,-3.1662,-3.1386,-3.1386,-3.1386,-3.1386,-3.1386,-3.1386,-3.1386,-3.1386,-3.1386,-3.1386,-3.1386,-3.1386,-3.165,-3.1913,-3.1913,-3.219,-3.2478,-3.2478,-3.2478,-3.2478,-3.2478,-3.2478,-3.2478,-3.2478,-3.1888,-3.1386,-3.1386,-3.1386,-3.1386,-3.1386,-3.1017,-3.0739,-3.0773,-3.0236,-2.9846,-2.9908,-2.9765,-2.955,-2.924,-2.8735,-2.831,-2.8,-2.7506,-2.719,-2.719,-2.719,-2.719,-2.719,-2.719,-2.719,0.0,0.0,0.0,0.0,0.0,0.0,0.0,0.0,0.0,0.0,0.0,0.0,0.0,0.0,0.0,0.0,0.0,0.0,0.0,0.0,0.0,0.0,0.0,0.0,0.0,0.0,-3.0683,-3.0859,-3.1185,-3.1461,-3.165,-3.2209,-3.2729,-3.3168,-3.4481,-3.5683,-3.6579,-3.7425,-3.8293,-3.9197,-3.9211,-3.931,-3.9535,-3.9535,-3.9535,-3.9535,-3.9901,-4.0083,-4.0055,-3.8973,-3.8296,-3.7878,-3.6427,-3.5617,-3.5278,-3.5278,-3.5278,-3.5165,-3.406,-3.3633,-3.3545,-3.2792,-3.2516,-3.2516,-3.2516,-3.2516,-3.2478,-3.2303,-3.224,-3.2202,-3.2014,-3.2089,-3.224,-3.224,-3.2641,-3.3056,-3.3056,-3.3206,-3.3357,-3.3357,-3.3206,-3.3124,-3.3124,-3.3124,-3.3124,-3.3124,-3.2466,-3.1951,-3.1951,-3.1951,-3.1951,-3.1951,-3.1714,-3.1459,-3.1343,-3.0914,-3.0605,-3.0453,-3.0306,-3.0089,-2.9768,-2.9102,-2.8563,-2.8253,-2.7598,-2.719,-2.719,-2.719,-2.719,-2.719,-2.719,-2.719,-2.719,0.0,0.0,0.0,0.0,0.0,0.0,0.0,0.0,0.0,0.0,0.0,0.0,0.0,0.0,0.0,0.0,0.0,0.0,0.0,0.0,0.0,0.0,0.0,-3.0633,-3.0658,-3.0859,-3.1386,-3.1461,-3.1687,-3.224,-3.2805,-3.3647,-3.4831,-3.5412,-3.638,-3.7739,-3.7864,-3.8503,-3.9845,-3.9873,-4.0154,-4.0744,-4.0758,-4.0758,-4.0758,-4.0758,-4.0758,-4.0715,-3.9247,-3.8562,-3.8472,-3.7087,-3.6443,-3.643,-3.643,-3.643,-3.6304,-3.5165,-3.4705,-3.4705,-3.4726,-3.468,-3.468,-3.468,-3.468,-3.4625,-3.4098,-3.3922,-3.3822,-3.3294,-3.3508,-3.3922,-3.3922,-3.4311,-3.468,-3.468,-3.4324,-3.3922,-3.3922,-3.3508,-3.3106,-3.3106,-3.3124,-3.3124,-3.3124,-3.3124,-3.3124,-3.3124,-3.3124,-3.3124,-3.3081,-3.3081,0.0,-3.2388,-3.1937,-3.1439,-3.0937,-3.0487,-3.0216,-3.0216,-2.9286,-2.87,-2.87,-2.777,-2.719,-2.719,-2.719,-2.719,-2.719,-2.719,-2.719,-2.719,0.0,0.0,0.0,0.0,0.0,0.0,0.0,0.0,0.0,0.0,0.0,0.0,0.0,0.0,0.0,0.0,0.0,0.0,0.0,0.0,0.0,0.0,-3.1173,-3.1173,-3.1524,-3.1989,-3.2541,-3.2968,-3.342,-3.3985,-3.4173,-3.4426,-3.4743,-3.6128,-3.7428,-3.834,-3.9127,-4.0237,-4.1797,-4.1252,-4.1335,-4.2064,-4.2064,-4.2064,-4.2064,-4.2064,-4.2064,-4.2064,-4.1113,-4.037,-3.9754,-3.8826,-3.7891,-3.696,-3.696,-3.6769,-3.6342,-3.5592,-3.527,-3.5219,-3.4818,-3.468,-3.468,-3.468,-3.468,-3.47,-3.455,-3.45,-3.4462,-3.4311,-3.4374,-3.45,-3.45,-3.4613,-3.468,-3.468,-3.4613,-3.45,-3.45,-3.4073,-3.3671,-3.3671,-3.3357,-3.3124,-3.3124,-3.3124,-3.3124,-3.3124,-3.3124,-3.2995,-3.2649,-3.2288,0.0,-3.1395,-3.0892,-3.0578,-3.0397,-3.0261,-3.0216,-3.0216,-2.9286,-2.87,-2.87,-2.777,-2.719,-2.719,-2.719,-2.719,-2.719,-2.719,-2.719,0.0,0.0,0.0,0.0,0.0,0.0,0.0,0.0,0.0,0.0,0.0,0.0,0.0,0.0,0.0,0.0,0.0,0.0,0.0,0.0,0.0,0.0,-3.1738,-3.2177,-3.2416,-3.2516,-3.2867,-3.3671,-3.4048,-3.4462,-3.4969,-3.5278,-3.5504,-3.573,-3.6972,-3.8024,-3.8793,-3.972,-4.0823,-4.206,-4.1622,-4.1773,-4.2584,-4.2255,-4.2255,-4.2584,-4.2584,-4.2584,-4.257,-4.1864,-4.124,0.0,-3.9664,-3.8775,-3.7973,-3.7419,-3.6998,0.0,0.0,0.0,0.0,0.0,-3.5416,-3.5416,-3.5416,-3.5416,-3.5366,-3.514,-3.5019,-3.4981,-3.4756,-3.4843,-3.5019,-3.5019,-3.5228,-3.5416,-3.5416,-3.524,-3.5019,-3.5019,-3.465,-3.4248,-3.4248,-3.3809,-3.342,-3.342,-3.3232,0.0,-3.3124,-3.3124,-3.2995,-3.2736,-3.2288,-3.1805,-3.1306,-3.0814,-3.0442,-3.0216,-3.0216,-3.0216,-3.0216,-2.9481,0.0,0.0,0.0,-2.7449,-2.7201,-2.719,0.0,0.0,0.0,-2.719,-2.719,0.0,0.0,0.0,-2.719,-2.719,0.0,0.0,0.0,0.0,0.0,0.0,0.0,0.0,0.0,0.0,0.0,0.0,0.0,0.0,0.0,0.0,-3.2842,-3.3458,-3.401,-3.3658,-3.3721,-3.47,-3.4831,-3.5082,-3.5633,-3.6232,-3.6795,-3.7236,-3.7789,-3.8436,-3.9155,0.0,0.0,0.0,0.0,-4.1736,-4.2496,-4.192,-4.1966,-4.2691,-4.2736,-4.2781,-4.2781,-4.2117,-4.1782,-4.1584,-4.0148,-3.9449,-3.9201,-3.7904,-3.7299,-3.7123,-3.6619,-3.6405,-3.6405,-3.6405,-3.6358,-3.631,-3.631,0.0,0.0,-3.5606,-3.5456,-3.5415,-3.4869,-3.5115,-3.5596,-3.5549,-3.5947,-3.6405,-3.6405,-3.5994,-3.5596,-3.5596,-3.5169,-3.4768,-3.4768,-3.4387,-3.3985,-3.3985,-3.3545,-3.3169,-3.3126,-3.3119,-3.3081,-3.2939,-3.2605,-3.2113,-3.1617,-3.1128,-3.0668,-3.0261,0.0,0.0,-3.0216,-2.978,-2.9274,-2.8735,-2.8195,-2.7702,-2.7201,-2.719,-2.719,-2.719,-2.719,-2.719,-2.719,-2.719,-2.719,-2.719,-2.719,-2.719,0.0,0.0,0.0,0.0,0.0,0.0,0.0,0.0,0.0,0.0,0.0,0.0,0.0,0.0,0.0,-3.2893,-3.3746,-3.46,-3.5107,-3.5094,-3.5107,-3.532,-3.5746,-3.6295,-3.681,-3.7362,-3.7739,-3.7839,-3.8379,-3.9031,-3.9786,-3.9801,-4.0434,-4.1838,-4.1327,-4.1376,-4.2081,-4.2637,-4.2923,-4.3066,0.0,0.0,-4.4059,-4.3906,-4.3471,-4.2828,-4.1887,-4.0841,-3.9773,-3.8917,-3.8015,-3.7123,-3.6619,-3.6405,-3.6405,-3.6405,-3.6133,-3.5752,-3.5752,-3.5464,-3.5102,-3.4993,-3.5209,-3.5484,-3.4931,-3.5458,0.0,-3.5687,-3.5998,-3.6405,-3.6405,-3.6329,-3.6207,-3.6207,-3.578,-3.5345,-3.5345,-3.4906,-3.4562,-3.4562,-3.4123,-3.3646,-3.3268,-3.314,-3.2853,-3.2057,-3.1881,-3.1528,-3.0623,-3.0397,-3.0306,-3.0216,-3.0216,-3.0216,-3.0216,-2.978,-2.9274,-2.8735,-2.7862,-2.7293,-2.719,-2.719,-2.719,-2.719,-2.719,-2.719,-2.719,-2.719,-2.719,-2.719,-2.719,-2.719,0.0,0.0,0.0,0.0,0.0,0.0,0.0,0.0,0.0,0.0,0.0,-3.1639,0.0,0.0,-3.3583,-3.3859,-3.46,-3.5182,-3.5458,-3.5972,-3.637,-3.637,-3.6621,-3.701,-3.755,-3.8115,-3.8442,-3.8442,-3.8969,-3.9474,-3.9854,-4.0134,-4.063,-4.1408,-4.1071,-4.1272,-4.1976,-4.2382,-4.2771,-4.3218,-4.4021,-4.4411,-4.4411,-4.4411,-4.4162,-4.3709,-4.2528,-4.162,-4.0861,-3.9143,-3.7791,-3.6723,-3.6202,-3.6181,-3.6405,-3.6405,-3.6038,-3.562,-3.562,-3.5271,-3.4775,-3.4775,-3.4969,-3.5126,-3.4884,-3.5163,-3.5596,-3.5608,-3.58,-3.6038,-3.631,-3.6405,-3.631,-3.6073,-3.5779,-3.5499,-3.5203,-3.4925,-3.4773,-3.4773,-3.428,-3.3838,-3.3601,-3.3125,-3.2506,-3.1797,-3.1484,-3.1128,-3.0623,-3.0352,-3.0216,-3.0216,-3.0216,-3.0216,-3.0216,-2.978,-2.9389,-2.9114,-2.839,-2.7862,-2.761,-2.761,-2.7483,-2.7201,-2.719,-2.719,-2.719,-2.719,-2.719,-2.719,-2.719,-2.719,0.0,0.0,0.0,0.0,0.0,0.0,0.0,-3.0678,-3.1008,-3.1203,-3.1942,-3.2717,-3.3282,-3.3847,-3.4361,-3.4768,-3.5307,-3.5696,-3.5809,-3.6621,-3.7262,-3.7487,-3.7513,-3.7688,-3.8128,-3.8693,-3.9082,-3.9082,-3.9446,-3.9697,-3.9697,-4.0287,-4.0681,-4.0681,-4.0681,-4.0971,-4.1544,-4.1693,-4.2088,-4.2784,-4.3566,-4.3912,-4.3912,-4.3912,-4.3865,-4.3695,-4.211,-4.1353,-4.1034,-3.869,-3.7134,-3.6174,-3.5672,-3.5704,-3.6073,-3.6073,-3.574,-3.5271,-3.5271,-3.4932,-3.4494,-3.4494,-3.458,-3.4628,-3.4543,-3.464,-3.4884,-3.5223,-3.5368,-3.556,-3.6133,-3.6216,-3.6181,-3.5847,-3.5752,-3.5608,-3.5066,-3.4978,-3.4922,-3.4827,-3.4328,-3.3891,-3.3798,-3.3051,-3.2249,-3.1756,-3.1231,-3.0859,-3.0769,-3.0442,-3.0216,-3.0216,-3.0216,-3.0216,-3.0216,-2.978,-2.9504,-2.9504,-2.8999,-2.8528,-2.8138,-2.8115,-2.7931,-2.7477,-2.7477,-2.7477,-2.7477,-2.7477,-2.7477,-2.7477,-2.7477,-2.7419,-2.719,-2.7871,-2.8822,-2.9774,-3.0007,-3.0216,0.0,-3.139,-3.1759,-3.2652,-3.3332,-3.3884,-3.4437,-3.4944,-3.5332,-3.5395,-3.5918,-3.6493,-3.6923,-3.7111,-3.7563,-3.8605,-3.873,-3.8705,-3.8768,-3.927,-3.9597,-3.9597,-3.9659,-3.9697,-3.9697,-3.98,-3.9839,-3.9839,-3.9839,-3.989,-3.9942,-4.0681,-4.1084,-4.1185,-4.1891,-4.2271,-4.2271,-4.2271,-4.2012,-4.1479,-4.0135,-3.9128,-3.8412,-3.7098,-3.6249,-3.5668,-3.5089,-3.492,-3.4969,-3.4969,-3.4628,-3.4188,-3.4188,-3.3854,-3.3481,-3.3481,-3.3755,-3.3991,-3.3568,-3.4101,-3.4726,-3.4286,-3.4531,-3.503,-3.556,-3.5716,-3.58,-3.6216,-3.631,-3.6168,-3.562,-3.5523,-3.5378,-3.4884,-3.4354,-3.3851,-3.3458,-3.2889,-3.2323,-3.1793,-3.1231,-3.0769,-3.0306,-3.0216,-3.0216,-3.0216,-3.0216,-3.0216,-3.0216,-2.978,-2.9504,-2.9504,-2.8999,-2.8677,-2.862,-2.862,-2.8586,-2.854,-2.854,-2.854,-2.854,-2.854,-2.854,-2.854,-2.854,-2.831,-2.8692,-2.9207,-2.9827,-3.1031,-3.1568,-3.2017,-3.2694,-3.3152,-3.3514,-3.3941,-3.4223,-3.455,-3.5056,-3.5345,-3.5596,0.0,-3.6267,-3.6606,-3.7111,-3.7462,-3.7965,-3.8781,-3.9208,-3.9346,-3.9346,-3.9559,-3.9697,-3.9697,-3.9697,-3.9697,-3.9697,-3.9697,-3.9697,-3.9697,-3.9697,-3.9697,-3.9697,-4.0491,-4.0883,-4.0883,-4.1644,-4.1976,-4.1976,-4.168,-4.0824,-3.9525,-3.8705,-3.7862,-3.7095,-3.6271,-3.5621,-3.5132,-3.4548,-3.415,-3.4014,-3.458,-3.4482,-3.3991,-3.3991,-3.3706,-3.3281,-3.3281,-3.3431,-3.3568,-3.3381,-3.358,-3.3953,-3.3991,-3.4139,-3.4433,-3.4981,-3.5126,-3.5126,-3.5005,-3.5005,-3.486,-3.4347,-3.4494,-3.458,-3.4384,-3.4157,-3.3966,-3.376,-3.3046,-3.2435,-3.2226,-3.1762,-3.124,-3.0721,-3.0686,-3.056,-3.025,-3.0216,-3.0216,-3.0216,-3.0032,-2.9917,-2.9917,-2.9711,-2.9458,-2.9183,-2.9171,-2.9022,-2.8712,-2.87,-2.87,-2.87,-2.87,-2.87,-2.87,-2.87,-2.8758,-2.9607,-3.024,-3.081,-3.1976,-3.2934,-3.3633,-3.4035,-3.4437,-3.4718,-3.4868,-3.4906,-3.5069,-3.5667,-3.5768,-3.5893,-3.6342,-3.6405,-3.6656,-3.7312,-3.7947,-3.8514,-3.9057,-3.9651,-3.9942,-3.9749,-3.9697,-3.9697,-3.9697,-3.9697,-3.9697,-3.9697,-3.9697,-3.9697,-3.9697,-3.9697,-3.9697,-3.9697,-4.0287,-4.0593,-4.058,-4.0952,-4.106,-4.0898,-4.0067,-3.9007,-3.7824,-3.7178,-3.6594,-3.6006,-3.5423,-3.4884,-3.4442,-3.3957,-3.3618,-3.3381,-3.4113,-3.415,-3.3805,-3.3805,-3.3568,-3.3281,-3.3281,-3.3281,-3.3281,-3.3281,-3.3281,-3.3381,-3.3706,-3.3805,-3.3953,-3.4433,-3.458,-3.4531,-3.4286,-3.4237,-3.4089,-3.3618,-3.3755,-3.3941,-3.3843,-3.3805,-3.3805,-3.3805,-3.3195,-3.2707,-3.2707,-3.2408,-3.1949,-3.1295,-3.1226,-3.1077,-3.0686,-3.0514,-3.0434,-3.0434,-3.0308,-3.0216,-3.0216,-3.0216,-3.0055,-2.9711,-2.9699,-2.9515,-2.9125,-2.9114,-2.9114,-2.9114,-2.9114,-2.9114,-2.9114,-2.9114,-2.9332,-2.9376,-3.057,-3.1789,-3.2364,-3.3576,-3.4675,-3.4655,-3.4668,-3.4831,-3.537,-3.547,-3.5633,-3.6279,-3.638,-3.6392,-3.6405,-3.6405,-3.6782,-3.7826,-3.8664,-3.9282,-3.9637,-4.0377,-4.0542,0.0,-3.9697,-3.9697,-3.9697,-3.9697,-3.9697,-3.9697,-3.9697,-3.9697,-3.9697,-3.9697,-3.9697,-3.9697,-3.9749,-3.9749,-3.9736,-3.9246,-3.8729,-3.8183,-3.6521,-3.6077,-3.6524,-3.5357,-3.4923,-3.4913,-3.4321,-3.3779,-3.3354,-3.3342,-3.3331,-3.3281,-3.3331,-3.3331,-3.3331,-3.3331,-3.3331,-3.3281,-3.3281,-3.3281,-3.3281,-3.3281,-3.3281,-3.3281,-3.3331,-3.3331,-3.3431,-3.3892,-3.404,-3.4139,-3.4677,-3.4787,-3.4628,-3.4089,-3.3991,-3.3854,-3.3431,-3.3331,-3.3331,-3.3331,-3.3319,-3.3258,-3.3258,-3.3247,-3.2868,-3.1798,-3.1731,-3.179,-3.1767,-3.1283,-3.0996,-3.0996,-3.0514,-3.0216,-3.0216,-3.0216,-3.0204,-3.0193,-3.0193,-3.0181,-3.017,-3.017,-3.017,-3.017,-3.017,-3.017,-3.017,-3.017,-3.0181,-3.0658,-3.1596,-3.24,-3.325,-3.435,-3.5219,-3.5219,-3.5542,-3.5855,-3.6044,-3.6094,-3.6144,-3.6367,-3.6405,-3.6546,-3.7049,-3.7142,-3.7668,-3.9329,-3.9772,-4.0062,-4.0451,-4.0744,0.0,0.0,0.0,0.0,-3.9697,-3.9697,-3.9697,-3.9697,-3.9697,-3.9697,-3.9697,-3.9697,-3.9697,-3.9697,-3.9333,-3.9145,-3.9145,-3.8266,-3.7539,-3.6906,-3.5678,-3.5035,-3.4785,-3.4127,-3.3795,-3.3835,-3.3623,-3.343,-3.3281,-3.3281,-3.3281,-3.3281,-3.3281,-3.3281,-3.3281,-3.3281,-3.3281,-3.3281,-3.3281,-3.3281,-3.3281,-3.3281,-3.3281,-3.3281,-3.3281,-3.3281,-3.3331,-3.3469,-3.3519,-3.3568,-3.3767,-3.3817,-3.3767,-3.3568,-3.3519,-3.3469,-3.3331,-3.3281,-3.3281,-3.3281,-3.3281,-3.3281,-3.3281,-3.2982,-3.2627,-3.2271,-3.1961,-3.1813,-3.1813,-3.1616,-3.1502,-3.149,-3.1341,-3.11,-3.0767,-3.0744,-3.0583,-3.0227,-3.0216,-3.0216,-3.0216,-3.0216,-3.0216,-3.0216,-3.0216,-3.0216,-3.0216,-3.0216,-3.0216,-3.1182,-3.2087,-3.2999,-3.3754,-3.4767,-3.5609,-3.5796,-3.5956,-3.6069,-3.6069,-3.5918,-3.583,-3.6031,-3.6069,-3.6319,-3.701,-3.7095,-3.7761,-3.9649,-4.0139,-4.059,-4.1227,-4.1272,-4.0971,0.0,0.0,0.0,-3.9697,-3.9697,-3.9697,-3.9697,-3.9697,-3.9697,-3.9697,-3.9496,-3.9396,-3.9396,-3.8843,-3.8404,-3.8004,-3.7095,-3.6277,-3.552,-3.471,-3.4117,-3.3729,-3.3419,-3.3281,-3.3281,-3.3281,-3.3281,-3.3281,-3.3281,-3.3281,-3.3281,-3.3281,-3.3281,-3.3281,-3.3281,-3.3281,-3.3281,-3.3281,-3.3281,-3.3281,-3.3281,-3.3281,-3.3281,-3.3281,-3.3281,-3.3281,-3.3281,-3.3281,-3.3281,-3.3281,-3.3281,-3.3281,-3.3281,-3.3281,-3.3281,-3.3281,-3.3281,-3.3281,-3.3281,-3.3281,-3.3281,-3.3281,-3.2994,-3.2776,-3.2776,-3.25,-3.2354,-3.2354,-3.2181,-3.2018,-3.2007,-3.1857,-3.1628,-3.1295,-3.1283,-3.1054,-3.0526,-3.0503,-3.0411,-3.0216,-3.0216,-3.0216,-3.0216,-3.0216,-3.0216,-3.0216,-3.0216,-3.0216,-3.1042,-3.2134,-3.3409,-3.3959,-3.4846,-3.5752,-3.6238,-3.5871,-3.5495,-3.5458,-3.5044,-3.4831,-3.5357,-3.547,-3.5705,-3.6373,-3.6521,-3.7197,-3.9038,-4.0031,-4.091,0.0,0.0,0.0,0.0,0.0,0.0,-3.9697,0.0,-3.9697,-3.9697,-3.9672,-3.9647,-3.9647,-3.912,-3.8831,-3.8831,-3.8253,-3.743,-3.6333,-3.5817,-3.502,-3.3991,-3.3519,-3.3281,-3.3281,-3.3281,-3.3281,-3.3281,-3.3281,-3.3281,-3.3281,-3.3281,-3.3281,-3.3281,-3.3281,-3.3281,-3.3281,-3.3281,-3.3281,-3.3281,-3.3281,-3.3281,-3.3281,-3.3281,-3.3281,-3.3281,-3.3281,-3.3281,-3.3281,-3.3281,-3.3281,-3.3281,-3.3281,-3.3281,-3.3281,-3.3281,-3.3281,-3.3281,-3.3281,-3.3281,-3.3281,-3.3281,-3.3281,-3.3281,-3.3281,-3.3281,-3.3281,-3.3281,-3.3281,-3.3281,-3.3281,-3.2822,-3.2523,-3.2523,-3.2158,-3.1823,-3.1777,-3.1789,-3.157,-3.1031,-3.1019,-3.0767,-3.0227,-3.0216,-3.0216,-3.0216,-3.0216,-3.0216,-3.0216,-3.0216,-3.0216,-3.1479,-3.2449,-3.3407,-3.3881,-3.4824,-3.551,-3.5246,-3.5376,-3.5382,-3.4969,-3.4529,-3.433,-3.481,-3.5377,-3.6126,-3.7219,-3.814,0.0,-4.0766,-4.1605,0.0,-4.2229,0.0,-4.2395,-4.1034,-4.0681,0.0,0.0,-3.9697,-3.9697,-3.9697,-3.9308,-3.9082,-3.9082,-3.853,-3.8228,-3.8228,-3.7676,-3.6882,-3.5805,-3.5272,-3.4662,-3.3991,-3.3519,-3.3281,-3.3281,-3.3281,-3.3281,-3.3281,-3.3281,-3.3281,-3.3281,-3.3281,-3.3281,-3.3281,-3.3281,-3.3281,-3.3281,-3.3281,-3.3281,-3.3281,-3.3281,-3.3281,-3.3281,-3.3281,-3.3281,-3.3281,-3.3281,-3.3281,-3.3281,-3.3281,-3.3281,-3.3281,-3.3281,-3.3281,-3.3281,-3.3281,-3.3281,-3.3281,-3.3281,-3.3281,-3.3281,-3.3281,-3.3281,-3.3281,-3.3281,-3.3281,-3.3281,-3.3281,-3.3281,-3.3281,-3.3281,-3.3166,-3.3086,-3.3086,-3.2971,-3.273,-3.2317,-3.2305,-3.1915,-3.1054,-3.1019,-3.0767,-3.0227,-3.0216,-3.0216,-3.0216,-3.0216,-3.0216,-3.0216,-3.0216,-3.0216,-3.1949,-3.2686,-3.3382,-3.3871,-3.4315,-3.4594,-3.4494,-3.4335,-3.4089,-3.3781,-3.3342,-3.3199,-3.3896,-3.4652,-3.5622,0.0,0.0,0.0,-4.0888,-4.1702,-4.2282,0.0,-4.3052,0.0,-4.1508,-4.1071,-4.049,0.0,-3.9333,-3.9333,-3.9333,-3.8793,-3.8492,-3.8492,-3.7939,-3.7525,-3.7287,-3.6973,-3.6433,-3.5572,-3.5078,-3.4531,-3.3991,-3.3519,-3.3281,-3.3281,0.0,-3.3281,-3.3281,-3.3281,-3.3281,-3.3281,-3.3281,-3.3281,-3.3281,-3.3281,-3.3281,-3.3281,-3.3281,-3.3281,-3.3281,-3.3281,-3.3281,-3.3281,-3.3281,-3.3281,-3.3281,-3.3281,-3.3281,-3.3281,-3.3281,-3.3281,-3.3281,-3.3281,-3.3281,-3.3281,-3.3281,-3.3281,-3.3281,-3.3281,-3.3281,-3.3281,-3.3281,-3.3281,-3.3281,-3.3281,-3.3281,-3.3281,-3.3281,-3.3281,-3.3281,-3.3281,-3.3281,-3.3281,-3.3281,-3.3281,-3.3155,-3.2856,-3.2615,-3.2144,-3.1375,-3.1134,-3.0767,-3.0227,-3.0216,-3.0216,-3.0216,-3.0216,-3.0216,-3.0216,-3.0216,-3.0216,-3.2351,-3.2879,-3.3358,-3.3712,-3.3593,-3.3469,-3.3707,-3.315,-3.2566,-3.2403,-3.1985,-3.1882,-3.2921,-3.3665,-3.4634,-3.6269,0.0,-3.8401,-4.0155,-4.1058,-4.1933,-4.3083,-4.323,-4.2876,-4.2008,-4.135,-4.0383,-3.9045,-3.8781,-3.873,-3.8806,-3.8216,-3.7864,-3.7789,-3.7324,-3.6895,-3.6417,-3.631,-3.6026,-3.5464,-3.4932,-3.4433,-3.3892,-3.3469,-3.3281,-3.3281,-3.3281,0.0,-3.3281,-3.3281,-3.3281,-3.3281,-3.3281,-3.3281,-3.3281,-3.3281,-3.3281,-3.3281,-3.3281,-3.3281,-3.3281,-3.3281,-3.3281,-3.3281,-3.3281,-3.3281,-3.3281,-3.3281,-3.3281,-3.3281,-3.3281,-3.3281,-3.3281,-3.3281,-3.3281,-3.3281,-3.3281,-3.3281,-3.3281,-3.3281,-3.3281,-3.3281,-3.3281,-3.3281,-3.3281,-3.3281,-3.3281,-3.3281,-3.3281,-3.3281,-3.3281,-3.3281,-3.3281,-3.3281,-3.3281,-3.3281,-3.3258,-3.3178,-3.2741,-3.2236,-3.1744,-3.1249,-3.0767,-3.0227,-3.0216,-3.0216,-3.0216,-3.0216,-3.0216,-3.0216,-3.0216,-3.0216,-3.2351,-3.2879,-3.3227,-3.2828,-3.3323,-3.3565,-3.2369,-3.262,-3.2849,-3.2023,-3.141,-3.133,-3.2367,-3.3164,-3.4235,-3.5822,-3.7504,-3.8912,-3.9801,-4.0879,-4.1679,0.0,-4.2814,-4.2921,-4.1655,-4.1279,0.0,0.0,-3.8068,-3.7676,-3.8128,-3.7626,-3.7123,-3.6707,-3.6606,-3.6505,-3.6405,-3.5943,-3.5464,-3.492,-3.4384,-3.3904,-3.3431,-3.3331,-3.3281,-3.3281,-3.3281,0.0,-3.3281,-3.3281,-3.3281,-3.3281,-3.3281,-3.3281,-3.3281,-3.3281,-3.3281,-3.3281,-3.3281,-3.3281,-3.3281,-3.3281,-3.3281,-3.3281,-3.3281,-3.3281,-3.3281,-3.3281,-3.3281,-3.3281,-3.3281,-3.3281,-3.3281,-3.3281,-3.3281,-3.3281,-3.3281,-3.3281,-3.3281,-3.3281,-3.3281,-3.3281,-3.3281,-3.3281,-3.3281,-3.3281,-3.3281,-3.3281,-3.3281,-3.3281,-3.3281,-3.3281,-3.3281,-3.3281,-3.3281,-3.3281,-3.3097,-3.265,-3.2535,-3.2087,-3.118,-3.1065,-3.0767,-3.0227,-3.0216,-3.0216,-3.0216,-3.0216,-3.0216,-3.0216,-3.0216,-3.0216,-3.2351,-3.2673,-3.2799,-3.2546,-3.2483,-3.2254,-3.1518,-3.1501,-3.1501,-3.1029,-3.0713,-3.0925,-3.2251,-3.3077,-3.4234,-3.6137,-3.7524,-3.8685,-3.9648,-4.0561,-4.1264,-4.1573,-4.2444,-4.2621,-4.1512,-4.0972,-4.0182,-3.8795,-3.7759,-3.7299,-3.7563,-3.7109,-3.6681,-3.6417,-3.6405,-3.6405,-3.6405,-3.5847,-3.5476,-3.5223,-3.4384,-3.3892,-3.3656,-3.3419,-3.3281,-3.3281,-3.3281,0.0,-3.3281,-3.3281,-3.3281,-3.3281,-3.3281,-3.3281,-3.3281,-3.3281,-3.3281,-3.3281,-3.3281,-3.3281,-3.3281,-3.3281,-3.3281,-3.3281,-3.3281,-3.3281,-3.3281,-3.3281,-3.3281,-3.3281,-3.3281,-3.3281,-3.3281,-3.3281,-3.3281,-3.3281,-3.3281,-3.3281,-3.3281,-3.3281,-3.3281,-3.3281,-3.3281,-3.3281,-3.3189,-3.2914,-3.2868,-3.2776,-3.2523,-3.25,-3.2695,-3.3224,-3.3281,-3.3166,-3.2891,-3.2868,-3.265,-3.2193,-3.1857,-3.1502,-3.1031,-3.0744,-3.048,-3.0227,-3.0216,-3.0216,-3.0216,-3.0216,-3.0216,-3.0216,-3.0216,-3.0216,-3.2156,-3.2328,-3.2305,-3.2202,-3.1724,-3.1206,-3.0916,-3.0652,-3.0442,-3.0261,-3.0261,-3.0746,-3.1996,-3.2955,-3.4144,-3.6047,-3.7096,-3.8123,-3.9423,-4.0112,-4.073,-4.1348,-4.198,0.0,-4.1341,-4.0553,0.0,-3.8434,-3.7524,0.0,-3.701,-3.6644,-3.6405,-3.6405,-3.6405,-3.6405,-3.6405,-3.5847,-3.5512,-3.5428,-3.4433,-3.3941,-3.3854,-3.3481,-3.3281,-3.3281,-3.3281,0.0,0.0,-3.3281,-3.3281,-3.3281,-3.3281,-3.3281,-3.3281,-3.3281,-3.3281,-3.3281,-3.3281,-3.3281,-3.3281,-3.3281,-3.3281,-3.3281,-3.3281,-3.3281,-3.3281,-3.3281,-3.3281,-3.3281,-3.3281,-3.3281,-3.3281,-3.3281,-3.3281,-3.3281,-3.3281,-3.3201,-3.3109,-3.3109,-3.3028,-3.296,-3.296,-3.296,-3.281,-3.2397,-3.2328,-3.2202,-3.1871,-3.1813,-3.2124,-3.2868,-3.296,-3.2787,-3.2363,-3.2328,-3.2121,-3.1639,-3.1237,-3.0962,-3.0847,-3.0434,-3.0125,-2.9988,-3.0125,-3.0125,-2.9943,-3.0125,-3.0216,-3.0216,-3.0216,-3.0216,-3.1618,-3.1882,-3.1779,-3.1272,-3.1715,-3.1926,-3.0582,-3.0927,-3.1294,-3.0397,-3.0532,-3.0904,-3.1026,-3.2289,-3.3564,-3.4413,-3.5925,-3.7454,-3.8806,-3.9521,-4.0097,-4.0702,0.0,0.0,-4.0826,-4.0051,-3.9255,-3.8538,-3.724,0.0,-3.648,-3.643,-3.6405,-3.6405,-3.6405,-3.6405,-3.6405,-3.5847,-3.5368,-3.4884,-3.4286,-3.3805,-3.3381,-3.3331,-3.3281,-3.3281,-3.3281,0.0,0.0,-3.3281,-3.3281,-3.3281,-3.3281,-3.3281,-3.3281,-3.3281,-3.3281,-3.3281,-3.3281,-3.3281,-3.3281,-3.3281,-3.3281,-3.3281,-3.3281,-3.3281,-3.3281,-3.3281,-3.3281,-3.3281,-3.3281,-3.3281,-3.3281,-3.3281,-3.3281,-3.3281,-3.3281,-3.2902,-3.2558,-3.2558,-3.2202,-3.1951,-3.1951,-3.1951,-3.194,-3.1882,-3.1882,-3.1871,-3.1825,-3.1813,-3.1848,-3.1951,-3.188,-3.1869,-3.1882,-3.1882,-3.1616,-3.1111,-3.1042,-3.0801,-3.0308,-3.025,-2.9897,-2.922,-2.9852,-2.9852,-2.922,-2.9852,-3.0216,-3.0216,-3.0216,-3.0216,-3.0641,-3.0618,-3.0422,-3.0514,-3.058,-3.0481,-2.9915,-3.0324,-3.0668,-3.0261,-3.0578,-3.1116,-3.1789,-3.2667,-3.3733,-3.5087,-3.5913,-3.6821,-3.812,-3.8833,-3.9493,-4.0083,-4.0688,-4.0969,0.0,0.0,-3.9105,-3.7959,0.0,0.0,-3.6405,-3.6405,-3.6405,-3.6405,-3.6405,-3.6405,-3.6405,-3.556,-3.503,-3.4775,-3.3953,-3.3469,-3.3281,-3.3281,-3.3281,-3.3281,-3.3281,0.0,0.0,-3.3281,-3.3281,-3.3281,-3.3281,-3.3281,-3.3281,-3.3281,-3.3281,-3.3281,-3.3281,-3.3281,-3.3281,-3.3281,-3.3281,-3.3281,-3.3281,-3.3281,-3.3281,-3.3281,-3.3281,-3.3281,-3.3281,-3.3281,-3.3281,-3.3281,-3.304,-3.2799,-3.2799,-3.2408,-3.2101,-3.2101,-3.1951,-3.1813,-3.1813,-3.1813,-3.171,-3.1364,-3.1318,-3.1203,-3.087,-3.0836,-3.0836,-3.0836,-3.1364,-3.1616,-3.1341,-3.1318,-3.1088,-3.056,-3.0537,-3.0434,-3.0227,-3.0216,-3.008,-2.976,-3.0034,-2.9852,-2.9082,-2.9405,-2.9531,-2.9531,-2.9531,-2.976,-2.9642,-2.9604,-2.9563,-2.9866,-2.9929,-2.9834,-2.9702,-3.0184,-3.0531,-3.0246,-3.0669,-3.1229,-3.1718,-3.2491,-3.3411,-3.4553,-3.5316,-3.6136,-3.7223,-3.826,-3.9127,-3.9718,0.0,-4.0702,0.0,-3.9837,-3.8792,-3.7592,0.0,0.0,-3.6405,-3.6405,-3.6405,-3.6405,-3.6405,-3.6405,-3.6405,-3.5644,-3.5114,-3.4775,-3.4101,-3.358,-3.3281,-3.3281,-3.3281,-3.3281,-3.3281,0.0,0.0,-3.3281,-3.3281,-3.3281,-3.3281,-3.3281,-3.3281,-3.3281,-3.3281,-3.3281,-3.3281,-3.3281,-3.3281,-3.3281,-3.3281,-3.3281,-3.3281,-3.3281,-3.3281,-3.3281,-3.3281,-3.3281,-3.3281,-3.3166,-3.304,-3.304,-3.265,-3.2271,-3.2271,-3.1892,-3.1536,-3.1536,-3.1421,-3.1306,-3.1306,-3.1306,-3.1192,-3.0836,-3.0778,-3.0641,-3.0262,-3.0216,-3.0216,-3.0216,-3.0812,-3.1099,-3.0801,-3.0547,-3.0387,-3.0193,-2.9795,-2.9658,-2.9852,-2.9669,-2.9428,-2.9233,-2.9428,-2.9198,-2.8466,-2.8653,-2.8746,-2.8746,-2.8746,-2.9071,-2.8586,-2.9056,-2.9397,-2.9409,-3.0117,-3.0671,-3.0217,-3.0937,-3.1384,-3.0334,-3.0824,-3.118,-3.02,-3.1333,-3.2275,-3.1833,-3.3701,-3.5439,-3.6042,-3.7712,-3.9127,0.0,0.0,-4.0702,-4.0702,-3.937,-3.8251,-3.7546,0.0,0.0,-3.6405,-3.6405,-3.6405,-3.6405,-3.6405,-3.6405,-3.6405,-3.6405,-3.5835,-3.4775,-3.4775,-3.4249,-3.3281,-3.3281,-3.3281,0.0,0.0,0.0,0.0,-3.3281,-3.3281,-3.3281,-3.3281,-3.3281,-3.3281,-3.3281,-3.3281,-3.3281,-3.3281,-3.3281,-3.3281,-3.3281,-3.3281,-3.3281,-3.3281,-3.3281,-3.3281,-3.3281,-3.3281,-3.3281,-3.3281,-3.2891,-3.2489,-3.2489,-3.2121,-3.1825,-3.1825,-3.1375,-3.1019,-3.1019,-3.0595,-3.0227,-3.0227,-3.0227,-3.0227,-3.0227,-3.0227,-3.0227,-3.0216,-3.0216,-3.0216,-3.0216,-3.0227,-3.0227,-3.0227,-2.9542,-2.9451,-3.017,-2.8828,-2.8373,-2.9082,-2.842,-2.7657,-2.6955,-2.7657,-2.7668,-2.6897,-2.7668,-2.7987,-2.7987,-2.7987,-2.8045,-2.8435,-2.8497,-2.8527,-2.9106,-2.9475,-2.9678,-2.9511,-3.0055,-3.0421,-3.0083,-3.0525,-3.0866,-3.0516,-3.1182,-3.182,-3.2142,-3.3489,-3.475,-3.5388,0.0,0.0,-3.9169,-4.0069,-4.0702,0.0,0.0,-3.8419,0.0,0.0,0.0,-3.6405,-3.6405,-3.6405,-3.6405,-3.6405,-3.6405,-3.6405,-3.6038,-3.5512,-3.4775,-3.4433,-3.3904,-3.3281,-3.3281,-3.3281,0.0,0.0,0.0,0.0,-3.3281,-3.3281,-3.3281,-3.3281,-3.3281,-3.3281,-3.3281,-3.3281,-3.3281,-3.3281,-3.3281,-3.3281,-3.3281,-3.3281,-3.3281,-3.3281,-3.3281,-3.3281,-3.3281,-3.3028,-3.2741,-3.2741,-3.2363,-3.2043,-3.2043,-3.1616,-3.1249,-3.1249,-3.0836,-3.0468,-3.0468,-3.0331,-3.0216,-3.0216,-3.0216,-3.0216,-3.0216,-3.0216,-3.0216,-3.0216,-3.0216,-3.0216,-3.0216,-2.976,-2.9451,-2.9451,-2.922,-2.8978,-2.8689,-2.8269,-2.8081,-2.8326,-2.8128,-2.7893,-2.7668,-2.7904,-2.7657,-2.6907,-2.7136,-2.7241,-2.7278,-2.7762,-2.7998,-2.842,-2.8481,-2.8463,-2.9016,-2.9326,-2.9472,-2.9472,-2.9883,-3.021,-3.0005,-3.0351,-3.0601,-3.0391,-3.0583,-3.0943,-3.1367,-3.2804,-3.4031,0.0,0.0,0.0,-3.9535,0.0,0.0,0.0,-3.9604,0.0,0.0,0.0,0.0,-3.6815,-3.6546,-3.6405,-3.6405,-3.6405,-3.6405,-3.6405,-3.6086,-3.5656,-3.5078,-3.458,-3.404,-3.3568,-3.3381,-3.3281,0.0,0.0,0.0,0.0,-3.3281,-3.3281,-3.3281,-3.3281,-3.3281,-3.3281,-3.3281,-3.3281,-3.3281,-3.3281,-3.3281,-3.3281,-3.3281,-3.3143,-3.2982,-3.2982,-3.2982,-3.2982,-3.2982,-3.2615,-3.2213,-3.2202,-3.1846,-3.1479,-3.1479,-3.1088,-3.0709,-3.0709,-3.0445,-3.0216,-3.0216,-3.0216,-3.0216,-3.0216,-3.0216,-3.0216,-3.0216,-3.0216,-3.0216,-3.0216,-3.0216,-3.0216,-3.0216,-2.9806,-2.9301,-2.8746,-2.842,-2.8186,-2.7987,-2.7431,-2.7289,-2.7563,-2.7289,-2.7146,-2.7146,-2.7146,-2.6907,-2.6438,-2.6438,-2.6438,-2.6486,-2.6907,-2.7146,0.0,-2.8828,-2.9091,-2.9131,-2.9512,-2.988,-2.988,-3.0274,0.0,-2.9991,-3.0226,-3.0407,-2.988,-2.9792,-2.9804,-2.9842,-3.1837,-3.3417,0.0,-3.6587,0.0,0.0,-4.0702,0.0,-4.0702,0.0,0.0,0.0,0.0,0.0,-3.75,-3.6815,-3.6405,-3.6405,-3.6405,-3.6405,-3.6405,-3.6405,-3.6133,-3.5524,-3.503,-3.4482,-3.3941,-3.3519,-3.3281,0.0,0.0,0.0,0.0,-3.3281,-3.3281,-3.3281,-3.3281,-3.3281,-3.3281,-3.3281,-3.3281,-3.3281,-3.3281,-3.3281,-3.3281,-3.3247,-3.2891,-3.2477,-3.2443,-3.2431,-3.2431,-3.2431,-3.2087,-3.1708,-3.1685,-3.1318,-3.0962,-3.0962,-3.0583,-3.0216,-3.0216,-3.0216,-3.0216,-3.0216,-3.0216,-3.0216,-3.0216,-3.0216,-3.0216,-3.0216,-3.0216,-3.017,-3.0125,-3.0125,-3.008,-3.0034,-2.9988,-2.9428,-2.8034,-2.7326,-2.7231,-2.7809,-2.6486,-2.6024,-2.6764,-2.611,-2.5693,-2.5693,-2.5693,-2.5693,-2.5693,-2.5693,-2.5693,-2.5693,-2.5693,-2.5693,-2.9468,0.0,-2.9182,-2.9546,-2.9724,-2.9824,0.0,-2.9924,-2.9974,-2.9849,-2.9902,-2.9942,-2.9817,-2.9792,-2.993,-3.0357,-3.2098,-3.3525,-3.3926,0.0,0.0,-4.0561,-4.0702,-4.0702,-4.0702,0.0,0.0,0.0,0.0,-3.75,-3.75,-3.6815,-3.6405,-3.6405,-3.6405,-3.6405,-3.6405,-3.6405,-3.593,-3.4981,-3.4872,-3.4347,-3.3469,-3.3331,-3.3281,0.0,0.0,0.0,-3.3281,-3.3281,-3.3281,-3.3281,-3.3281,-3.3281,-3.3281,-3.3281,-3.3281,-3.3281,-3.3281,-3.3281,-3.3212,-3.2799,-3.2581,-3.2408,-3.2041,-3.1938,-3.1938,-3.1938,-3.157,-3.1192,-3.1192,-3.0801,-3.0399,-3.0399,-3.0308,-3.0216,-3.0216,-3.0216,-3.0216,-3.0216,-3.0216,-3.0216,-3.0216,-3.0216,-3.0216,-3.0216,-3.0216,-2.9988,-2.9439,-2.9359,-2.9117,-2.8595,-2.8023,-2.7563,-2.7194,-2.7526,-2.7289,-2.6304,-2.5878,-2.5781,-2.5965,-2.5781,-2.5693,-2.5693,-2.5693,-2.5693,-2.5693,-2.5693,-2.5693,-2.5693,-2.5693,-2.5693,-2.9792,-2.9624,-2.9468,-2.9753,-2.9792,-2.9792,-2.9792,-2.9792,-2.9792,-2.9792,-2.9792,-2.9792,-2.9792,-2.9998,-3.024,-3.0559,-3.2424,0.0,0.0,0.0,-3.9634,-4.0589,-4.0702,-4.0702,0.0,0.0,0.0,0.0,0.0,-3.7933,-3.7933,-3.6956,-3.6405,-3.6405,-3.6405,-3.6405,-3.6405,-3.6181,-3.5752,-3.5175,-3.4677,-3.4139,-3.3607,-3.3381,-3.3281,0.0,0.0,0.0,-3.3281,-3.3281,-3.3281,-3.3281,-3.3281,-3.3281,-3.3281,-3.3281,-3.3281,-3.3281,-3.3281,-3.312,-3.2833,-3.2317,-3.1995,-3.1754,-3.1502,-3.1249,-3.1111,-3.1352,-3.1054,-3.0652,-3.0652,-3.0434,-3.0216,-3.0216,-3.0216,-3.0216,-3.0216,-3.0216,-3.0216,-3.0216,-3.0216,-3.0216,-3.0216,-3.0216,-3.0216,-3.0216,-2.9897,-2.9531,-2.9174,-2.8792,-2.842,-2.8034,-2.7657,-2.7289,-2.6955,-2.7289,-2.6955,-2.5781,-2.5693,-2.5693,-2.5693,-2.5693,-2.5693,-2.5693,-2.5693,-2.5693,-2.5693,-2.5693,-2.5693,-2.5693,-2.5693,-2.5693,-2.9792,-2.9792,-2.9792,-2.9792,-2.9792,-2.9792,-2.9792,-2.9792,-2.9792,-2.9792,-2.9792,-2.983,-2.9895,-3.0241,0.0,0.0,0.0,0.0,-3.8471,-3.9352,-3.9901,-4.0617,-4.0702,0.0,0.0,0.0,0.0,0.0,0.0,-3.8599,-3.8509,-3.7256,-3.6499,-3.6405,-3.6405,-3.6405,-3.6405,-3.5943,-3.5668,-3.5476,-3.458,-3.404,-3.3892,-3.3469,-3.3281,-3.3281,0.0,0.0,-3.3281,-3.3281,-3.3281,-3.3281,-3.3281,-3.3281,-3.3281,-3.3281,-3.3235,-3.3155,-3.3074,-3.2753,-3.2294,-3.1812,-3.1364,-3.0996,-3.0916,-3.0583,-3.0308,-3.0767,-3.056,-3.0216,-3.0216,-3.0216,-3.0216,-3.0216,-3.0216,-3.0216,-3.0216,-3.0216,-3.0216,-3.0216,-3.0216,-3.0216,-3.0216,-3.0125,-3.0034,-3.0034,-2.9393,-2.8885,-2.8792,-2.8233,-2.7809,-2.7668,-2.7668,-2.7384,-2.6764,-2.6716,-2.6438,-2.5732,-2.5693,-2.5693,-2.5693,-2.5693,-2.5693,-2.5693,-2.5693,-2.5693,-2.5693,-2.5693,-2.5693,-2.5693,-2.5693,-2.5693,-2.9792,-2.9792,-2.9792,-2.9792,-2.9792,-2.9792,-2.9792,-2.9792,-2.9792,-2.9792,-2.9792,-2.9921,-3.0406,-3.0165,-3.0379,0.0,0.0,-3.5818,0.0,0.0,-3.9465,-4.0561,0.0,0.0,0.0,0.0,0.0,0.0,0.0,-3.9149,-3.8554,-3.7763,-3.7049,-3.6405,-3.6405,-3.6405,-3.6405,-3.631,-3.5835,-3.4932,-3.4775,-3.4249,-3.3431,-3.3331,-3.3281,-3.3281,0.0,-3.3281,-3.3281,-3.3281,-3.3281,-3.3281,-3.3281,-3.3281,-3.3281,-3.3281,-3.2994,-3.2546,-3.2193,-3.1997,-3.1836,-3.1295,-3.1077,-3.0928,-3.048,-3.0285,-3.0227,-3.0319,-3.0285,-3.0216,-3.0216,-3.0216,-3.0216,-3.0216,-3.0216,-3.0216,-3.0216,-3.0216,-3.0216,-3.0216,-3.0216,-3.0216,-3.0216,-2.9669,-2.9266,-2.9266,-2.8653,-2.7951,-2.7326,-2.7146,-2.6812,-2.611,-2.6062,-2.6024,-2.5878,-2.5878,-2.583,-2.5684,-2.5693,-2.5693,-2.5693,-2.5693,-2.5693,-2.5693,-2.5693,-2.5693,-2.5693,-2.5693,-2.5693,-2.5693,-2.5693,-2.5693,-2.9792,-2.9998,-3.0165,-2.9856,-2.9792,-2.9792,-2.9792,-2.9792,-2.9792,-2.9792,-2.9792,-2.9869,0.0,0.0,-3.195,-3.4035,0.0,-3.6716,-3.8653,-3.9197,-3.969,0.0,0.0,0.0,0.0,0.0,0.0,0.0,0.0,0.0,-3.8554,-3.7854,-3.7142,-3.6405,-3.6405,-3.6405,-3.6405,-3.6405,-3.6026,-3.5223,-3.4628,-3.415,-3.3656,-3.3431,-3.3281,-3.3281,0.0,-3.3281,-3.3281,-3.3281,-3.3281,-3.3281,-3.3281,-3.3109,-3.2822,-3.2558,-3.2305,-3.2078,-3.1525,-3.1364,-3.1272,-3.0755,-3.0583,-3.0537,-3.0285,-3.0216,-3.0216,-3.0216,-3.0216,-3.0216,-3.0216,-3.0216,-3.0216,-3.0216,-3.0216,-3.0216,-3.0216,-3.0216,-3.0216,-3.0216,-3.0216,-3.0216,-3.0216,-2.9577,-2.9082,-2.9082,-2.8139,-2.7289,-2.6945,-2.6534,-2.611,-2.5732,-2.5693,-2.5693,-2.5693,-2.5693,-2.5693,-2.5693,-2.5693,-2.5693,-2.5693,-2.5693,-2.5693,-2.5693,-2.5693,-2.5693,-2.5693,-2.5693,-2.5693,-2.5693,-2.5693,-2.5693,-3.0152,-3.0495,-3.0733,-3.0292,-3.019,-3.0152,-3.0037,-3.0113,-3.0152,-3.0037,-3.0099,-3.02,0.0,-3.1667,0.0,-3.5363,-3.6243,-3.7207,-3.8708,-3.931,0.0,0.0,0.0,0.0,0.0,0.0,0.0,0.0,0.0,0.0,-3.8778,-3.8115,-3.7407,-3.6675,-3.6499,-3.6405,-3.6405,-3.6405,-3.6133,-3.5572,-3.4628,-3.4139,-3.3991,-3.3519,-3.3281,-3.3281,-3.3281,-3.3281,-3.3281,-3.3281,-3.3212,-3.3097,-3.3097,-3.2776,-3.2259,-3.1766,-3.1593,-3.1525,-3.1008,-3.0824,-3.0755,-3.0342,-3.0216,-3.0216,-3.0216,-3.0216,-3.0216,-3.0216,-3.0216,-3.0216,-3.0216,-3.0216,-3.0216,-3.0216,-3.0216,-3.0216,-3.0216,-3.0216,-3.0216,-3.0216,-3.0216,-3.0216,-3.0216,-2.9577,-2.9082,-2.9082,-2.7846,-2.6907,-2.6907,-2.6207,-2.5693,-2.5693,-2.5693,-2.5693,-2.5693,-2.5693,-2.5693,-2.5693,-2.5693,-2.5693,-2.5693,-2.5693,-2.5693,-2.5693,-2.5693,-2.5693,-2.5693,-2.5693,-2.5693,-2.5693,-2.5693,-2.5693,-3.122,-3.1405,-3.1442,-3.1405,-3.1368,-3.122,-3.0683,-3.0996,-3.122,-3.0645,-3.0984,-3.1358,0.0,-3.2804,-3.4073,-3.4313,-3.5303,-3.6753,-3.8611,0.0,0.0,0.0,0.0,0.0,0.0,0.0,0.0,0.0,0.0,0.0,-3.956,-3.8836,-3.8115,-3.7453,-3.6781,-3.6405,-3.6405,-3.6405,-3.6133,-3.5572,-3.503,-3.4482,-3.3991,-3.3519,-3.3281,-3.3281,-3.3281,-3.3281,-3.3281,-3.3281,-3.2994,-3.2546,-3.2546,-3.2248,-3.1802,-3.1249,-3.1065,-3.0996,-3.0457,-3.0273,-3.0262,-3.0227,-3.0216,-3.0216,-3.0216,-3.0216,-3.0216,-3.0216,-3.0216,-3.0216,-3.0216,-3.0216,-3.0216,-3.0216,-3.0216,-3.0216,-3.0216,-3.0216,-3.0216,-3.0216,-3.0216,-3.0216,-3.0216,-2.9577,-2.9082,-2.9082,-2.7846,-2.6907,-2.6907,-2.6207,-2.5693,-2.5693,-2.5693,-2.5693,-2.5693,-2.5693,-2.5693,-2.5693,-2.5693,-2.5693,-2.5693,-2.5693,-2.5693,-2.5693,-2.5693,-2.5693,-2.5693,-2.5693,-2.5693,-2.5693,-2.5693,-2.5693,-3.1442,-3.1773,-3.1955,-3.1589,-3.2078,-3.2367,-3.1392,-3.1331,-3.1535,-3.1732,-3.164,-3.1707,0.0,0.0,-3.4897,-3.5263,-3.5721,-3.652,0.0,0.0,0.0,0.0,0.0,0.0,0.0,0.0,0.0,0.0,0.0,0.0,-3.8538,-3.8128,-3.7619,-3.691,-3.6578,-3.6405,-3.6405,-3.6031,-3.5715,-3.5541,-3.5053,-3.4677,-3.4482,-3.3668,-3.3281,-3.3258,-3.2937,-3.2787,-3.2764,-3.2454,-3.2213,-3.2007,-3.1697,-3.1456,-3.1237,-3.0709,-3.0514,-3.0491,-3.0285,-3.0216,-3.0216,-3.0216,-3.0216,-3.0216,-3.0216,-3.0216,-3.0216,-3.0216,-3.0216,-3.0216,-3.0216,-3.0216,-3.0216,-3.0216,-3.0216,-3.0216,-3.0216,-3.0216,-3.0216,-3.0216,-3.0216,-3.0034,-2.9577,-2.8885,-2.8279,-2.7809,-2.6812,-2.6159,-2.6159,-2.5878,-2.5693,-2.5693,-2.5693,-2.5693,-2.5693,-2.5693,-2.5693,-2.5693,-2.5693,-2.5693,-2.5693,-2.5693,-2.5693,-2.5693,-2.5693,-2.5693,-2.5693,-2.5693,-2.5693,-2.5693,-2.5693,-2.5693,-3.1736,-3.2223,-3.2525,-3.1919,-3.2561,-3.3142,-3.2504,-3.2349,-3.2434,-3.2704,-3.2355,-3.2289,-3.3052,0.0,0.0,0.0,-3.575,0.0,0.0,0.0,0.0,0.0,0.0,0.0,0.0,0.0,0.0,0.0,0.0,0.0,0.0,-3.7853,-3.732,-3.6627,-3.6307,-3.6075,-3.5889,-3.5466,-3.5245,-3.5245,-3.4766,-3.4462,-3.427,-3.3412,-3.2946,-3.2787,-3.242,-3.2259,-3.2236,-3.188,-3.1651,-3.1479,-3.0962,-3.0767,-3.0721,-3.0354,-3.0216,-3.0216,-3.0216,-3.0216,-3.0216,-3.0216,-3.0216,-3.0216,-3.0216,-3.0216,-3.0216,-3.0216,-3.0216,-3.0216,-3.0216,-3.0216,-3.0216,-3.0216,-3.0216,-3.0216,-3.0216,-3.0216,-3.0216,-3.0216,-2.9988,-2.9669,-2.9174,-2.8466,-2.7857,-2.7326,-2.6582,-2.6062,-2.6062,-2.5878,-2.5693,-2.5693,-2.5693,-2.5693,-2.5693,-2.5693,-2.5693,-2.5693,-2.5693,-2.5693,-2.5693,-2.5693,-2.5693,-2.5693,-2.5693,-2.5693,-2.5693,-2.5693,-2.5693,-2.5693,-2.5693,-2.5693,-3.2223,-3.2824,-3.3171,-3.2561,-3.2874,-3.3445,-3.4062,-3.4203,-3.4008,-3.3431,-3.3263,-3.3171,-3.3096,-3.4134,0.0,-3.4202,-3.5141,0.0,0.0,0.0,0.0,0.0,0.0,0.0,0.0,0.0,0.0,0.0,0.0,0.0,0.0,-3.82,-3.7473,-3.6804,-3.6066,-3.5385,-3.4726,-3.4713,-3.4668,-3.4668,-3.4144,-3.3674,-3.32,-3.2711,-3.2265,-3.1813,-3.1813,-3.1802,-3.1802,-3.1731,-3.1385,-3.0962,-3.0422,-3.0216,-3.0216,-3.0216,-3.0216,-3.0216,-3.0216,-3.0216,-3.0216,-3.0216,-3.0216,-3.0216,-3.0216,-3.0216,-3.0216,-3.0216,-3.0216,-3.0216,-3.0216,-3.0216,-3.0216,-3.0216,-3.0216,-3.0216,-3.017,-3.017,-3.017,-3.017,-2.9577,-2.9082,-2.9082,-2.8466,-2.7998,-2.7987,-2.7384,-2.6907,-2.6907,-2.6207,-2.5693,-2.5693,-2.5693,-2.5693,-2.5693,-2.5693,-2.5693,-2.5693,-2.5693,-2.5693,-2.5693,-2.5693,-2.5693,-2.5693,-2.5693,-2.5693,-2.5693,-2.5693,-2.5693,-2.5693,-2.5693,-2.5693,-3.2874,-3.3171,-3.3255,-3.31,-3.3171,-3.3445,-3.4062,-3.4203,-3.4149,-3.3902,-3.4166,-3.4175,-3.3245,-3.4134,0.0,-3.4202,0.0,0.0,0.0,0.0,0.0,0.0,0.0,0.0,0.0,0.0,0.0,0.0,0.0,0.0,0.0,-3.7275,-3.6988,-3.6794,-3.6061,-3.5594,-3.543,-3.4559,-3.4148,-3.4135,-3.3614,-3.3459,-3.3686,-3.2852,-3.2394,-3.2241,-3.1528,-3.1237,-3.1215,-3.0824,-3.0583,-3.0434,-3.0285,-3.0216,-3.0216,-3.0216,-3.0216,-3.0216,-3.0216,-3.0216,-3.0216,-3.0216,-3.0216,-3.0216,-3.0216,-3.0216,-3.0216,-3.0216,-3.0216,-3.0216,-3.0216,-3.0216,-3.0216,-3.0216,-3.0216,-3.008,-2.9531,-2.9439,-2.9255,-2.8735,-2.8456,-2.8186,-2.7657,-2.7373,-2.7051,-2.6486,-2.6207,-2.6062,-2.6062,-2.583,-2.5693,-2.5693,-2.5693,-2.5693,-2.5693,-2.5693,-2.5693,-2.5693,-2.5693,-2.5693,-2.5693,-2.5693,-2.5693,-2.5693,-2.5693,-2.5693,-2.5693,-2.5693,-2.5693,-2.5693,-2.5693,-2.5693,-3.2114,-3.2417,-3.2525,-3.2309,-3.2417,-3.283,-3.3647,0.0,0.0,0.0,-3.4397,-3.4356,-3.3283,-3.3937,0.0,0.0,0.0,0.0,0.0,0.0,0.0,0.0,0.0,0.0,0.0,0.0,0.0,0.0,0.0,0.0,0.0,-3.692,-3.674,-3.6497,-3.6037,-3.5558,-3.5055,-3.4331,-3.3832,-3.3571,-3.3232,-3.3289,-3.3558,-3.2793,-3.2337,-3.2142,-3.1331,-3.0836,-3.0675,-3.0342,-3.0216,-3.0216,-3.0216,-3.0216,-3.0216,-3.0216,-3.0216,-3.0216,-3.0216,-3.0216,-3.0216,-3.0442,-3.0352,-3.0216,-3.0442,-3.0352,-3.0216,-3.0216,-2.9988,-2.976,-2.976,-2.9531,-2.9382,-2.9715,-2.976,-2.9577,-2.8839,-2.8653,-2.8513,-2.8092,-2.7752,-2.7421,-2.7003,-2.662,-2.6255,-2.5781,-2.5693,-2.5693,-2.5693,-2.5693,-2.5693,-2.5693,-2.5693,-2.5693,-2.5693,-2.5693,-2.5693,-2.5693,-2.5693,-2.5693,-2.5693,-2.5693,-2.5693,-2.5693,-2.5693,-2.5693,-2.5693,-2.5693,-2.5693,-2.5693,-2.5693,-2.5693,-3.0683,-3.1095,-3.1368,-3.0833,-3.1174,-3.1918,-3.297,-3.4148,-3.486,-3.4223,0.0,-3.3823,-3.3197,-3.3624,-3.3823,0.0,0.0,0.0,0.0,0.0,0.0,0.0,0.0,0.0,0.0,0.0,0.0,0.0,0.0,0.0,0.0,-3.6978,-3.6705,-3.6111,-3.6031,-3.5426,-3.4285,-3.416,-3.3793,-3.321,-3.3111,-3.3124,-3.3068,-3.2605,-3.2125,-3.1617,-3.1128,-3.0623,-3.0216,-3.0216,-3.0216,-3.0216,-3.0216,-3.0216,-3.0216,-3.0216,-3.0216,-3.0216,-3.0261,-3.0261,-3.0352,-3.0814,-3.0668,-3.0397,-3.0814,-3.0578,-3.0261,-3.0216,-2.9715,-2.922,-2.922,-2.8653,-2.8233,-2.885,-2.8989,-2.8792,-2.8034,-2.7893,-2.7904,-2.7809,-2.7241,-2.6812,-2.6812,-2.6159,-2.5693,-2.5693,-2.5693,-2.5693,-2.5693,-2.5693,-2.5693,-2.5693,-2.5693,-2.5693,-2.5693,-2.5693,-2.5693,-2.5693,-2.5693,-2.5693,-2.5693,-2.5693,-2.5693,-2.5693,-2.5693,-2.5693,-2.5693,-2.5693,-2.5693,-2.5693,-2.5693,-2.5693,-3.1169,-3.1392,-3.1479,-3.1355,-3.2108,-3.2826,-3.2567,-3.347,-3.4254,-3.4134,-3.3666,-3.3283,-3.3124,-3.3197,0.0,0.0,0.0,0.0,0.0,0.0,0.0,0.0,0.0,0.0,0.0,0.0,0.0,0.0,0.0,0.0,-3.623,-3.6705,-3.694,-3.6783,-3.627,-3.5871,-3.5575,-3.4605,-3.4047,0.0,-3.3368,-3.3124,-3.3068,-3.2605,-3.1893,-3.1083,-3.0949,-3.0623,-3.0216,-3.0216,-3.0216,-3.0216,-3.0216,-3.0216,-3.0216,-3.0216,-3.0216,-3.0261,-3.0623,-3.0769,-3.0847,-3.135,-3.1439,-3.1306,-3.0994,-3.0814,-3.0668,-3.0306,-3.008,-2.9943,-2.9943,-2.9439,-2.8746,-2.8326,-2.8233,-2.8034,-2.7289,-2.7146,-2.6955,-2.6304,-2.6062,-2.5975,-2.5975,-2.583,-2.5693,-2.5693,-2.5693,-2.5693,-2.5693,-2.5693,-2.5693,-2.5693,-2.5693,-2.5693,-2.5693,-2.5693,-2.5693,-2.5693,-2.5693,-2.5693,-2.5693,-2.5693,-2.5693,-2.5693,-2.5693,-2.5693,-2.5693,-2.5693,-2.5693,-2.5693,-2.5693,-2.5693,-3.0608,-3.0684,-3.0684,-3.0684,0.0,-3.2359,-3.1957,-3.2823,-3.3643,-3.3645,-3.3326,-3.3124,-3.3124,-3.3124,0.0,0.0,0.0,0.0,0.0,0.0,0.0,0.0,0.0,0.0,0.0,0.0,0.0,0.0,0.0,-3.5535,-3.5535,-3.6151,-3.6508,-3.6508,-3.6508,-3.631,-3.5991,-3.5005,-3.4397,-3.4076,-3.3411,-3.3124,-3.3081,-3.2865,-3.2344,-3.1629,-3.1395,-3.0994,-3.0532,-3.0306,-3.0216,-3.0216,-3.0216,-3.0216,-3.0216,-3.0442,-3.0532,-3.0623,-3.1128,-3.1306,-3.135,-3.1893,-3.1893,-3.1705,-3.1617,-3.1261,-3.0859,-3.0578,-3.0125,-2.9577,-2.9244,-2.8595,-2.7857,-2.7098,-2.7194,-2.7278,-2.6486,-2.6342,-2.6207,-2.5781,-2.5693,-2.5693,-2.5693,-2.5693,-2.5693,-2.5693,-2.5693,-2.5693,-2.5693,-2.5693,-2.5693,-2.5693,-2.5693,-2.5693,-2.5693,-2.5693,-2.5693,-2.5693,-2.5693,-2.5693,-2.5693,-2.5693,-2.5693,-2.5693,-2.5693,-2.5693,-2.5693,-2.5693,-2.5693,-2.5693,-2.5693,-2.5693,-2.9792,-2.9792,-2.9792,-2.9792,-3.061,0.0,-3.1309,-3.2125,-3.288,-3.2932,-3.3048,-3.3124,-3.3124,0.0,0.0,0.0,0.0,0.0,0.0,0.0,0.0,0.0,0.0,0.0,0.0,0.0,0.0,0.0,0.0,-3.484,-3.484,-3.5453,-3.5831,-3.5831,-3.6389,-3.6455,-3.5991,-3.525,-3.4634,-3.4243,-3.3454,-3.3124,-3.3124,-3.3124,-3.2822,-3.2344,-3.1893,-3.1395,-3.0859,-3.0397,-3.0216,-3.0216,-3.0216,-3.0261,-3.0352,-3.0769,-3.0949,-3.1128,-3.1617,-3.1793,-3.1893,-3.2388,-3.2245,-3.2025,-3.23,-3.1761,-3.1038,-3.0949,-3.0125,-2.9117,-2.8362,-2.7657,-2.6907,-2.611,-2.6438,-2.6668,-2.5878,-2.5693,-2.5693,-2.5693,-2.5693,-2.5693,-2.5693,-2.5693,-2.5693,-2.5693,-2.5693,-2.5693,-2.5693,-2.5693,-2.5693,-2.5693,-2.5693,-2.5693,-2.5693,-2.5693,-2.5693,-2.5693,-2.5693,-2.5693,-2.5693,-2.5693,-2.5693,-2.5693,-2.5693,-2.5693,-2.5693,-2.5693,-2.5693,-2.5693,-2.5693,-2.5781,-2.9792,0.0,-2.9792,0.0,-3.0284,-3.0739,0.0,0.0,-3.1773,0.0,-3.2729,-3.3124,0.0,0.0,0.0,0.0,0.0,0.0,0.0,0.0,0.0,0.0,0.0,0.0,0.0,0.0,0.0,0.0,-3.3865,-3.4243,-3.4243,-3.4799,-3.5114,-3.5114,-3.5237,-3.5494,-3.5991,-3.4812,-3.4439,-3.4868,-3.3696,-3.3124,-3.3124,-3.3124,-3.2822,-3.2344,-3.1893,-3.1395,-3.0859,-3.0397,-3.0216,-3.0216,-3.0216,-3.0442,-3.0802,-3.0859,-3.1172,-3.1661,-3.2125,-3.23,-3.2388,-3.2865,-3.2939,-3.2853,-3.2519,-3.2025,-3.1484,-3.1038,-3.0487,-2.9897,-2.9117,-2.842,-2.7657,-2.6907,-2.6812,-2.6668,-2.5878,-2.5693,-2.5693,-2.5693,-2.5693,-2.5693,-2.5693,-2.5693,-2.5693,-2.5693,-2.5693,-2.5693,-2.5693,-2.5693,-2.5693,-2.5693,-2.5693,-2.5693,-2.5693,-2.5693,-2.5693,-2.5693,-2.5693,-2.5693,-2.5693,-2.5693,-2.5693,-2.5693,-2.5693,-2.5693,-2.5693,-2.5693,-2.5693,-2.5693,-2.5693,-2.6062,-2.9792,-2.9792,-2.9792,0.0,-2.998,-3.0231,-3.0545,-3.0796,-3.111,-3.1637,-3.1951,0.0,0.0,0.0,0.0,0.0,0.0,0.0,0.0,0.0,0.0,0.0,0.0,0.0,0.0,0.0,0.0,0.0,-3.3368,-3.3539,-3.3539,-3.4147,-3.4522,-3.4522,-3.484,-3.5155,-3.5453,-3.4564,-3.4034,-3.3937,-3.3368,-3.3124,-3.3124,-3.3124,-3.2995,-3.2779,-3.23,-3.1805,-3.135,-3.1116,-3.0847,-3.0623,-3.0937,-3.116,-3.1395,-3.1617,-3.1705,-3.1749,-3.2257,-3.24,-3.2431,-3.2649,-3.2692,-3.2649,-3.2487,-3.1849,-3.1217,-3.0994,-3.0578,-3.0034,-2.9312,-2.8839,-2.842,-2.7715,-2.7526,-2.7421,-2.7051,-2.6678,-2.6255,-2.5781,-2.5693,-2.5693,-2.5693,-2.5693,-2.5693,-2.5693,-2.5693,-2.5693,-2.5693,-2.5693,-2.5693,-2.5693,-2.5693,-2.5693,-2.5693,-2.5693,-2.5693,-2.5693,-2.5693,-2.5693,-2.5693,-2.5693,-2.5927,-2.6342,-2.5927,-2.5927,-2.639,-2.639,-2.6582,-2.7003,-2.7003,-2.6955,-2.9792,0.0,-2.9792,-2.9792,-2.9792,-2.9892,0.0,0.0,-3.0557,0.0,0.0,0.0,0.0,0.0,0.0,0.0,0.0,0.0,0.0,0.0,0.0,0.0,0.0,0.0,0.0,0.0,0.0,0.0,-3.3124,-3.3124,-3.3124,-3.3569,-3.3836,-3.3836,-3.4259,-3.4592,-3.4758,-3.4176,-3.3556,-3.2909,-3.2909,-3.2865,-3.2766,-3.2865,-3.2909,-3.2909,-3.2562,-3.2213,-3.1893,-3.1749,-3.1439,-3.1128,-3.1528,-3.1749,-3.1893,-3.2125,-3.2069,-3.1893,-3.2157,-3.2213,-3.2213,-3.2213,-3.2213,-3.2213,-3.2213,-3.1617,-3.0904,-3.0904,-3.0578,-3.0034,-2.9312,-2.9082,-2.8896,-2.8186,-2.8139,-2.8186,-2.7809,-2.7278,-2.6668,-2.5878,-2.5693,-2.5693,-2.5693,-2.5693,-2.5693,-2.5693,-2.5693,-2.5693,-2.5693,-2.5693,-2.5693,-2.5693,-2.5693,-2.5693,-2.5693,-2.5693,-2.5693,-2.5693,-2.5878,-2.6014,-2.6014,-2.6159,-2.6582,-2.7194,-2.6582,-2.6582,-2.7183,-2.7183,-2.7468,-2.7987,-2.7683,-2.7338,-2.9792,-2.9792,0.0,-2.9792,-2.9792,-2.9804,0.0,0.0,0.0,0.0,0.0,0.0,0.0,0.0,0.0,0.0,0.0,0.0,0.0,0.0,0.0,0.0,0.0,0.0,0.0,0.0,0.0,0.0,-3.3124,-3.3124,-3.3124,-3.3111,-3.3154,-3.3154,-3.3197,-3.3484,-3.416,-3.359,-3.3048,-3.2444,-3.2444,-3.2213,-3.1793,-3.2245,-3.2444,-3.2444,-3.2388,-3.24,-3.2344,-3.1893,-3.1661,-3.1661,-3.1705,-3.1981,-3.23,-3.1893,-3.1981,-3.23,-3.1893,-3.1749,-3.1749,-3.1749,-3.1749,-3.1749,-3.1749,-3.135,-3.0904,-3.0904,-3.0578,-3.0034,-2.9312,-2.9082,-2.8896,-2.8186,-2.8513,-2.8653,-2.7278,-2.6955,-2.6668,-2.5878,-2.5693,-2.5693,-2.5693,-2.5693,-2.5693,-2.5693,-2.5693,-2.5693,-2.5693,-2.5693,-2.5693,-2.5693,-2.5693,-2.5693,-2.5693,-2.5693,-2.5693,-2.5693,-2.6438,-2.686,-2.686,-2.7515,-2.7893,-2.7951,-2.7893,-2.7893,-2.7951,-2.7951,-2.794,-2.7977,-2.6832,-2.6625,-2.9792,0.0,0.0,-2.9792,-2.9792,-2.9792,-2.9792,-2.9792,-2.9842,-3.0043,0.0,0.0,0.0,0.0,0.0,0.0,0.0,0.0,0.0,0.0,0.0,0.0,0.0,0.0,0.0,0.0,0.0,0.0,0.0,-3.3124,-3.3124,-3.3124,-3.3124,-3.3124,-3.3124,-3.321,-3.3454,-3.3258,-3.2927,-3.24,-3.24,-3.2169,-3.1717,-3.1893,-3.1937,-3.1981,-3.2257,-3.24,-3.2388,-3.255,-3.2419,-3.2157,-3.2463,-3.268,-3.2779,-3.2344,-3.2081,-3.1893,-3.135,-3.1172,-3.1172,-3.1172,-3.1172,-3.1172,-3.1172,-3.0847,-3.0442,-3.0442,-3.0306,-3.0125,-2.9852,-2.9806,-2.976,-2.9474,-2.9612,-2.9531,-2.8502,-2.8326,-2.8092,-2.7336,-2.6764,-2.6486,-2.6486,-2.6062,-2.5693,-2.5693,-2.5693,-2.5693,-2.5693,-2.5693,-2.5878,-2.6438,-2.6014,-2.611,-2.7098,-2.6716,-2.6678,-2.7146,-2.7431,-2.761,-2.761,-2.7846,-2.8233,-2.8699,-2.8394,-2.8394,-2.8699,-2.7921,-2.7817,-2.8311,-2.7062,-2.6658,-2.9792,-2.9792,-2.9792,0.0,-2.9792,-2.9792,-2.9792,0.0,-2.9792,-2.9792,0.0,0.0,0.0,0.0,0.0,0.0,0.0,0.0,0.0,0.0,0.0,0.0,0.0,0.0,0.0,0.0,0.0,0.0,0.0,0.0,-3.3124,-3.3124,-3.3124,-3.3124,-3.3124,-3.3124,-3.3124,-3.2952,-3.2649,-3.2169,-3.2169,-3.1793,-3.1217,-3.135,-3.1439,-3.1439,-3.1761,-3.2081,-3.2444,-3.2909,-3.2909,-3.2649,-3.2995,-3.3124,-3.3025,-3.2388,-3.1981,-3.1617,-3.0904,-3.0679,-3.0679,-3.0679,-3.0679,-3.0679,-3.0679,-3.0442,-3.0216,-3.0216,-3.0216,-3.0216,-3.0216,-3.0216,-3.0216,-3.0216,-3.0216,-3.008,-2.9577,-2.9255,-2.8896,-2.8139,-2.7373,-2.6907,-2.6907,-2.6245,-2.5781,-2.6062,-2.611,-2.6207,-2.6448,-2.6486,-2.6678,-2.7183,-2.6764,-2.6774,-2.7563,-2.7183,-2.7098,-2.761,-2.7846,-2.7998,-2.7998,-2.8233,-2.8391,-2.8506,-2.8416,-2.8475,-2.863,-2.7836,-2.7729,-2.821,-2.7006,-2.6308,0.0,0.0,0.0,-2.9792,0.0,0.0,-2.9792,0.0,-2.9792,0.0,0.0,0.0,0.0,0.0,0.0,0.0,0.0,0.0,0.0,0.0,0.0,0.0,0.0,0.0,0.0,0.0,0.0,0.0,-3.3124,-3.3124,-3.3124,-3.3124,-3.3124,-3.3124,-3.3124,-3.3124,-3.3124,-3.2649,-3.2169,-3.1705,-3.1705,-3.116,-3.0216,-3.0668,-3.0904,-3.0904,-3.0892,-3.1439,-3.2388,-3.2865,-3.3081,-3.3081,-3.3081,-3.3081,-3.2939,-3.2013,-3.1661,-3.1528,-3.0521,-3.0193,-3.0193,-3.0181,-3.017,-3.017,-3.017,-3.0181,-3.0193,-3.0193,-3.0204,-3.0216,-3.0216,-3.0216,-3.0216,-3.0216,-3.0216,-3.0216,-3.0216,-2.9623,-2.8932,-2.8186,-2.7478,-2.6955,-2.6955,-2.6294,-2.6014,-2.6812,-2.6955,-2.7183,-2.7904,-2.7998,-2.7987,-2.8034,-2.7987,-2.7704,-2.704,-2.6955,-2.6945,-2.6955,-2.761,-2.7987,-2.8034,-2.8689,-2.8552,-2.7387,-2.8038,-2.8155,-2.7678,-2.7678,-2.7678,-2.7656,-2.6455,-2.5647,-2.9792,0.0,0.0,0.0,0.0,0.0,0.0,0.0,0.0,0.0,0.0,0.0,0.0,0.0,0.0,0.0,0.0,0.0,0.0,0.0,0.0,0.0,0.0,0.0,0.0,0.0,0.0,0.0,-3.3124,-3.3124,-3.3124,-3.3124,-3.3124,-3.3124,-3.3124,-3.3124,-3.3124,-3.2995,-3.2506,-3.1705,-3.1705,-3.116,-3.0216,-3.0352,-3.0397,-3.0397,-3.0769,-3.1083,-3.135,-3.1881,-3.2113,-3.2113,-3.2113,-3.2113,-3.2013,-3.135,-3.1128,-3.0979,-3.0049,-2.9699,-2.963,-2.924,-2.9114,-2.9114,-2.9114,-2.9389,-2.9699,-2.9699,-2.9952,-3.0216,-3.0216,-3.0216,-3.0216,-3.0216,-3.0216,-3.0216,-3.0216,-3.0034,-2.9852,-2.9612,-2.9013,-2.8466,-2.8466,-2.7846,-2.7431,-2.7668,-2.7704,-2.7762,-2.7998,-2.7998,-2.8186,-2.8746,-2.8326,-2.8362,-2.9187,-2.8315,-2.7893,-2.8466,-2.8175,-2.8233,-2.8746,-2.8648,-2.8666,-2.8903,-2.8368,-2.7809,-2.7191,-2.7191,-2.7191,-2.718,-2.6447,-2.6067,-2.9792,-2.9792,-2.9792,-2.9792,0.0,0.0,-2.9792,-2.9792,-2.9792,0.0,0.0,0.0,0.0,0.0,0.0,0.0,0.0,0.0,0.0,0.0,0.0,0.0,0.0,0.0,0.0,-3.2177,-3.2378,-3.2378,-3.2378,-3.2478,-3.2704,-3.2943,-3.3124,-3.3124,-3.3124,-3.3124,-3.3124,-3.3124,-3.2636,-3.1705,-3.1705,-3.116,-3.0216,-3.0216,-3.0216,-3.0216,-3.0487,-3.0623,-3.0623,-3.0949,-3.1306,-3.1705,-3.1705,-3.1705,-3.1593,-3.0879,-3.062,-3.0461,-2.9508,-2.9171,-2.9114,-2.8804,-2.87,-2.87,-2.87,-2.8919,-2.9171,-2.9171,-2.9527,-2.9917,-2.9917,-3.0067,-3.0216,-3.0216,-3.0216,-3.0216,-3.0216,-3.0216,-3.0216,-3.0216,-2.9577,-2.9082,-2.9082,-2.8466,-2.8081,-2.842,-2.8466,-2.856,-2.8874,-2.8921,-2.9059,-2.9485,-2.9152,-2.9013,-2.9244,-2.8781,-2.8513,-2.8606,-2.8513,-2.8566,-2.8783,-2.8541,-2.8243,-2.7965,-2.7656,-2.7347,-2.7082,-2.6808,-2.6681,-2.6681,-2.6632,-2.6622,-2.9792,-2.9792,-2.9792,-2.9792,-2.9792,0.0,-2.9792,-2.9792,-2.9792,0.0,0.0,0.0,0.0,0.0,0.0,0.0,0.0,0.0,0.0,0.0,0.0,0.0,0.0,0.0,-3.1298,-3.1361,-3.1386,-3.1386,-3.1386,-3.1599,-3.2102,-3.2604,-3.2893,-3.2893,-3.2955,-3.298,-3.298,-3.3086,-3.2636,-3.1705,-3.1705,-3.116,-3.0216,-3.0216,-3.0216,-3.0216,-3.0216,-3.0216,-3.0216,-3.0158,-3.0666,-3.1516,-3.1468,-3.1444,-3.134,-3.0398,-3.0024,-2.991,-2.8965,-2.862,-2.8609,-2.8551,-2.854,-2.854,-2.854,-2.8574,-2.8632,-2.8689,-2.9045,-2.9412,-2.9412,-2.9722,-3.0044,-3.0044,-3.0044,-3.0044,-3.0044,-3.0089,-3.0135,-3.0135,-2.9635,-2.922,-2.922,-2.8699,-2.8456,-2.9117,-2.922,-2.9451,-3.0125,-3.0216,-3.0216,-3.0216,-3.0216,-2.9658,-2.8362,-2.8746,-2.8803,-2.8186,-2.8598,-2.8749,-2.8409,-2.8287,-2.7546,-2.6065,-2.655,-2.6965,-2.719,-2.658,-2.6321,-2.6321,-2.6933,-2.719,-2.9792,-2.9792,-2.9792,-2.9792,-2.9792,0.0,-2.9792,-2.9792,-2.9792,0.0,0.0,0.0,0.0,0.0,0.0,0.0,0.0,0.0,0.0,0.0,0.0,0.0,0.0,0.0,-3.0771,-3.1148,-3.1386,-3.1386,-3.1386,-3.1436,-3.1549,-3.1662,-3.1712,-3.1712,-3.2152,-3.239,-3.239,-3.2842,-3.2636,-3.1705,-3.1705,-3.116,-3.0216,-3.0216,-3.0216,-3.0216,-3.0216,-3.0216,-3.0181,-2.9802,-2.9949,-3.0453,-3.0103,-2.9952,-2.9839,-2.9219,-2.8979,-2.891,-2.8341,-2.8126,-2.8057,-2.7644,-2.7477,-2.7477,-2.7477,-2.7805,-2.8207,-2.8586,-2.8769,-2.885,-2.885,-2.8919,-2.8999,-2.8999,-2.8999,-2.8999,-2.8999,-2.9332,-2.9642,-2.9642,-2.9817,-2.9988,-2.9988,-2.9852,-2.9795,-2.9943,-2.9988,-3.0034,-3.017,-3.0216,-3.0216,-3.0216,-3.0216,-3.008,-2.9806,-2.9347,-2.9035,-2.8885,-2.8042,-2.7828,-2.8398,-2.7568,-2.7243,-2.7544,-2.7273,-2.7158,-2.719,-2.7056,-2.7015,-2.7015,-2.7149,-2.719,-2.9792,-2.9792,0.0,-2.9792,0.0,0.0,0.0,-2.9792,-2.9792,-2.9792,-2.9792,-2.9792,-2.9792,0.0,0.0,0.0,0.0,0.0,0.0,0.0,0.0,0.0,0.0,0.0,-3.0206,-3.0432,-3.0595,-3.0595,-3.0846,-3.0997,-3.0997,-3.1248,-3.1386,-3.1386,-3.1662,-3.18,-3.18,-3.2365,-3.216,-3.1252,-3.1573,-3.116,-3.0216,-3.0216,-3.0216,-3.0204,-2.9963,-2.986,-2.9814,-2.9309,-2.924,-2.9435,-2.9194,-2.9102,-2.9045,-2.8528,-2.8344,-2.8276,-2.7782,-2.761,-2.7564,-2.727,-2.719,-2.719,-2.719,-2.7403,-2.7656,-2.7897,-2.8149,-2.8344,-2.8344,-2.8517,-2.87,-2.87,-2.87,-2.87,-2.87,-2.8907,-2.9183,-2.9447,-2.9688,-2.994,-3.017,-3.0216,-3.0216,-3.0216,-3.0216,-3.0216,-3.0216,-3.0216,-3.0216,-3.0216,-3.0216,-3.0034,-2.9669,-2.9669,-2.9385,-2.8774,-2.8519,-2.8299,-2.8215,-2.7665,-2.7462,-2.761,-2.7357,-2.719,-2.719,-2.719,-2.719,-2.719,-2.719,-2.719,0.0,0.0,0.0,0.0,0.0,-2.9792,0.0,0.0,0.0,0.0,0.0,0.0,0.0,0.0,0.0,0.0,0.0,0.0,0.0,0.0,0.0,0.0,0.0,0.0,0.0,-2.9566,-2.9628,-2.9628,-3.0143,-3.0457,-3.0457,-3.0859,-3.1085,-3.1085,-3.1185,-3.1248,-3.1248,-3.1788,-3.164,-3.08,-3.1192,-3.0924,-3.0078,-2.9975,-2.9929,-2.9906,-2.9515,-2.9343,-2.9309,-2.8781,-2.8563,-2.8563,-2.8563,-2.8563,-2.8505,-2.8012,-2.7839,-2.7782,-2.7328,-2.719,-2.719,-2.719,-2.719,-2.719,-2.719,-2.719,-2.719,-2.719,-2.7518,-2.7839,-2.7839,-2.8126,-2.8413,-2.8413,-2.8413,-2.8413,-2.8413,-2.8494,-2.8689,-2.9125,-2.9366,-2.9653,-3.0135,-3.0216,-3.0216,-3.0216,-3.0216,-3.0216,-3.0216,-3.0216,-3.0216,-3.0216,-3.0216,-2.9943,-2.9359,-2.9772,-2.9636,-2.869,-2.9,-2.8838,-2.8012,-2.7885,-2.7644,-2.7201,-2.719,-2.719,-2.719,-2.719,-2.719,-2.719,-2.719,-2.719,0.0,0.0,0.0,0.0,-2.9792,0.0,0.0,0.0,-2.9792,-2.9792,0.0,0.0,0.0,0.0,0.0,0.0,0.0,0.0,0.0,0.0,0.0,0.0,0.0,0.0,0.0,-2.8737,-2.8988,-2.8988,-2.9553,-2.988,-2.988,-2.9942,-2.998,-2.998,-3.0444,-3.0708,-3.0708,-3.1223,-3.1257,-3.0788,-3.0446,-3.0048,-2.9561,-2.9091,-2.8873,-2.8873,-2.8815,-2.8792,-2.8746,-2.8264,-2.8057,-2.8057,-2.8057,-2.8057,-2.8,-2.7506,-2.727,-2.7259,-2.7213,-2.719,-2.719,-2.719,-2.719,-2.719,-2.719,-2.719,-2.719,-2.719,-2.7224,-2.727,-2.727,-2.7316,-2.7362,-2.7362,-2.7362,-2.7362,-2.7362,-2.7748,-2.808,-2.8138,-2.8884,-2.9653,-3.0135,-3.0216,-3.0216,-3.0216,-3.0216,-3.0216,-3.0216,-3.0216,-3.0216,-3.0216,-3.0216,-3.017,-3.008,-2.9781,-2.9506,-2.936,-2.8611,-2.8103,-2.7989,-2.7552,-2.7247,-2.719,-2.719,-2.719,-2.719,-2.719,-2.719,-2.719,-2.719,-2.719,0.0,0.0,0.0,0.0,0.0,0.0,-2.9856,0.0,-2.9792,0.0,0.0,0.0,0.0,0.0,0.0,0.0,-2.9352,0.0,0.0,0.0,0.0,0.0,0.0,0.0,0.0,0.0,0.0,0.0,-2.8976,-2.9289,-2.9289,-2.9616,-2.9792,-2.9792,-3.0018,-3.0143,-3.0143,-3.067,-3.0588,-2.9875,-3.0037,-2.9728,-2.9022,-2.8804,-2.87,-2.8677,-2.8402,-2.8287,-2.8241,-2.7748,-2.7552,-2.7552,-2.7552,-2.7552,-2.7518,-2.7259,-2.719,-2.719,-2.719,-2.719,-2.719,-2.719,-2.719,-2.719,-2.719,-2.719,-2.719,-2.719,-2.719,-2.719,-2.719,-2.719,-2.719,-2.719,-2.719,-2.719,-2.719,-2.7392,-2.7633,-2.792,-2.8322,-2.8873,-2.9665,-3.0032,-3.0216,-3.0216,-3.0216,-3.0216,-3.0216,-3.0216,-3.0216,-3.0216,-3.0216,-3.0101,-2.9825,-2.9607,-2.924,-2.8654,-2.7943,-2.7552,-2.7552,-2.7305,-2.719,-2.719,-2.719,-2.719,-2.719,-2.719,-2.719,-2.719,-2.719,-2.719,-3.0062,0.0,0.0,0.0,0.0,0.0,0.0,0.0,0.0,0.0,0.0,0.0,0.0,0.0,-2.9691,-2.9377,0.0,-2.8787,0.0,0.0,0.0,0.0,0.0,0.0,0.0,0.0,0.0,-2.7883,-2.8398,-2.8662,-2.8662,-2.9252,-2.9553,-2.9553,-2.9704,-2.9792,-2.9792,-3.0193,-3.0047,-2.939,-2.9574,-2.9296,-2.8665,-2.8399,-2.8299,-2.8276,-2.7931,-2.7782,-2.7748,-2.738,-2.719,-2.719,-2.719,-2.719,-2.719,-2.719,-2.719,-2.719,-2.719,-2.719,-2.719,-2.719,-2.719,-2.719,-2.719,-2.719,-2.719,-2.719,-2.719,-2.719,-2.719,-2.719,-2.719,-2.719,-2.719,-2.719,-2.719,-2.719,-2.7334,-2.7702,-2.7885,-2.8218,-2.8953,-2.9607,-3.0067,-3.0193,-3.0216,-3.0216,-3.0216,-3.0216,-3.017,-3.0032,-3.0021,-2.9814,-2.932,-2.916,-2.8712,-2.7828,-2.7438,-2.719,-2.719,-2.719,-2.719,-2.719,-2.719,-2.719,-2.719,-2.719,-2.719,-2.719,-2.719,-2.719,0.0,0.0,0.0,-2.9934,0.0,0.0,0.0,0.0,-2.9792,0.0,0.0,0.0,0.0,-2.9792,-2.944,-2.8335,-2.8549,0.0,0.0,0.0,0.0,0.0,0.0,0.0,0.0,0.0,-2.7341,-2.7341,-2.7821,-2.8134,-2.8134,-2.8624,-2.8913,-2.8913,-2.9503,-2.9792,-2.9792,-2.9817,-2.9833,-2.9889,-2.9,-2.8581,-2.8592,-2.7648,-2.7236,-2.7236,-2.7213,-2.7213,-2.7213,-2.7201,-2.719,-2.719,-2.719,-2.719,-2.719,-2.719,-2.719,-2.719,-2.719,-2.719,-2.719,-2.719,-2.719,-2.719,-2.719,-2.719,-2.719,-2.719,-2.719,-2.719,-2.719,-2.719,-2.719,-2.719,-2.719,-2.719,-2.719,-2.719,-2.7201,-2.7213,-2.7644,-2.7989,-2.8023,-2.8861,-2.9676,-3.0147,-3.0216,-3.0216,-3.0216,-3.0216,-3.0044,-2.9573,-2.9515,-2.9309,-2.8769,-2.8299,-2.7805,-2.7247,-2.7201,-2.719,-2.719,-2.719,-2.719,-2.719,-2.719,-2.719,-2.719,-2.719,-2.719,-2.719,-2.719,-2.719,0.0,0.0,-3.1663,-3.1084,0.0,0.0,0.0,0.0,0.0,0.0,0.0,0.0,0.0,-2.9478,-2.9101,-2.8675,-2.8197,-2.7708,0.0,0.0,0.0,0.0,0.0,0.0,0.0,0.0,0.0,-2.6776,-2.7291,-2.7557,-2.7557,-2.8084,-2.8512,-2.8888,-2.9076,-2.9402,-2.9792,-2.9792,-2.9685,-2.9361,-2.8794,-2.8366,-2.8128,-2.7475,-2.719,-2.719,-2.719,-2.719,-2.719,-2.719,-2.719,-2.719,-2.719,-2.719,-2.719,-2.719,-2.719,-2.719,-2.719,-2.719,-2.719,-2.719,-2.719,-2.719,-2.719,-2.719,-2.719,-2.719,-2.719,-2.719,-2.719,-2.719,-2.719,-2.719,-2.719,-2.719,-2.719,-2.719,-2.719,-2.719,-2.7369,-2.7587,-2.792,-2.8264,-2.8781,-2.9607,-2.9435,-2.9343,-2.9699,-2.9435,-2.9148,-2.8987,-2.8964,-2.8769,-2.8264,-2.777,-2.7415,-2.7201,-2.719,-2.719,-2.719,-2.719,-2.719,-2.719,-2.719,-2.719,-2.719,-2.719,-2.719,-2.719,-2.719,-2.719,-3.1882,-3.2114,0.0,-3.1663,-3.1516,0.0,-3.1516,0.0,-3.0508,0.0,0.0,0.0,0.0,0.0,-2.9308,-2.8692,-2.8033,-2.7465,0.0,-2.6713,0.0,0.0,0.0,0.0,0.0,0.0,-2.6499,-2.6499,-2.6826,-2.7027,0.0,0.0,-2.8059,-2.8612,-2.8787,-2.9202,-2.9779,-2.9792,-2.9663,-2.9339,-2.8788,-2.8351,-2.8082,-2.7476,-2.719,-2.719,-2.719,-2.719,-2.719,-2.719,-2.719,-2.719,-2.719,-2.719,-2.719,-2.719,-2.719,-2.719,-2.719,-2.719,-2.719,-2.719,-2.719,-2.719,-2.719,-2.719,-2.7224,-2.7449,-2.7369,-2.7224,-2.7449,-2.7328,-2.719,-2.719,-2.719,-2.719,-2.719,-2.719,-2.719,-2.719,-2.719,-2.7293,-2.7656,-2.7713,-2.8057,-2.9056,-2.8919,-2.8827,-2.9171,-2.8907,-2.8632,-2.8459,-2.8436,-2.8241,-2.7759,-2.7415,-2.719,-2.719,-2.719,-2.719,-2.719,-2.719,-2.719,-2.719,-2.719,-2.719,-2.719,-2.719,-2.719,-2.719,-2.719,-2.719]}]]